[[{"header":{"parameterUnit":"m.s-1","parameterCategory":1,"la1":30.6,"la2":28.766,"lo1":-90.7593,"lo2":-88.6598,"dy":0.0162,"dx":0.0183,"nx":116,"ny":114,"refTime":"2023-05-23T12:00:00:Z","depth":0,"parameterNumber":2,"parameterNumberName":"U-component_of_WINDS"},"data":[0.0,0.0,0.0,0.0,0.0,0.0,0.0,0.0,0.0,0.0,0.0,0.0,0.0,0.0,0.0,0.0,0.0,0.0,0.0,0.0,0.0,0.0,0.0,0.0,0.0,0.0,0.0,0.0,0.0,0.0,0.0,0.0,0.0,0.0,0.0,0.0,0.0,0.0,0.0,0.0,0.0,0.0,0.0,0.0,0.0,0.0,0.0,0.0,0.0,0.0,0.0,0.0,0.0,0.0,0.0,0.0,0.0,0.0,0.0,0.0,0.0,0.0,0.0,0.0,0.0,0.0,0.0,0.0,0.0,0.0,0.0,0.0,0.0,0.0,0.0,0.0,0.0,0.0,0.0,0.0,0.0,0.0,0.0,0.0,0.0,0.0,0.0,0.0,0.0,0.0,0.0,0.0,0.0,0.0,0.0,0.0,0.0,0.0,0.0,0.0,0.0,0.0,0.0,0.0,0.0,0.0,0.0,0.0,0.0,0.0,0.0,0.0,0.0,0.0,0.0,0.0,0.0,0.0,0.0,0.0,0.0,0.0,0.0,0.0,0.0,0.0,0.0,0.0,0.0,0.0,0.0,0.0,0.0,0.0,0.0,0.0,0.0,0.0,0.0,0.0,0.0,0.0,0.0,0.0,0.0,0.0,0.0,0.0,0.0,0.0,0.0,0.0,0.0,0.0,0.0,0.0,0.0,0.0,0.0,0.0,0.0,0.0,0.0,0.0,0.0,0.0,0.0,0.0,0.0,0.0,0.0,0.0,0.0,0.0,0.0,0.0,0.0,0.0,0.0,0.0,0.0,0.0,0.0,0.0,0.0,0.0,0.0,0.0,0.0,0.0,0.0,0.0,0.0,0.0,0.0,0.0,0.0,0.0,0.0,0.0,0.0,0.0,0.0,0.0,0.0,0.0,0.0,0.0,0.0,0.0,0.0,0.0,0.0,0.0,0.0,0.0,0.0,0.0,0.0,0.0,0.0,0.0,0.0,0.0,0.0,0.0,0.0,0.0,0.0,0.0,0.0,0.0,0.0,0.0,0.0,0.0,0.0,0.0,0.0,0.0,0.0,0.0,0.0,0.0,0.0,0.0,0.0,0.0,0.0,0.0,0.0,0.0,0.0,0.0,0.0,0.0,0.0,0.0,0.0,0.0,0.0,0.0,0.0,0.0,0.0,0.0,0.0,0.0,0.0,0.0,0.0,0.0,0.0,0.0,0.0,0.0,0.0,0.0,0.0,0.0,0.0,0.0,0.0,0.0,0.0,0.0,0.0,0.0,0.0,0.0,0.0,0.0,0.0,0.0,0.0,0.0,0.0,0.0,0.0,0.0,0.0,0.0,0.0,0.0,0.0,0.0,0.0,0.0,0.0,0.0,0.0,0.0,0.0,0.0,0.0,0.0,0.0,0.0,0.0,0.0,0.0,0.0,0.0,0.0,0.0,0.0,0.0,0.0,0.0,0.0,0.0,0.0,0.0,0.0,0.0,0.0,0.0,0.0,0.0,0.0,0.0,0.0,0.0,0.0,0.0,0.0,0.0,0.0,0.0,0.0,0.0,0.0,0.0,0.0,0.0,0.0,0.0,0.0,0.0,0.0,0.0,0.0,0.0,0.0,0.0,0.0,0.0,0.0,0.0,0.0,0.0,0.0,0.0,0.0,0.0,0.0,0.0,0.0,0.0,0.0,0.0,0.0,0.0,0.0,0.0,0.0,0.0,0.0,0.0,0.0,0.0,0.0,0.0,0.0,0.0,0.0,0.0,0.0,0.0,0.0,0.0,0.0,0.0,0.0,0.0,0.0,0.0,0.0,0.0,0.0,0.0,0.0,0.0,0.0,0.0,0.0,0.0,0.0,0.0,0.0,0.0,0.0,0.0,0.0,0.0,0.0,0.0,0.0,0.0,0.0,0.0,0.0,0.0,0.0,0.0,0.0,0.0,0.0,0.0,0.0,0.0,0.0,0.0,0.0,0.0,0.0,0.0,0.0,0.0,0.0,0.0,0.0,0.0,0.0,0.0,0.0,0.0,0.0,0.0,0.0,0.0,0.0,0.0,0.0,0.0,0.0,0.0,0.0,0.0,0.0,0.0,0.0,0.0,0.0,0.0,0.0,0.0,0.0,0.0,0.0,0.0,0.0,0.0,0.0,0.0,0.0,0.0,0.0,0.0,0.0,0.0,0.0,0.0,0.0,0.0,0.0,0.0,0.0,0.0,0.0,0.0,0.0,0.0,0.0,0.0,0.0,0.0,0.0,0.0,0.0,0.0,0.0,0.0,0.0,0.0,0.0,0.0,0.0,0.0,0.0,0.0,0.0,0.0,0.0,0.0,0.0,0.0,0.0,0.0,0.0,0.0,0.0,0.0,0.0,0.0,0.0,0.0,0.0,0.0,0.0,0.0,0.0,0.0,0.0,0.0,0.0,0.0,0.0,0.0,0.0,0.0,0.0,0.0,0.0,0.0,0.0,0.0,0.0,0.0,0.0,0.0,0.0,0.0,0.0,0.0,0.0,0.0,0.0,0.0,0.0,0.0,0.0,0.0,0.0,0.0,0.0,0.0,0.0,0.0,0.0,0.0,0.0,0.0,0.0,0.0,0.0,0.0,0.0,0.0,0.0,0.0,0.0,0.0,0.0,0.0,0.0,0.0,0.0,0.0,0.0,0.0,0.0,0.0,0.0,0.0,0.0,0.0,0.0,0.0,0.0,0.0,0.0,0.0,0.0,0.0,0.0,0.0,0.0,0.0,0.0,0.0,0.0,0.0,0.0,0.0,0.0,0.0,0.0,0.0,0.0,0.0,0.0,0.0,0.0,0.0,0.0,0.0,0.0,0.0,0.0,0.0,0.0,0.0,0.0,0.0,0.0,0.0,0.0,0.0,0.0,0.0,0.0,0.0,0.0,0.0,0.0,0.0,0.0,0.0,0.0,0.0,0.0,0.0,0.0,0.0,0.0,0.0,0.0,0.0,0.0,0.0,0.0,0.0,0.0,0.0,0.0,0.0,0.0,0.0,0.0,0.0,0.0,0.0,0.0,0.0,0.0,0.0,0.0,0.0,0.0,0.0,0.0,0.0,0.0,0.0,0.0,0.0,0.0,0.0,0.0,0.0,0.0,0.0,0.0,0.0,0.0,0.0,0.0,0.0,0.0,0.0,0.0,0.0,0.0,0.0,0.0,0.0,0.0,0.0,0.0,0.0,0.0,0.0,0.0,0.0,0.0,0.0,0.0,0.0,0.0,0.0,0.0,0.0,0.0,0.0,0.0,0.0,0.0,0.0,0.0,0.0,0.0,0.0,0.0,0.0,0.0,0.0,0.0,0.0,0.0,0.0,0.0,0.0,0.0,0.0,0.0,0.0,0.0,0.0,0.0,0.0,0.0,0.0,0.0,0.0,0.0,0.0,0.0,0.0,0.0,0.0,0.0,0.0,0.0,0.0,0.0,0.0,0.0,0.0,0.0,0.0,0.0,0.0,0.0,0.0,0.0,0.0,0.0,0.0,0.0,0.0,0.0,0.0,0.0,0.0,0.0,0.0,0.0,0.0,0.0,0.0,0.0,0.0,0.0,0.0,0.0,0.0,0.0,0.0,0.0,0.0,0.0,0.0,0.0,0.0,0.0,0.0,0.0,0.0,0.0,0.0,0.0,0.0,0.0,0.0,0.0,0.0,0.0,0.0,0.0,0.0,0.0,0.0,0.0,0.0,0.0,0.0,0.0,0.0,0.0,0.0,0.0,0.0,0.0,0.0,0.0,0.0,0.0,0.0,0.0,0.0,0.0,0.0,0.0,0.0,0.0,0.0,0.0,0.0,0.0,0.0,0.0,0.0,0.0,0.0,0.0,0.0,0.0,0.0,0.0,0.0,0.0,0.0,0.0,0.0,0.0,0.0,0.0,0.0,0.0,0.0,0.0,0.0,0.0,0.0,0.0,0.0,0.0,0.0,0.0,0.0,0.0,0.0,0.0,0.0,0.0,0.0,0.0,0.0,0.0,0.0,0.0,0.0,0.0,0.0,0.0,0.0,0.0,0.0,0.0,0.0,0.0,0.0,0.0,0.0,0.0,0.0,0.0,0.0,0.0,0.0,0.0,0.0,0.0,0.0,0.0,0.0,0.0,0.0,0.0,0.0,0.0,0.0,0.0,0.0,0.0,0.0,0.0,0.0,0.0,0.0,0.0,0.0,0.0,0.0,0.0,0.0,0.0,0.0,0.0,0.0,0.0,0.0,0.0,0.0,0.0,0.0,0.0,0.0,0.0,0.0,0.0,0.0,0.0,0.0,0.0,0.0,0.0,0.0,0.0,0.0,0.0,0.0,0.0,0.0,0.0,0.0,0.0,0.0,0.0,0.0,0.0,0.0,0.0,0.0,0.0,0.0,0.0,0.0,0.0,0.0,0.0,0.0,0.0,0.0,0.0,0.0,0.0,0.0,0.0,0.0,0.0,0.0,0.0,0.0,0.0,0.0,0.0,0.0,0.0,0.0,0.0,0.0,0.0,0.0,0.0,0.0,0.0,0.0,0.0,0.0,0.0,0.0,0.0,0.0,0.0,0.0,0.0,0.0,0.0,0.0,0.0,0.0,0.0,0.0,0.0,0.0,0.0,0.0,0.0,0.0,0.0,0.0,0.0,0.0,0.0,0.0,0.0,0.0,0.0,0.0,0.0,0.0,0.0,0.0,0.0,0.0,0.0,0.0,0.0,0.0,0.0,0.0,0.0,0.0,0.0,0.0,0.0,0.0,0.0,0.0,0.0,0.0,0.0,0.0,0.0,0.0,0.0,0.0,0.0,0.0,0.0,0.0,0.0,0.0,0.0,0.0,0.0,0.0,0.0,0.0,0.0,0.0,0.0,0.0,0.0,0.0,0.0,0.0,0.0,0.0,0.0,0.0,0.0,0.0,0.0,0.0,0.0,0.0,0.0,0.0,0.0,0.0,0.0,0.0,0.0,0.0,0.0,0.0,0.0,0.0,0.0,0.0,0.0,0.0,0.0,0.0,0.0,0.0,0.0,0.0,0.0,0.0,0.0,0.0,0.0,0.0,0.0,0.0,0.0,0.0,0.0,0.0,0.0,0.0,0.0,0.0,0.0,0.0,0.0,0.0,0.0,0.0,0.0,0.0,0.0,0.0,0.0,0.0,0.0,0.0,0.0,0.0,0.0,0.0,0.0,0.0,0.0,0.0,0.0,0.0,0.0,0.0,0.0,0.0,0.0,0.0,0.0,0.0,0.0,0.0,0.0,0.0,0.0,0.0,0.0,0.0,0.0,0.0,0.0,0.0,0.0,0.0,0.0,0.0,0.0,0.0,0.0,0.0,0.0,0.0,0.0,0.0,0.0,0.0,0.0,0.0,0.0,0.0,0.0,0.0,0.0,0.0,0.0,0.0,0.0,0.0,0.0,0.0,0.0,0.0,0.0,0.0,0.0,0.0,0.0,0.0,0.0,0.0,0.0,0.0,0.0,0.0,0.0,0.0,0.0,0.0,0.0,0.0,0.0,0.0,0.0,0.0,0.0,0.0,0.0,0.0,0.0,0.0,0.0,0.0,0.0,0.0,0.0,0.0,0.0,0.0,0.0,0.0,0.0,0.0,0.0,0.0,0.0,0.0,0.0,0.0,0.0,0.0,0.0,0.0,0.0,0.0,0.0,0.0,0.0,0.0,0.0,0.0,0.0,0.0,0.0,0.0,0.0,0.0,0.0,0.0,0.0,0.0,0.0,0.0,0.0,0.0,0.0,0.0,0.0,0.0,0.0,0.0,0.0,0.0,0.0,0.0,0.0,0.0,0.0,0.0,0.0,0.0,0.0,0.0,0.0,0.0,0.0,0.0,0.0,0.0,0.0,0.0,0.0,0.0,0.0,0.0,0.0,0.0,0.0,0.0,0.0,0.0,0.0,0.0,0.0,0.0,0.0,0.0,0.0,0.0,0.0,0.0,0.0,0.0,0.0,0.0,0.0,0.0,0.0,0.0,0.0,0.0,0.0,0.0,0.0,0.0,0.0,0.0,0.0,0.0,0.0,0.0,0.0,0.0,0.0,0.0,0.0,0.0,0.0,0.0,0.0,0.0,0.0,0.0,0.0,0.0,0.0,0.0,0.0,0.0,0.0,0.0,0.0,-3.4739,0.0,0.0,0.0,0.0,0.0,0.0,0.0,0.0,0.0,0.0,0.0,0.0,0.0,0.0,0.0,0.0,0.0,0.0,0.0,0.0,0.0,0.0,0.0,0.0,0.0,0.0,0.0,0.0,0.0,0.0,0.0,0.0,0.0,0.0,0.0,0.0,0.0,0.0,0.0,2.776,2.7625,2.7625,2.7625,2.6811,2.5398,0.0,0.0,0.0,0.0,0.0,0.0,0.0,0.0,0.0,0.0,0.0,0.0,0.0,0.0,0.0,0.0,0.0,0.0,0.0,0.0,0.0,0.0,0.0,0.0,0.0,0.0,0.0,0.0,0.0,0.0,0.0,0.0,0.0,0.0,0.0,0.0,0.0,0.0,0.0,0.0,0.0,0.0,0.0,0.0,0.0,0.0,0.0,0.0,0.0,0.0,0.0,0.0,0.0,0.0,0.0,0.0,0.0,0.0,0.0,0.0,0.0,0.0,0.0,0.0,0.0,0.0,0.0,0.0,0.0,0.0,0.0,-3.4863,0.0,0.0,0.0,0.0,0.0,0.0,0.0,0.0,0.0,0.0,0.0,0.0,0.0,0.0,0.0,0.0,0.0,0.0,0.0,0.0,0.0,0.0,0.0,0.0,2.761,2.776,2.776,0.0,0.0,0.0,0.0,0.0,0.0,0.0,0.0,2.9234,2.8916,2.8688,2.8157,2.7919,2.7919,2.7867,2.7088,2.5661,2.5495,0.0,0.0,0.0,0.0,0.0,0.0,0.0,0.0,0.0,0.0,0.0,0.0,0.0,0.0,0.0,0.0,0.0,0.0,0.0,0.0,0.0,0.0,0.0,0.0,0.0,0.0,0.0,0.0,0.0,0.0,0.0,0.0,0.0,0.0,0.0,0.0,0.0,0.0,0.0,0.0,0.0,0.0,0.0,0.0,0.0,0.0,0.0,0.0,0.0,0.0,0.0,0.0,0.0,0.0,0.0,0.0,0.0,0.0,0.0,0.0,0.0,0.0,0.0,-3.5513,-3.546,-3.5594,-3.4988,-3.4858,-3.5128,-3.4741,-3.4666,-3.4858,-3.5135,0.0,0.0,0.0,0.0,0.0,0.0,0.0,0.0,0.0,0.0,0.0,0.0,0.0,0.0,0.0,0.0,0.0,0.0,0.0,0.0,0.0,2.7625,2.781,2.8334,2.8367,2.8826,0.0,0.0,0.0,0.0,0.0,0.0,0.0,3.0828,3.0548,2.947,2.9188,2.908,2.908,2.8956,2.8141,2.6736,2.58,2.4894,2.3872,0.0,0.0,0.0,0.0,0.0,0.0,0.0,0.0,0.0,0.0,0.0,0.0,0.0,0.0,0.0,0.0,0.0,0.0,0.0,0.0,0.0,0.0,0.0,0.0,0.0,0.0,0.0,0.0,0.0,0.0,0.0,0.0,0.0,0.0,0.0,0.0,0.0,0.0,0.0,0.0,0.0,-3.0577,-3.1139,0.0,0.0,0.0,0.0,0.0,0.0,0.0,0.0,0.0,0.0,0.0,0.0,0.0,-3.5757,-3.5864,-3.569,-3.5979,-3.6723,-3.6562,-3.6887,-3.7598,-3.7053,-3.6831,-3.6831,-3.634,0.0,-3.5432,-3.5666,0.0,0.0,0.0,0.0,0.0,0.0,0.0,0.0,0.0,0.0,0.0,0.0,0.0,0.0,0.0,0.0,0.0,0.0,0.0,0.0,0.0,2.7625,2.771,2.7944,2.8658,2.9343,2.989,0.0,0.0,0.0,0.0,3.2691,3.2161,3.1725,3.0798,2.9401,2.9347,2.9277,2.9167,2.9098,2.877,2.8132,2.6804,2.5445,2.4047,2.1643,0.0,0.0,0.0,0.0,0.0,0.0,0.0,0.0,0.0,0.0,0.0,0.0,0.0,0.0,0.0,0.0,0.0,0.0,0.0,0.0,0.0,0.0,0.0,0.0,0.0,0.0,0.0,0.0,0.0,0.0,0.0,0.0,0.0,0.0,0.0,0.0,0.0,0.0,0.0,-3.0737,-3.1864,-3.2815,-3.2785,-3.305,0.0,0.0,0.0,0.0,0.0,0.0,0.0,0.0,0.0,-3.6497,-3.6522,-3.6771,-3.7244,-3.7155,-3.7287,-3.7635,-3.7568,-3.7726,-3.8036,-3.7617,-3.7414,-3.7395,-3.7021,-3.6953,-3.7099,-3.6578,-3.6574,-3.6897,0.0,0.0,0.0,0.0,-3.7924,-3.8141,0.0,0.0,0.0,0.0,0.0,0.0,0.0,0.0,0.0,0.0,0.0,0.0,2.781,2.7876,2.7966,2.8236,2.9231,2.985,2.9982,3.1549,0.0,0.0,0.0,3.3102,3.2902,3.1965,3.1021,3.0083,2.9973,2.9822,2.9542,2.9696,2.9551,2.9181,2.7771,2.6109,2.432,2.1827,2.0358,1.9274,0.0,0.0,0.0,0.0,0.0,0.0,0.0,0.0,0.0,0.0,0.0,0.0,0.0,0.0,0.0,0.0,0.0,0.0,0.0,0.0,0.0,0.0,0.0,0.0,0.0,0.0,0.0,0.0,0.0,0.0,0.0,0.0,0.0,0.0,0.0,0.0,0.0,-3.2353,-3.3028,-3.4096,-3.4093,-3.4208,0.0,0.0,0.0,0.0,0.0,0.0,-3.6295,-3.6459,-3.6819,-3.7383,-3.7465,-3.7761,-3.8324,-3.8306,-3.8393,-3.8569,-3.8539,-3.8609,-3.8749,-3.8434,-3.828,-3.8263,-3.7984,-3.8201,-3.8666,-3.7577,-3.7243,-3.7455,-3.7675,-3.7919,-3.8156,-3.8175,-3.8391,-3.8657,0.0,0.0,0.0,0.0,0.0,0.0,0.0,0.0,0.0,0.0,0.0,2.781,2.8367,2.8485,2.8951,2.9879,3.0261,3.0616,3.1002,3.1946,3.2193,3.1508,3.2213,3.2329,3.1577,3.1405,3.1603,3.2118,3.1896,3.1417,3.0733,3.1317,3.0875,2.9508,2.8246,2.684,2.5224,2.2539,1.9776,1.6964,1.3534,0.0,0.0,0.0,0.0,0.0,0.0,0.0,0.0,0.0,0.0,0.0,0.0,0.0,0.0,0.0,0.0,0.0,0.0,0.0,0.0,0.0,0.0,0.0,0.0,0.0,0.0,0.0,0.0,0.0,0.0,0.0,0.0,0.0,0.0,0.0,0.0,0.0,0.0,-3.42,-3.4486,0.0,0.0,0.0,0.0,-3.6381,-3.6698,-3.7245,-3.8218,-3.8264,-3.8344,-3.8516,-3.8405,-3.8365,-3.8381,-3.833,-3.8714,-3.9524,-3.9471,-3.9837,-4.0552,-4.0288,-4.0166,-4.0149,-3.9813,-3.969,-3.965,-3.8704,-3.8769,-3.9444,-3.9532,-3.9726,-3.9967,-4.0043,-4.0241,-4.0472,0.0,0.0,0.0,0.0,0.0,0.0,0.0,0.0,0.0,2.7509,2.7625,2.784,2.8465,2.8464,2.8712,2.9522,3.0876,3.1776,3.1911,3.3517,3.4166,3.3483,3.3742,3.3375,3.2216,3.2033,3.2018,3.217,3.2003,3.1736,3.1364,3.158,3.1172,3.0174,2.8699,2.7364,2.6114,2.3089,2.0812,1.884,1.4336,1.0715,0.0,0.0,0.0,0.0,0.0,0.0,0.0,0.0,0.0,0.0,0.0,0.0,0.0,0.0,0.0,0.0,0.0,0.0,0.0,0.0,0.0,0.0,0.0,0.0,0.0,0.0,0.0,0.0,0.0,0.0,0.0,0.0,0.0,0.0,0.0,0.0,0.0,-3.4508,-3.5087,0.0,-3.5723,-3.6328,-3.6922,-3.743,-3.7583,-3.786,-3.8318,-3.838,-3.8712,-3.9414,-3.9393,-3.9624,-4.0191,-4.0184,-4.0288,-4.0491,-4.0471,-4.057,-4.0762,-4.0676,-4.0597,-4.0564,-4.0431,-4.0364,-4.0293,-3.9953,-3.9757,-3.9656,-3.9697,-3.9886,-4.0176,-4.0194,-4.037,-4.0612,0.0,0.0,0.0,0.0,0.0,0.0,0.0,0.0,2.753,2.756,2.7956,2.841,2.8879,2.8951,2.9331,3.0182,3.1539,3.2332,3.228,3.3744,3.4301,3.3566,3.3566,3.3114,3.2145,3.1977,3.1807,3.1637,3.1792,3.1679,3.1349,3.158,3.1175,3.0115,2.8762,2.7525,2.6201,2.3153,2.0997,1.9219,1.4689,1.0975,0.7509,0.0,0.0,0.0,0.0,0.0,0.0,0.0,0.0,0.0,0.0,0.0,0.0,0.0,0.0,0.0,0.0,0.0,0.0,0.0,0.0,0.0,0.0,0.0,0.0,0.0,0.0,0.0,0.0,0.0,0.0,0.0,0.0,0.0,0.0,0.0,-3.4815,-3.5315,-3.6019,-3.654,-3.6725,-3.7347,-3.7939,-3.8439,-3.8516,-3.8714,-3.9128,-3.9223,-3.9582,-4.0249,-4.0312,-4.0605,-4.1152,-4.1171,-4.1113,-4.1029,-4.1004,-4.0944,-4.0832,-4.0818,-4.077,-4.0733,-4.0733,-4.07,-4.0668,-4.0668,-4.0446,-4.0062,-3.9947,-4.0024,-4.0211,-4.0229,-4.0399,-4.0635,0.0,0.0,0.0,0.0,0.0,0.0,0.0,2.7027,2.747,2.761,2.8686,2.9515,2.9515,2.9999,3.0784,3.1961,3.2237,3.2281,3.213,3.2422,3.2327,3.1582,3.1539,3.1409,3.1278,3.119,3.1014,3.0821,3.1422,3.1349,3.0628,3.1349,3.0793,2.9247,2.8505,2.7193,2.5517,2.2709,2.0213,1.774,1.4377,1.1124,0.776,0.0,0.0,0.0,0.0,0.0,0.0,0.0,0.0,0.0,0.0,0.0,0.0,0.0,0.0,0.0,0.0,0.0,0.0,0.0,0.0,0.0,0.0,0.0,0.0,0.0,0.0,0.0,0.0,0.0,0.0,0.0,0.0,0.0,-3.455,-3.5081,-3.5832,-3.6634,-3.7253,-3.7639,-3.7639,-3.7901,-3.8458,-3.9375,-3.9425,-3.9839,-4.0746,-4.0914,-4.0992,-4.0996,-4.1126,-4.1152,-4.1091,-4.1091,-4.109,-4.1107,-4.1035,-4.0977,-4.09,-4.0836,-4.0811,-4.0803,-4.0803,-4.079,-4.079,-4.0803,-4.0803,-4.0778,-4.0434,-4.0283,-4.0229,-4.0281,-4.0485,-4.07,0.0,0.0,0.0,0.0,0.0,0.0,0.0,2.7483,2.8098,2.7685,2.8733,2.9546,2.9546,3.0364,3.1046,3.1505,3.2392,3.2756,3.2281,3.2917,3.3039,3.2327,3.1667,3.1351,3.1278,3.0999,3.1102,3.1622,3.1679,3.158,3.1407,3.0969,3.0257,2.9233,2.7696,2.637,2.5061,2.2498,1.9639,1.6644,1.3528,1.0326,0.6822,0.0,0.0,0.0,0.0,0.0,0.0,0.0,0.0,0.0,0.0,0.0,0.0,0.0,0.0,0.0,0.0,0.0,0.0,0.0,0.0,0.0,0.0,0.0,0.0,0.0,0.0,0.0,0.0,0.0,0.0,0.0,0.0,-3.5597,-3.5549,-3.6019,-3.6606,-3.7198,-3.7985,-3.8572,-3.8799,-3.9419,-3.9923,-4.0193,-4.0193,-4.0353,-4.071,-4.0762,-4.0852,-4.1003,-4.1039,-4.1074,-4.1108,-4.1108,-4.1107,-4.1101,-4.1087,-4.1035,-4.0965,-4.0901,-4.085,-4.0791,-4.0804,-4.0808,-4.0808,-4.0792,-4.0804,-4.0792,-4.0694,-4.064,-4.064,-4.066,-4.07,-4.0784,0.0,0.0,0.0,0.0,0.0,0.0,0.0,2.8113,2.8631,2.77,2.9214,3.0159,2.9663,3.0483,3.1272,3.1694,3.2594,3.2917,3.2351,3.2555,3.2501,3.2104,3.1552,3.1219,3.1117,3.0881,3.097,3.1334,3.1291,3.1043,3.0674,3.0211,2.9338,2.809,2.6655,2.5061,2.3369,2.0974,1.8206,1.5204,1.1974,0.8874,0.5855,0.169,-0.2674,-0.7211,-1.1599,-1.5176,-1.828,-2.1348,0.0,0.0,0.0,0.0,0.0,0.0,0.0,0.0,0.0,0.0,0.0,0.0,0.0,0.0,0.0,0.0,0.0,0.0,0.0,0.0,0.0,0.0,0.0,0.0,-3.6356,-3.696,-3.7118,-3.7165,-3.7436,-3.809,-3.8857,-3.9432,-3.9632,-4.0153,-4.0489,-4.0489,-4.0489,-4.053,-4.061,-4.0667,-4.0751,-4.0867,-4.0953,-4.1012,-4.1069,-4.1099,-4.1101,-4.1094,-4.1094,-4.1069,-4.0994,-4.0962,-4.0905,-4.0831,-4.0839,-4.0829,-4.0849,-4.0798,-4.0807,0.0,0.0,0.0,0.0,0.0,-4.0823,-4.0839,0.0,0.0,0.0,0.0,0.0,0.0,0.0,2.8632,2.9031,2.7765,2.9824,3.0953,2.9763,3.0592,3.1524,3.2231,3.2756,3.2795,3.2327,3.1796,3.1409,3.1278,3.1278,3.1102,3.0821,3.0762,3.0702,3.0568,3.0507,3.0068,2.931,2.9107,2.809,2.6408,2.5284,2.3369,2.0928,1.8725,1.6149,1.3277,0.9838,0.7044,0.4741,0.1123,-0.3069,-0.7677,-1.2603,-1.6387,-1.9513,-2.2321,0.0,0.0,0.0,0.0,0.0,0.0,0.0,0.0,0.0,0.0,0.0,0.0,0.0,0.0,0.0,0.0,0.0,0.0,0.0,0.0,0.0,0.0,0.0,0.0,-3.7927,-3.8707,-3.8707,-3.8284,-3.8271,-3.9005,-3.9645,-4.0061,-4.0101,-4.0339,-4.0489,-4.0489,-4.0489,-4.0489,-4.0489,0.0,0.0,0.0,0.0,-4.0978,-4.0998,-4.1058,-4.1091,-4.1108,-4.1108,-4.1066,-4.1015,-4.0994,-4.0965,-4.091,-4.0909,-4.0914,-4.0906,-4.0859,-4.0828,-4.0818,-4.0787,-4.0807,-4.0807,-4.0807,-4.084,-4.0906,0.0,0.0,0.0,0.0,0.0,0.0,0.0,2.8367,2.9094,2.7775,2.9868,3.0979,2.9768,3.1122,3.2007,3.1697,3.2216,3.2272,3.1697,3.1452,3.1351,3.1278,3.1058,3.0881,3.0821,3.0702,3.0642,3.0568,2.987,2.9498,2.9247,2.7828,2.6506,2.5284,2.3575,2.1645,1.9634,1.6742,1.3675,1.057,0.7281,0.5102,0.3338,-0.1049,-0.5648,-1.0179,-1.3668,-1.6911,-2.0022,-2.24,-2.4377,-2.6169,-2.7636,-2.8776,0.0,0.0,0.0,0.0,0.0,0.0,0.0,0.0,0.0,0.0,0.0,0.0,0.0,0.0,0.0,0.0,0.0,0.0,0.0,-3.7608,-3.8241,-3.8707,-3.8707,-3.8603,-3.8689,-3.9053,-3.9438,-3.9797,-4.0081,-4.0339,-4.0489,-4.0489,-4.0489,-4.0489,-4.0489,-4.0515,-4.0588,-4.0706,-4.0746,-4.0849,-4.0994,-4.1011,-4.1057,-4.1108,0.0,0.0,-4.1082,-4.1016,-4.0992,-4.0988,-4.098,-4.0979,-4.0974,-4.0968,-4.0921,-4.0888,-4.0828,-4.0807,-4.0807,-4.0807,-4.083,-4.0915,0.0,0.0,0.0,0.0,0.0,0.0,0.0,2.7992,2.8846,2.8173,2.9804,3.0776,3.0118,3.1136,3.1739,3.1524,3.1811,3.1951,3.1879,3.1495,3.1234,3.1058,3.0881,3.0568,3.0068,3.0007,2.9931,2.9931,2.9093,2.8648,2.8634,2.671,2.532,2.4327,2.1816,1.9995,1.8602,1.5397,1.1911,0.8295,0.5526,0.228,-0.1139,-0.3513,-0.7688,-1.2602,-1.5161,-1.8124,-2.1228,-2.3849,-2.5633,-2.709,-2.8757,-2.9825,-3.0443,0.0,0.0,0.0,0.0,0.0,0.0,0.0,0.0,0.0,0.0,0.0,0.0,0.0,0.0,-3.4733,0.0,0.0,-3.736,-3.7825,-3.835,-3.8707,-3.8707,-3.8707,-3.8803,-3.9072,-3.9389,-3.9731,-4.0081,-4.0339,-4.0489,-4.0489,-4.0489,-4.0489,-4.0489,-4.0489,-4.0534,-4.0607,-4.0623,-4.0692,-4.0811,-4.0898,-4.098,-4.0989,-4.1078,-4.1108,-4.1101,-4.1062,-4.1047,-4.1047,-4.1015,-4.0992,-4.0991,-4.101,-4.0983,-4.0959,-4.0902,-4.0909,-4.0902,-4.0902,-4.0928,-4.094,0.0,0.0,0.0,0.0,0.0,0.0,0.0,0.0,2.8434,2.8592,2.9714,3.0507,3.0507,3.0991,3.1409,3.1482,3.1482,3.161,3.1875,3.1334,3.0777,3.0297,3.0237,2.987,2.9044,2.9044,2.9044,2.9044,2.8182,2.7644,2.7419,2.5644,2.416,2.2881,2.0178,1.8373,1.7146,1.3774,1.0057,0.6115,0.3241,-0.1139,-0.6069,-0.6757,-1.0028,-1.4615,-1.6887,-1.9774,-2.2886,-2.5456,-2.7126,-2.8427,-2.9889,-3.0763,-3.1369,-3.1589,-3.2068,0.0,0.0,0.0,0.0,0.0,0.0,0.0,0.0,0.0,-3.4003,-3.4003,-3.4447,-3.4955,-3.5525,-3.6394,-3.7248,-3.779,-3.8267,-3.8578,-3.8676,-3.8707,-3.8803,-3.9072,-3.9339,-3.9622,-3.9982,-4.025,-4.0441,-4.0492,-4.0492,-4.055,-4.0723,-4.0742,-4.08,-4.0973,-4.1012,-4.0988,-4.0841,-4.0985,-4.0999,-4.0859,-4.1003,-4.1066,-4.1057,-4.1085,-4.1105,-4.1096,-4.1033,-4.1006,-4.0991,-4.0996,-4.0994,-4.1009,-4.1009,-4.0999,-4.0996,-4.1007,-4.1008,-4.1006,0.0,0.0,0.0,0.0,0.0,0.0,0.0,0.0,0.0,2.8487,2.9714,3.0507,3.0507,3.1063,3.1467,3.1482,3.1482,3.1146,3.0317,3.0015,2.9462,2.8515,2.8363,2.8247,2.8117,2.8117,2.8117,2.8117,2.7232,2.6314,2.5423,2.4411,2.2563,1.9955,1.8585,1.6579,1.3988,1.0545,0.7037,0.3512,-0.0965,-0.5005,-0.8719,-1.1895,-1.4005,-1.5822,-1.8961,-2.1924,-2.4649,-2.5908,-2.7944,-3.0011,-3.0269,-3.0822,-3.1595,-3.2275,-3.2524,-3.2734,-3.3296,-3.3922,-3.4382,-3.4479,-3.4958,-3.5362,0.0,0.0,-3.5362,-3.5362,-3.5424,-3.5633,-3.619,-3.6416,-3.6786,-3.7755,-3.7946,-3.815,-3.8627,-3.8707,-3.8803,-3.9072,-3.9133,-3.9289,-3.9622,-3.9882,-4.0177,-4.0482,-4.043,-4.0758,-4.1526,-4.1564,-4.189,-4.2601,-4.2638,-4.2321,-4.1668,-4.1696,-4.1371,-4.0712,-4.0855,-4.0914,-4.0933,-4.1056,-4.1096,-4.1091,-4.1091,-4.1058,-4.1009,-4.1008,-4.0995,-4.1009,-4.1009,-4.0996,-4.1008,-4.0995,-4.0996,-4.0994,0.0,0.0,0.0,0.0,0.0,0.0,0.0,0.0,0.0,0.0,2.9154,3.0103,3.0462,3.112,3.1482,3.1482,3.1087,3.0569,3.0058,2.9352,2.8784,2.822,2.8038,2.771,2.7178,2.7178,2.7178,2.7178,2.5706,2.5063,2.5308,2.3176,2.1314,1.9584,1.721,1.4814,1.2397,0.8983,0.511,0.114,-0.2194,-0.6066,-1.023,-1.3593,-1.5614,-1.709,-2.0731,-2.3218,0.0,-2.7761,-2.9386,-3.0389,-3.0837,-3.1537,-3.2216,-3.2492,-3.2895,-3.3339,-3.3987,-3.4688,-3.5207,-3.5207,-3.5407,-3.5622,-3.5622,-3.5622,-3.5622,-3.5622,-3.5622,-3.565,-3.5898,-3.6182,-3.6539,0.0,-3.7524,-3.798,-3.8216,-3.8496,-3.8732,-3.8855,-3.8855,-3.9073,-3.9552,-3.969,-4.011,-4.0922,-4.0941,-4.1361,-4.2353,-4.2409,-4.2563,-4.2889,-4.2852,-4.2697,-4.2384,-4.2464,-4.2097,-4.128,-4.1466,-4.1315,-4.0902,-4.0953,-4.1,-4.1039,-4.1039,-4.1033,-4.1003,-4.0998,-4.0994,-4.0996,-4.0996,-4.0998,-4.0998,-4.0999,-4.1007,-4.1006,0.0,0.0,0.0,0.0,0.0,0.0,0.0,0.0,0.0,0.0,2.8374,2.9377,3.0417,3.112,3.1482,3.1482,3.097,3.0329,2.9676,2.8989,2.822,2.7511,2.7391,2.6989,2.6239,2.6227,2.6146,2.5926,2.4517,2.3918,2.391,2.1748,1.9837,1.7966,1.5308,1.2782,1.0313,0.687,0.3086,-0.0792,-0.3778,-0.7215,-1.1031,-1.4691,-1.6774,-1.8223,-2.2199,-2.4272,-2.5728,-2.9157,-3.045,-3.0763,-3.1552,-3.2176,-3.2695,-3.3039,-3.3649,-3.4252,-3.4736,-3.5207,-3.5622,-3.5622,-3.5622,-3.5622,-3.5622,-3.5622,-3.5622,-3.5622,-3.5622,-3.5622,-3.5622,-3.5898,-3.6266,-3.6563,-3.7248,-3.779,-3.8065,-3.8465,-3.8707,-3.8707,-3.8707,-3.8966,-3.9619,-3.9765,-4.0174,-4.1073,-4.1423,-4.2022,-4.3042,-4.3178,-4.3312,-4.3542,-4.3522,-4.3369,-4.3139,-4.3214,-4.2806,-4.1978,-4.1914,-4.1609,-4.1059,-4.0908,-4.0876,-4.0929,-4.0988,-4.1007,-4.0996,-4.1007,-4.1007,-4.1015,-4.1268,-4.1338,-4.1365,-4.1602,-4.1383,-4.0971,0.0,0.0,0.0,0.0,0.0,0.0,0.0,0.0,0.0,0.0,0.0,0.0,0.0,3.112,3.1482,3.1482,3.1467,3.0689,2.8834,2.8693,2.7802,2.5734,2.5676,2.5606,2.537,2.537,2.4933,2.4181,2.4108,2.2658,1.9984,1.9906,1.7726,1.3827,1.2554,1.0238,0.6994,0.3351,0.0442,-0.2129,-0.6792,-0.9447,-1.1117,-1.5569,-1.792,-1.9247,-2.329,-2.529,-2.6467,-2.933,-3.0837,-3.1582,-3.2327,-3.2586,-3.2841,-3.4186,-3.4988,-3.5515,-3.556,-3.5577,-3.5622,-3.5622,-3.5622,-3.5622,-3.5622,-3.5622,-3.5622,-3.5622,-3.5622,-3.5622,-3.5622,-3.5622,-3.5968,-3.702,-3.719,-3.756,-3.8546,-3.8707,-3.8707,-3.8707,-3.8707,-3.9001,0.0,-4.0145,-4.0402,-4.0704,-4.1671,-4.2659,-4.3512,-4.3833,-4.4341,-4.5182,-4.522,-4.4819,-4.3978,-4.3897,-4.3476,-4.2656,-4.195,-4.1579,-4.1466,-4.0952,-4.071,-4.0721,-4.0917,-4.0999,-4.0996,-4.0999,-4.0999,-4.1073,-4.193,-4.2224,-4.2265,-4.3101,-4.2354,-4.0907,0.0,0.0,0.0,0.0,0.0,0.0,0.0,0.0,0.0,0.0,0.0,0.0,0.0,0.0,0.0,0.0,3.0208,2.9317,2.8103,2.7391,2.6701,2.605,2.584,2.5758,2.5688,2.5688,2.5229,2.4264,2.2922,2.147,1.9974,1.7789,1.5308,1.262,1.0639,0.7891,0.4515,0.1772,-0.1241,-0.4431,-0.7505,-1.0464,-1.3212,-1.6895,-1.9316,-2.121,0.0,-2.6812,-2.7459,-3.0197,-3.1278,-3.164,-3.2382,-3.2895,-3.3547,-3.4847,-3.5407,-3.5622,-3.5622,-3.5622,-3.5622,-3.5622,-3.5622,-3.5622,-3.5622,-3.5622,-3.5622,-3.5622,-3.5622,-3.5622,-3.5622,-3.5622,-3.5739,-3.6097,-3.6764,-3.734,-3.7667,-3.8285,-3.8707,-3.8707,-3.8707,0.0,0.0,0.0,0.0,-4.1931,-4.2352,-4.3096,-4.434,-4.4474,-4.476,-4.5277,-4.5297,-4.5163,-4.4876,-4.4836,-4.4395,-4.3495,-4.2144,-4.1508,-4.147,-4.0853,-4.0933,-4.1579,-4.1618,-4.2042,-4.2655,-4.2655,-4.2655,-4.2694,-4.2986,-4.3054,-4.3024,-4.3335,-4.3042,-4.2493,0.0,0.0,0.0,0.0,0.0,0.0,0.0,0.0,0.0,0.0,0.0,0.0,0.0,0.0,0.0,0.0,0.0,2.862,2.7736,2.7095,2.6589,2.6201,2.5758,2.5465,2.5382,2.5016,2.4181,2.2881,2.1546,1.982,1.786,1.5383,1.2853,1.0298,0.7884,0.5107,0.204,-0.0709,-0.3715,-0.6789,-0.9574,-1.2469,-1.5397,-1.8312,-2.0797,0.0,-2.6333,-2.7916,-2.8787,-3.0807,-3.1482,-3.1682,-3.2625,-3.3598,-3.4496,-3.5362,-3.5622,-3.5622,-3.5622,-3.5622,-3.5622,-3.5622,-3.5622,-3.5622,-3.5622,-3.5622,-3.5622,-3.5622,-3.5622,-3.5622,-3.5622,-3.5622,-3.565,-3.5854,-3.644,-3.702,-3.7396,-3.7998,-3.8496,-3.8676,-3.8707,-3.9129,0.0,0.0,0.0,-4.2427,-4.2922,-4.3554,-4.4474,-4.4701,-4.4891,-4.5109,-4.5235,-4.5297,-4.5256,-4.5235,-4.4772,-4.3849,-4.2791,-4.2125,-4.1839,-4.1451,-4.1643,-4.2251,-4.23,-4.2684,-4.3298,-4.3366,-4.3397,-4.3435,-4.379,-4.3906,-4.3893,-4.4184,-4.4277,-4.4163,0.0,0.0,0.0,0.0,0.0,0.0,0.0,0.0,0.0,0.0,0.0,0.0,0.0,0.0,0.0,0.0,0.0,0.0,2.7617,2.7657,2.7229,2.6201,2.5229,2.4564,2.4337,2.3463,2.2006,2.013,1.9965,1.786,1.3975,1.2518,1.0037,0.6819,0.4246,0.1861,-0.0534,-0.4074,-0.687,-0.9181,-1.2734,-1.539,-1.7485,-1.9724,-2.2305,-2.5006,-2.6972,-2.8801,-3.0464,-3.1219,-3.1524,-3.1838,-3.3235,-3.4544,-3.5622,-3.5622,-3.5622,-3.5622,-3.5622,-3.5622,-3.5622,-3.5622,-3.5622,-3.5622,-3.5622,-3.5622,-3.5622,-3.5622,-3.5622,-3.5622,0.0,0.0,-3.5783,-3.6266,-3.6433,-3.6786,-3.772,-3.7911,-3.8132,0.0,0.0,0.0,0.0,0.0,0.0,-4.2304,0.0,-4.3974,-4.4005,-4.4484,-4.4751,-4.48,-4.5109,-4.5235,-4.5192,-4.5125,-4.468,-4.3852,-4.3744,-4.3289,-4.256,-4.2654,-4.2697,-4.2755,-4.2907,-4.2977,-4.3032,-4.3226,-4.3308,-4.341,-4.4369,-4.4723,-4.4814,-4.557,-4.5867,-4.5661,0.0,0.0,0.0,0.0,0.0,0.0,0.0,0.0,0.0,0.0,0.0,0.0,0.0,0.0,0.0,0.0,0.0,0.0,2.6187,2.654,2.6358,2.5382,2.5087,2.4564,2.3745,2.27,2.1546,2.0352,1.7783,1.5703,1.3891,0.9249,0.6135,0.4226,0.0088,-0.2557,-0.4162,-0.7711,-1.0023,-1.1635,-1.4967,-1.7615,-1.9869,-2.2546,-2.4903,-2.7038,-2.8927,-3.0286,-3.1219,-3.1409,-3.2201,-3.3219,-3.4071,-3.4894,-3.5622,-3.5622,-3.5622,-3.5622,-3.5622,-3.5622,-3.5622,-3.5622,-3.5622,-3.5622,-3.5622,-3.5622,-3.5622,-3.5622,-3.5622,-3.5622,-3.5622,0.0,0.0,-3.5783,-3.6481,0.0,-3.7323,-3.8016,0.0,-3.8658,0.0,-3.9331,-4.0946,-4.1111,0.0,0.0,-4.3471,-4.3749,-4.4005,-4.4023,-4.428,-4.4776,-4.4795,-4.491,-4.5192,-4.5061,-4.4919,-4.4687,-4.4009,-4.3587,-4.3365,-4.2765,-4.2914,-4.3673,-4.3713,-4.4116,-4.4783,-4.4836,-4.4818,-4.4783,-4.5047,-4.5107,-4.509,-4.5246,-4.5433,-4.5519,0.0,0.0,0.0,0.0,0.0,0.0,0.0,0.0,0.0,0.0,0.0,0.0,0.0,0.0,0.0,0.0,0.0,0.0,0.0,2.5202,2.4957,2.4396,2.3743,2.2972,2.1903,2.1085,1.9596,1.7612,1.571,1.3188,1.0128,0.6309,0.3072,0.0263,-0.2904,-0.5545,-0.7726,-1.0193,-1.2696,0.0,0.0,-2.0082,-2.2615,-2.459,-2.6531,-2.837,-2.9785,-3.0837,-3.1524,-3.1853,-3.2718,-3.3735,-3.4382,-3.5052,-3.5622,-3.5622,-3.5622,-3.5622,-3.5622,-3.5622,-3.5622,-3.5622,-3.5622,-3.5622,-3.5622,-3.5622,-3.5622,-3.5622,-3.5622,-3.5622,-3.5622,-3.5622,-3.5622,0.0,0.0,0.0,-3.719,-3.7861,-3.8433,0.0,-3.8707,0.0,-4.0946,-4.1111,-4.1772,0.0,-4.3649,-4.3716,-4.3734,-4.3936,-4.4095,-4.4308,-4.4346,-4.4553,-4.4905,-4.4948,-4.4986,-4.4943,-4.4464,-4.4208,-4.4164,-4.3672,-4.3763,-4.4338,0.0,-4.463,-4.514,-4.5204,-4.5185,-4.5144,-4.5207,-4.5246,-4.5185,-4.5123,-4.5204,-4.5285,0.0,0.0,0.0,0.0,0.0,0.0,0.0,0.0,0.0,0.0,0.0,0.0,0.0,0.0,0.0,0.0,0.0,0.0,0.0,0.0,2.3223,2.2931,2.1805,2.0561,1.9343,1.8647,1.6814,1.3944,1.3349,1.0398,0.5234,0.3485,0.0348,-0.3751,-0.5526,-0.8041,-1.1016,-1.2469,-1.5338,-1.9077,-2.0294,-2.2488,-2.5134,0.0,-2.7631,-2.9129,-3.0133,-3.0896,-3.1582,-3.2327,-3.2986,-3.3582,-3.4235,-3.4941,-3.547,-3.547,-3.5515,-3.5622,-3.5622,-3.5622,-3.5622,-3.5622,-3.5622,-3.5622,-3.5622,-3.5622,-3.5622,-3.5622,-3.5622,-3.5622,-3.5622,-3.5622,-3.5622,-3.5622,0.0,-3.6563,-3.7038,-3.7578,-3.8065,-3.8546,-3.8676,-3.9331,-4.0946,-4.1111,-4.1772,-4.3369,-4.3814,-4.3814,-4.3429,-4.3886,-4.3992,-4.3675,-4.3967,-4.4233,-4.4411,-4.4758,-4.4895,-4.4802,-4.487,-4.487,-4.4796,-4.4796,-4.4815,-4.477,-4.4738,0.0,-4.477,-4.4887,-4.4915,-4.4868,-4.5017,-4.508,-4.5074,-4.5007,-4.5007,-4.5011,0.0,0.0,0.0,0.0,0.0,0.0,0.0,0.0,0.0,0.0,2.0507,2.156,0.0,0.0,0.0,0.0,0.0,0.0,0.0,0.0,0.0,2.0124,1.9777,1.88,1.7061,1.5258,1.403,1.3405,0.9831,0.7188,0.5165,0.0332,-0.2831,-0.467,-0.9785,-1.2416,-1.3179,-1.646,-1.8682,-2.0236,-2.2189,-2.3806,-2.5276,-2.7591,0.0,0.0,-3.0718,-3.1409,-3.1582,-3.2327,-3.2695,-3.2895,-3.3531,-3.4235,-3.4783,-3.4783,-3.5161,-3.5622,-3.5622,-3.5622,-3.5622,-3.5622,-3.5622,-3.5622,-3.5622,-3.5622,-3.5622,-3.5622,-3.5622,-3.5622,-3.5622,-3.5622,-3.5622,-3.5622,-3.6054,-3.6416,-3.6539,-3.7305,-3.7928,0.0,-3.8433,-3.9331,-4.0946,-4.1111,0.0,0.0,0.0,-4.3814,-4.3429,-4.3375,-4.3408,-4.344,-4.405,-4.4195,-4.3924,-4.4242,-4.4421,-4.4421,-4.4751,-4.487,-4.4796,-4.4796,-4.477,-4.4738,-4.4712,0.0,-4.4632,-4.4667,-4.464,-4.456,-4.4541,-4.4541,-4.4513,-4.4393,-4.4495,-4.4624,0.0,0.0,0.0,0.0,0.0,0.0,0.0,0.0,1.4757,1.6108,1.7012,1.8387,2.0534,2.0761,0.0,0.0,0.0,0.0,0.0,0.0,0.0,0.0,0.0,0.0,1.5288,1.3959,1.217,0.9956,0.0,0.4032,0.0082,-0.2631,-0.5665,-0.9011,-1.192,-1.4388,-1.6486,-1.8257,-2.0287,-2.2488,-2.3481,-2.4859,-2.6569,0.0,0.0,0.0,0.0,-3.1482,-3.1524,-3.191,-3.2007,-3.2216,-3.3287,-3.4087,-3.4576,-3.4576,-3.5052,-3.5622,-3.5622,-3.5622,-3.5622,-3.5622,-3.5622,-3.5622,-3.5622,-3.5316,-3.5098,-3.5098,-3.48,-3.4657,-3.5005,-3.5098,0.0,-3.5515,-3.6054,-3.6374,-3.6374,-3.7058,-3.7614,-3.7859,-3.815,-3.8857,-4.0327,-4.0855,-4.1589,-4.2782,0.0,-4.3566,-4.3305,-4.3338,-4.3371,-4.3406,-4.3918,-4.4069,-4.3818,-4.3906,-4.3967,-4.3937,-4.4069,-4.4223,-4.4412,-4.4365,-4.4439,-4.4659,-4.4605,0.0,-4.4542,-4.4496,-4.4458,-4.4401,-4.4373,-4.4344,-4.4344,-4.4165,-4.4188,-4.4269,0.0,0.0,0.0,0.0,0.0,0.0,0.0,1.2012,1.2476,1.3772,1.4065,1.5331,1.8424,1.8781,1.9037,0.0,0.0,0.0,0.0,0.0,0.0,0.0,0.0,0.0,0.0,0.0,0.0,0.5716,0.4203,0.0,0.0,0.0,0.0,0.0,-1.388,-1.6013,-1.9167,-1.9481,-2.1306,0.0,0.0,-2.5542,0.0,0.0,0.0,0.0,0.0,-3.1482,-3.1482,-3.1482,-3.1482,-3.1682,-3.281,-3.3633,-3.4186,-3.4186,-3.4657,-3.5207,-3.5362,-3.5362,-3.5362,-3.5362,-3.5362,-3.5362,-3.5207,-3.4736,-3.4382,-3.4382,-3.3987,-3.3735,-3.4284,-3.4479,-3.4783,0.0,-3.5881,-3.6224,-3.6224,-3.6684,-3.7173,0.0,-3.7934,0.0,-3.9867,-4.0808,0.0,-4.2472,0.0,0.0,-4.3178,-4.3371,-4.3456,-4.3301,-4.3638,-4.3735,-4.3557,-4.3535,-4.3517,-4.3435,-4.3398,-4.3582,-4.3899,-4.3818,-4.3943,-4.425,-4.4288,0.0,0.0,-4.4306,-4.4296,-4.4237,-4.4226,-4.4226,-4.4195,-4.4023,-4.3961,-4.3961,0.0,0.0,0.0,0.0,0.0,0.0,0.0,1.2012,1.2336,1.325,1.3371,1.4005,1.5624,1.5873,1.5998,0.0,0.0,0.0,0.0,0.0,0.0,0.0,0.0,0.0,0.0,0.0,0.0,0.2065,-0.0847,0.0,0.0,0.0,0.0,0.0,0.0,-1.8615,-1.9812,-2.1058,0.0,0.0,0.0,0.0,0.0,0.0,0.0,0.0,0.0,-3.1482,-3.1482,-3.1482,-3.1482,-3.1524,-3.1625,-3.2216,-3.2788,-3.2788,-3.3251,-3.3937,-3.4544,-3.4688,-3.4688,-3.4688,-3.4688,-3.4528,-3.3937,-3.3735,-3.3684,-3.3684,-3.3633,-3.3633,-3.3684,-3.4186,-3.4624,-3.4688,-3.5237,-3.565,-3.565,-3.6139,-3.6498,-3.6522,0.0,0.0,-4.0203,-4.1426,0.0,0.0,0.0,0.0,-4.3104,-4.3355,-4.3318,-4.2957,-4.3177,-4.3105,-4.2691,-4.2958,-4.2996,-4.2867,-4.3226,-4.3364,-4.3298,-4.3263,-4.3193,-4.3068,-4.3557,0.0,0.0,-4.398,-4.4121,-4.4109,-4.3974,-4.3947,-4.3947,-4.3869,-4.3837,-4.3804,0.0,0.0,0.0,0.0,0.0,0.0,0.8896,0.9023,0.94,1.0266,1.009,1.0332,1.1374,1.0725,1.136,0.0,0.0,0.0,0.0,0.0,0.0,0.0,0.0,0.0,0.0,0.0,0.0456,-0.1213,-0.4319,0.0,0.0,0.0,0.0,0.0,0.0,-1.9943,-2.178,-2.2293,0.0,0.0,0.0,0.0,0.0,0.0,0.0,0.0,0.0,0.0,-3.1482,-3.1482,-3.1482,-3.1482,-3.1482,-3.1697,-3.2007,-3.2492,-3.3093,-3.3633,-3.3937,-3.3987,-3.3987,-3.3987,-3.3987,-3.3937,-3.3633,-3.3287,-3.2986,-3.2986,-3.261,-3.2461,-3.2933,-3.3251,-3.3547,-3.3937,-3.4906,-3.5671,-3.5671,-3.6608,-3.7398,-3.7681,-3.8373,0.0,0.0,0.0,0.0,0.0,0.0,0.0,-4.3104,-4.3355,-4.3422,-4.3213,-4.3283,-4.3195,-4.2884,-4.2786,-4.2591,-4.2378,-4.2519,-4.2657,-4.2774,-4.2718,-4.2793,-4.3032,-4.3176,0.0,0.0,-4.3158,-4.3158,-4.3159,-4.3318,-4.3406,-4.3458,-4.3615,-4.3513,-4.3321,0.0,0.0,0.0,0.0,0.0,0.6322,0.692,0.6846,0.7223,0.8308,0.7723,0.7589,0.8723,0.7228,0.7437,1.066,0.0,0.0,0.0,0.0,0.0,0.0,0.0,0.0,0.0,0.0,-0.3593,-0.5728,-0.8475,-1.152,0.0,0.0,-1.7856,-2.0317,0.0,0.0,0.0,0.0,0.0,0.0,0.0,0.0,0.0,0.0,0.0,0.0,0.0,0.0,0.0,0.0,0.0,-3.1482,-3.1482,-3.1482,-3.1582,-3.212,-3.2625,-3.3024,-3.3235,-3.3287,-3.3287,-3.3287,-3.3287,-3.3235,-3.3024,-3.2625,-3.2272,-3.2272,-3.1853,-3.164,-3.216,-3.2437,-3.2796,-3.3435,-3.4562,-3.5444,-3.5656,-3.6738,-3.7677,0.0,0.0,0.0,0.0,0.0,0.0,0.0,0.0,0.0,-4.3104,-4.3232,-4.3283,-4.3231,-4.3249,-4.3142,-4.2958,-4.2649,-4.2364,-4.2103,-4.203,-4.2121,-4.2279,-4.2139,-4.2244,-4.2526,-4.2603,0.0,0.0,-4.2487,-4.2487,-4.2483,-4.2716,-4.2829,-4.2867,-4.3105,-4.2995,-4.2752,0.0,0.0,0.0,0.0,0.0,0.0,0.0,0.6437,0.6481,0.8447,0.7154,0.666,0.8439,0.6459,0.4649,0.3779,0.0,0.0,0.0,0.0,0.0,0.0,0.0,0.0,0.0,0.0,-0.9691,-1.1979,-1.3909,-1.5878,-1.7891,-1.949,-2.121,-2.2987,0.0,0.0,0.0,0.0,0.0,0.0,0.0,0.0,0.0,0.0,0.0,0.0,0.0,0.0,0.0,0.0,0.0,0.0,0.0,-3.1482,-3.1482,-3.1539,-3.1539,-3.1682,-3.2437,-3.2586,-3.2586,-3.2586,-3.2586,-3.2437,-3.1697,-3.1539,-3.1524,-3.1524,-3.1539,-3.1482,-3.1539,-3.212,-3.2803,-3.3367,-3.4139,-3.4825,-3.5505,-3.6231,0.0,0.0,0.0,0.0,0.0,0.0,0.0,0.0,0.0,0.0,-4.3104,-4.2994,-4.292,-4.292,-4.2842,-4.2745,-4.2609,-4.2526,-4.2364,-4.2103,-4.203,-4.1945,-4.178,-4.1648,-4.1453,0.0,0.0,0.0,0.0,-4.2162,-4.2306,-4.2306,-4.2221,-4.2198,-4.2198,-4.2198,-4.2198,-4.2198,0.0,0.0,0.0,0.0,0.0,0.0,0.0,0.3538,0.3668,0.4328,0.3987,0.3502,0.2805,0.2041,0.0525,-0.2191,0.0,0.0,0.0,0.0,0.0,0.0,0.0,0.0,0.0,0.0,-1.3872,-1.5111,-1.7914,-1.9983,-2.1228,-2.2344,-2.3535,-2.467,-2.4896,0.0,0.0,0.0,0.0,0.0,0.0,0.0,0.0,0.0,0.0,0.0,0.0,0.0,0.0,0.0,0.0,0.0,0.0,0.0,0.0,-3.1482,-3.1482,-3.1524,-3.1796,-3.1853,-3.1853,-3.1853,-3.1853,-3.1796,-3.1524,-3.1482,-3.1482,-3.1482,-3.1482,-3.1482,-3.1482,-3.2058,-3.2594,-3.2791,-3.4179,-3.554,0.0,0.0,0.0,0.0,0.0,0.0,0.0,0.0,0.0,0.0,0.0,0.0,-4.2613,-4.2806,-4.2882,-4.2882,-4.2862,-4.2786,-4.2609,-4.257,-4.2409,-4.2103,-4.2079,-4.2012,-4.1945,-4.1797,-4.1692,0.0,0.0,0.0,0.0,-4.1356,-4.1356,-4.1356,-4.1604,-4.1692,-4.1613,-4.1955,-4.1871,-4.1569,0.0,0.0,0.0,0.0,0.0,0.0,0.0,0.2013,0.181,0.1533,0.0999,0.0133,-0.1314,-0.2039,-0.3475,-0.5969,0.0,0.0,0.0,0.0,0.0,0.0,0.0,0.0,0.0,-1.588,-1.7533,-1.8509,-2.1104,-2.2698,-2.3264,-2.4466,-2.5315,-2.5837,-2.6108,-2.6496,0.0,0.0,0.0,0.0,0.0,0.0,-2.966,0.0,0.0,0.0,0.0,0.0,0.0,0.0,0.0,0.0,0.0,0.0,0.0,0.0,-3.1482,-3.1482,-3.1482,-3.1482,-3.1482,-3.1482,-3.1482,-3.1482,-3.1482,-3.1482,-3.1482,-3.1482,-3.1482,-3.1556,-3.1854,-3.2243,-3.2677,-3.317,-3.4319,0.0,0.0,0.0,0.0,0.0,0.0,0.0,0.0,0.0,0.0,0.0,0.0,0.0,-4.2378,-4.2279,-4.2342,-4.2559,-4.2768,-4.2804,-4.2609,-4.257,-4.2409,-4.2187,-4.2079,-4.2012,-4.2005,-4.1754,-4.1648,0.0,0.0,0.0,0.0,-4.0693,-4.0614,-4.0776,-4.1071,-4.1128,-4.1065,-4.1366,-4.1101,-4.0602,0.0,0.0,0.0,0.0,0.0,0.0,0.0,0.0,0.0602,-0.0264,-0.1655,-0.3045,-0.4118,-0.5671,-0.7099,-0.827,0.0,0.0,0.0,0.0,0.0,0.0,0.0,0.0,0.0,-1.9836,-2.0809,-2.2065,-2.3668,-2.4423,-2.4436,-2.5983,-2.6707,-2.6707,-2.7393,-2.766,0.0,0.0,0.0,0.0,0.0,0.0,0.0,0.0,0.0,0.0,0.0,0.0,0.0,0.0,0.0,0.0,0.0,0.0,0.0,0.0,0.0,0.0,0.0,-3.1482,-3.1482,-3.1482,-3.1482,-3.1482,-3.1482,-3.1482,0.0,-3.1482,-3.1511,-3.1735,-3.2407,-3.2587,-3.3051,-3.4277,-3.4517,0.0,0.0,0.0,0.0,0.0,0.0,0.0,0.0,0.0,0.0,0.0,0.0,0.0,-4.2239,-4.1552,-4.1402,-4.1937,-4.2436,-4.2649,-4.253,-4.2526,-4.2445,-4.2287,-4.2115,-4.2005,-4.2005,-4.156,-4.1255,0.0,0.0,0.0,0.0,-4.012,-4.0137,-4.0419,-4.0531,-4.0466,-4.0383,-4.0463,-4.0001,-3.9307,0.0,0.0,0.0,0.0,0.0,0.0,0.0,0.0,0.0,0.0,-0.3177,-0.3959,-0.7487,-0.7629,-0.9289,0.0,0.0,0.0,0.0,0.0,0.0,0.0,0.0,0.0,0.0,-2.2495,-2.3787,-2.4461,-2.6819,-2.7795,-2.7345,-2.8112,-2.848,-2.848,-2.8685,-2.8511,0.0,0.0,0.0,0.0,0.0,0.0,0.0,0.0,0.0,0.0,-2.862,-2.8684,0.0,0.0,0.0,0.0,0.0,0.0,0.0,0.0,-3.1482,-3.1482,-3.1482,0.0,-3.1482,-3.1482,-3.1482,-3.1482,0.0,-3.1482,-3.1482,-3.1482,-3.1943,0.0,0.0,-3.3335,-3.4113,-3.4427,0.0,0.0,0.0,0.0,0.0,0.0,0.0,0.0,0.0,0.0,0.0,0.0,0.0,-4.1001,-4.1157,-4.1303,-4.142,-4.1464,-4.1481,-4.163,-4.1924,-4.2305,-4.2405,-4.2163,-4.2121,-4.2055,-4.1962,-4.122,-4.0844,0.0,0.0,0.0,-3.9714,-3.9454,-3.9401,-3.9456,-3.9244,-3.9092,-3.8925,-3.8792,-3.8581,-3.8397,0.0,0.0,0.0,0.0,0.0,0.0,0.0,0.0,0.0,0.0,0.0,0.0,0.0,0.0,0.0,0.0,0.0,0.0,0.0,0.0,0.0,0.0,0.0,-2.2469,-2.3093,-2.4454,-2.5633,-2.6596,-2.7984,-2.8717,-2.8685,-2.8982,-2.9074,-2.9074,-2.9074,-2.8779,0.0,0.0,0.0,0.0,-2.9041,0.0,0.0,0.0,0.0,0.0,-2.792,-2.792,0.0,-2.8556,-2.8684,-2.9066,0.0,0.0,0.0,0.0,-3.097,-3.097,-3.097,-3.1219,-3.1482,-3.1482,-3.1482,-3.1482,-3.1482,-3.1482,-3.1556,-3.1928,-3.2273,0.0,0.0,0.0,0.0,0.0,-3.5265,0.0,0.0,0.0,0.0,0.0,0.0,0.0,0.0,0.0,0.0,0.0,0.0,-4.0531,-4.0802,-4.0642,-4.0672,-4.0891,-4.0703,-4.0844,-4.1348,-4.1578,-4.1657,-4.1507,-4.1401,-4.1311,-4.1255,-4.0577,-4.0268,0.0,0.0,0.0,-3.9156,-3.8558,-3.8372,-3.8397,-3.7967,-3.7633,-3.7498,-3.7286,-3.6987,-3.6605,0.0,0.0,0.0,0.0,0.0,0.0,0.0,0.0,0.0,0.0,0.0,0.0,0.0,0.0,0.0,0.0,0.0,0.0,0.0,0.0,0.0,0.0,0.0,-2.4468,-2.5272,-2.5933,-2.6925,-2.8164,-2.8404,-2.8732,-2.9212,-2.9257,-2.9303,-2.9303,-2.9257,-2.8919,0.0,0.0,0.0,0.0,-2.891,0.0,0.0,0.0,0.0,0.0,0.0,0.0,0.0,-2.7802,-2.7986,-2.862,-2.8748,0.0,0.0,0.0,0.0,0.0,-3.0269,-3.0777,-3.1351,-3.1351,-3.1409,-3.1482,-3.1482,-3.1556,-3.1839,-3.2392,0.0,0.0,0.0,-3.4562,0.0,0.0,0.0,0.0,0.0,0.0,0.0,0.0,0.0,0.0,0.0,0.0,0.0,0.0,0.0,-4.0121,-4.0611,-3.9969,-3.9781,-4.0269,-4.002,-4.0136,-4.0621,-4.0737,-4.0802,-4.0754,-4.0497,-4.04,-4.0302,-3.9868,-3.9558,-3.9437,0.0,0.0,-3.8559,-3.7572,-3.7138,-3.7107,-3.6604,-3.6222,-3.5995,-3.5886,-3.5344,-3.4687,0.0,0.0,0.0,0.0,0.0,0.0,0.0,0.0,0.0,0.0,0.0,0.0,0.0,0.0,0.0,0.0,0.0,0.0,0.0,0.0,0.0,0.0,-2.4131,-2.4579,-2.5665,-2.6942,-2.7955,-2.8597,-2.9737,-3.0097,-2.9705,-3.0113,-3.03,-3.0258,-2.9897,-2.9438,-2.8935,-2.8352,-2.8228,-2.845,-2.8388,0.0,0.0,0.0,0.0,0.0,0.0,0.0,0.0,-2.6714,-2.6782,-2.6973,-2.767,0.0,0.0,0.0,0.0,0.0,-3.0072,-3.0389,-3.0464,-3.0464,-3.1029,-3.1482,-3.1482,-3.1958,-3.2392,-3.2497,0.0,0.0,0.0,-3.4951,-3.5385,0.0,0.0,0.0,0.0,0.0,0.0,0.0,0.0,0.0,0.0,0.0,0.0,0.0,0.0,-3.9833,-4.0037,-3.9781,-3.9677,-3.9625,-3.9468,-3.9345,-3.9312,-4.0302,-4.0707,-4.0449,-4.04,-4.0302,-4.0053,-3.9209,-3.8849,-3.8778,0.0,-3.7351,-3.6794,-3.6626,-3.6131,-3.5514,-3.515,-3.4862,-3.4584,-3.4298,-3.3992,-3.3793,0.0,0.0,0.0,0.0,0.0,0.0,0.0,0.0,0.0,0.0,0.0,0.0,0.0,0.0,0.0,0.0,0.0,0.0,0.0,0.0,0.0,-2.5098,-2.5293,-2.5828,-2.6716,-2.7727,-2.8721,-2.9665,-2.9976,-3.014,-3.0199,-3.0384,-3.0526,-3.0468,-3.0284,-2.975,-2.9013,-2.9075,-2.8843,-2.8403,0.0,0.0,0.0,0.0,0.0,0.0,0.0,0.0,0.0,0.0,-2.6533,-2.6589,-2.6905,0.0,0.0,0.0,0.0,0.0,-2.8812,-2.9254,-2.9504,-2.9002,-3.0208,-3.1482,-3.1482,-3.1764,-3.2183,-3.2901,0.0,0.0,0.0,0.0,-3.5504,-3.5504,0.0,0.0,0.0,0.0,0.0,0.0,0.0,0.0,0.0,0.0,0.0,0.0,0.0,0.0,-3.9781,-3.959,-3.9484,-3.9501,-3.9255,-3.9094,-3.9023,-3.9575,-3.9714,-3.9454,-3.9348,-3.9189,-3.8957,-3.8479,-3.8004,-3.756,0.0,-3.6542,-3.5837,-3.5442,-3.4967,-3.4581,-3.3981,-3.366,-3.345,-3.2687,-3.24,-3.2391,0.0,0.0,0.0,0.0,0.0,0.0,0.0,0.0,0.0,0.0,0.0,0.0,0.0,0.0,0.0,0.0,0.0,0.0,0.0,0.0,-2.5302,-2.6358,-2.692,-2.7356,-2.7727,-2.8391,-2.9293,-3.0526,-3.0054,-3.0054,-3.0526,-3.0526,-3.0526,-3.0526,-3.0692,-3.0141,-2.9171,-2.9863,-2.9561,-2.863,0.0,0.0,0.0,0.0,0.0,0.0,0.0,0.0,0.0,0.0,0.0,0.0,0.0,0.0,0.0,-2.7484,-2.7537,-2.7484,-2.767,-2.8182,-2.8556,-2.7855,-2.9429,-3.1146,-3.119,-3.1264,-3.1766,-3.3214,0.0,0.0,0.0,-3.5504,0.0,0.0,0.0,0.0,0.0,0.0,0.0,0.0,0.0,0.0,0.0,0.0,0.0,0.0,0.0,0.0,-3.9382,-3.9362,-3.9325,-3.9379,-3.9094,-3.8914,-3.8931,-3.8876,-3.8766,-3.8528,-3.8448,-3.8181,-3.7817,-3.7662,-3.7163,-3.6365,-3.6308,-3.5871,-3.5094,-3.44,-3.3905,-3.3497,-3.2779,-3.2358,-3.212,-3.1246,-3.0984,-3.097,0.0,0.0,0.0,0.0,0.0,0.0,0.0,0.0,0.0,0.0,0.0,0.0,0.0,0.0,0.0,0.0,0.0,0.0,0.0,0.0,-2.6495,-2.8738,-2.9059,-2.8968,-2.8527,-2.9083,-2.974,-3.0526,-3.0468,-3.0468,-3.0526,-3.0526,-3.0526,-3.0543,-3.1196,-3.0871,-2.9798,-3.0373,-3.0402,-2.9868,-2.9038,0.0,0.0,0.0,0.0,0.0,0.0,0.0,0.0,0.0,0.0,0.0,0.0,0.0,-2.6658,-2.7484,-2.7162,-2.6782,-2.7484,-2.7736,-2.7802,-2.7736,-2.8847,-3.0015,-3.0337,-3.0658,-3.1364,-3.3131,-3.3368,0.0,0.0,-3.5504,0.0,0.0,0.0,0.0,0.0,0.0,0.0,0.0,0.0,0.0,0.0,0.0,0.0,0.0,0.0,0.0,-3.8574,-3.9023,-3.9218,-3.9023,-3.8914,-3.875,-3.8616,-3.8504,-3.8448,-3.8391,-3.8391,-3.7867,-3.6958,-3.6797,-3.6317,-3.5681,-3.5514,-3.5047,-3.4313,-3.3721,-3.2926,-3.2007,-3.1407,-3.0733,-3.0194,-3.0133,-2.9875,-2.9628,0.0,0.0,0.0,0.0,0.0,0.0,0.0,0.0,0.0,0.0,0.0,0.0,0.0,0.0,0.0,0.0,0.0,0.0,0.0,-2.6695,-2.8075,-2.9697,-2.9875,-3.0039,-3.0272,-3.0465,-3.0537,-3.0526,-3.0526,-3.0716,-3.1205,-3.1248,-3.1497,-3.1868,-3.2254,-3.1632,-3.0404,-3.1142,-3.0823,-2.9784,-3.006,-3.017,0.0,0.0,0.0,0.0,0.0,0.0,0.0,0.0,-2.6533,-2.6533,-2.6533,-2.6533,-2.6589,-2.685,-2.6714,-2.6589,-2.6837,-2.6973,-2.6973,-2.6973,-2.7859,-2.8884,-2.9351,-3.0137,-3.0865,-3.1673,-3.2037,0.0,0.0,0.0,0.0,0.0,0.0,0.0,0.0,0.0,0.0,0.0,0.0,0.0,0.0,0.0,0.0,0.0,0.0,0.0,-3.7764,-3.7895,-3.7953,-3.801,-3.7722,-3.7796,-3.8189,-3.706,-3.6854,-3.7448,-3.7448,-3.7134,-3.6578,-3.6077,-3.549,-3.4754,-3.4351,-3.3793,-3.3044,-3.244,-3.1875,-3.142,-3.1057,-3.0526,-2.995,-2.9614,-2.949,-2.9442,0.0,0.0,0.0,0.0,0.0,0.0,0.0,0.0,0.0,0.0,0.0,0.0,0.0,0.0,0.0,0.0,0.0,0.0,-2.6572,-2.7883,-2.9314,-3.0685,-3.0626,-3.0865,-3.149,-3.1372,-3.1021,-3.0526,-3.0716,-3.1097,-3.1636,-3.1938,-3.232,-3.2785,-3.2883,-3.2222,-3.1092,-3.1653,-3.1152,-2.9958,-3.0719,-3.0642,0.0,0.0,0.0,0.0,0.0,0.0,0.0,0.0,-2.6533,-2.6533,-2.6533,-2.6533,-2.6533,-2.6533,-2.6533,-2.6533,-2.6533,-2.6533,-2.6533,-2.6533,-2.7155,-2.7939,-2.8146,-2.916,-3.0223,-3.0704,-3.1364,-3.204,-3.2524,0.0,0.0,0.0,0.0,0.0,0.0,0.0,0.0,0.0,0.0,0.0,0.0,0.0,0.0,0.0,0.0,0.0,0.0,-3.7071,-3.7115,-3.7251,-3.6792,-3.6682,-3.7038,-3.5727,-3.5341,-3.5928,-3.5707,-3.554,-3.5441,-3.4955,-3.4288,-3.3395,-3.2988,-3.2573,-3.2048,-3.1377,-3.0911,-3.054,-3.0286,-2.9875,-2.9393,-2.9002,-2.8876,-2.8889,0.0,0.0,0.0,0.0,0.0,0.0,0.0,0.0,0.0,0.0,0.0,0.0,0.0,0.0,0.0,0.0,0.0,0.0,-2.8575,-2.9116,-3.0174,-3.1933,-3.1545,-3.1507,-3.1986,-3.1545,-3.1038,-3.0526,-3.1229,-3.1593,-3.1626,-3.2365,-3.2802,-3.2923,-3.2994,-3.2574,-3.1831,-3.1864,-3.1392,-3.0642,-3.0762,-3.0895,-3.0895,0.0,0.0,0.0,0.0,0.0,0.0,0.0,-2.6533,-2.6533,-2.6533,-2.6533,-2.6533,-2.6533,-2.6533,-2.6533,-2.6533,-2.6533,-2.6533,-2.6533,-2.6866,-2.713,-2.6647,-2.7745,-2.9257,-3.0528,-3.1764,-3.2593,-3.2593,-3.2593,0.0,0.0,0.0,0.0,0.0,0.0,0.0,0.0,0.0,0.0,0.0,0.0,0.0,0.0,0.0,0.0,0.0,-3.6829,-3.6995,-3.689,-3.6084,-3.5533,-3.5216,-3.4482,-3.4042,-3.3774,-3.3019,-3.292,-3.3409,-3.3409,-3.2699,-3.148,-3.148,-3.148,-3.1422,-3.0763,-2.9931,-2.9099,-2.8716,-2.8444,-2.8287,-2.8131,-2.8,-2.7776,0.0,0.0,0.0,0.0,0.0,0.0,0.0,0.0,0.0,0.0,0.0,0.0,0.0,0.0,0.0,0.0,0.0,0.0,-2.8549,-2.9592,-3.0587,-3.1452,-3.1355,-3.1372,-3.1507,-3.1503,-3.1416,-3.1246,-3.2017,-3.263,-3.316,-3.3556,-3.3984,-3.4439,-3.4134,-3.3546,-3.2777,-3.2244,-3.1595,-3.0955,-3.1117,-3.0792,-3.0208,0.0,0.0,0.0,0.0,0.0,0.0,0.0,0.0,0.0,-2.6533,-2.6533,-2.6533,-2.6533,-2.6533,-2.6533,-2.6533,-2.6533,-2.6533,-2.6533,0.0,0.0,0.0,-2.7745,-2.9139,0.0,-3.04,-3.0633,-3.0633,0.0,0.0,0.0,0.0,0.0,0.0,0.0,0.0,0.0,0.0,0.0,0.0,0.0,0.0,0.0,0.0,0.0,0.0,-3.5045,-3.4916,-3.4853,-3.4113,-3.3815,-3.4228,-3.2776,-3.245,-3.3226,-3.1812,-3.1723,-3.2745,-3.2307,-3.189,-3.148,-3.0999,-3.0822,-3.0703,-2.987,-2.9338,-2.9099,-2.8716,-2.8183,-2.7564,-2.7934,-2.7723,-2.7242,0.0,0.0,0.0,0.0,0.0,0.0,0.0,0.0,0.0,0.0,0.0,0.0,0.0,0.0,0.0,0.0,0.0,0.0,0.0,-3.0079,-3.0757,-3.1295,-3.11,-3.1116,-3.1419,-3.2124,-3.2481,-3.2481,-3.2911,-3.3342,-3.3806,-3.4334,-3.4764,-3.5135,-3.4333,-3.37,-3.3166,-3.217,-3.1495,-3.1132,-3.1234,-3.097,-3.0389,0.0,0.0,0.0,0.0,0.0,0.0,0.0,0.0,0.0,-2.6533,-2.6533,-2.6533,-2.6533,-2.6533,-2.6533,-2.6533,-2.6533,0.0,-2.6533,-2.6703,-2.6979,-2.7092,0.0,0.0,0.0,-2.9792,-2.9792,-2.9792,-3.0279,0.0,0.0,0.0,0.0,0.0,0.0,0.0,0.0,0.0,0.0,0.0,0.0,0.0,0.0,0.0,0.0,0.0,-3.3736,-3.353,-3.353,-3.2723,-3.2434,-3.2776,-3.1467,-3.1134,-3.1842,-3.0713,-3.0652,-3.1424,-3.1235,-3.0955,-3.0718,-3.0237,-3.0054,-2.9993,-2.8994,-2.856,-2.8481,-2.7829,-2.7297,-2.6892,-2.7108,-2.6973,-2.6688,0.0,0.0,0.0,0.0,0.0,0.0,0.0,0.0,0.0,0.0,-2.7276,0.0,0.0,0.0,0.0,0.0,0.0,0.0,0.0,0.0,-3.0658,-3.1218,-3.0766,-3.0905,-3.1758,-3.3065,-3.3776,-3.3889,-3.3889,-3.3889,-3.3905,-3.4742,-3.5198,-3.5245,-3.3969,-3.336,-3.3224,-3.1905,-3.1234,-3.1146,-3.1292,-3.1278,-3.1087,-2.9628,0.0,0.0,0.0,0.0,0.0,0.0,0.0,0.0,-2.6533,-2.6533,-2.6533,-2.6533,-2.6533,-2.6533,-2.6533,-2.6533,-2.6533,-2.6533,-2.6533,0.0,-2.7858,-2.8109,-2.8423,-2.9566,0.0,-2.9792,-2.9792,0.0,0.0,0.0,0.0,0.0,0.0,0.0,0.0,0.0,0.0,0.0,0.0,0.0,0.0,0.0,0.0,0.0,0.0,-3.2757,-3.2694,-3.2694,-3.1849,-3.1391,-3.1219,-3.0614,-3.0266,-3.0111,-2.9884,-2.9808,-2.9747,-3.0222,-3.0115,-2.954,-2.9352,-2.9289,-2.9212,-2.8065,-2.7604,-2.7524,-2.6526,-2.6195,-2.6277,-2.6,-2.5988,-2.5988,0.0,0.0,0.0,0.0,0.0,0.0,0.0,0.0,0.0,0.0,0.0,0.0,0.0,0.0,0.0,0.0,0.0,0.0,0.0,0.0,-3.0038,-3.0634,-3.0609,-3.1417,-3.3292,-3.3061,-3.3501,-3.4651,-3.4651,-3.4651,-3.4667,-3.5068,-3.5291,-3.5245,-3.407,-3.3531,-3.3427,-3.2033,-3.1424,-3.1424,-3.1482,-3.1087,-3.0464,-3.0133,-2.9192,0.0,0.0,0.0,0.0,0.0,0.0,0.0,-2.6533,-2.6533,-2.6533,-2.6533,-2.6533,-2.6533,-2.6533,-2.6533,0.0,-2.6533,-2.6533,-2.6753,-2.7858,-2.8109,-2.8423,-2.9566,-2.9792,-2.9792,-2.9792,0.0,0.0,0.0,0.0,0.0,0.0,0.0,0.0,0.0,0.0,0.0,0.0,0.0,0.0,0.0,0.0,0.0,-3.2625,-3.2082,-3.1806,-3.1806,-3.1119,-3.0771,-3.0725,-3.0459,-3.0266,0.0,-3.0097,-2.9713,-2.9044,-2.9574,-2.9665,-2.9415,-2.8817,-2.8481,-2.8195,-2.7245,-2.6841,-2.6773,-2.6471,-2.6,-2.5581,-2.5918,-2.5779,-2.5511,0.0,0.0,0.0,0.0,0.0,0.0,0.0,0.0,0.0,0.0,0.0,0.0,0.0,0.0,0.0,0.0,0.0,0.0,0.0,0.0,-3.0217,-3.0517,-3.1223,-3.2111,-3.3255,-3.3242,-3.3762,-3.4899,-3.4899,-3.4899,-3.4899,-3.5198,-3.5135,-3.4754,-3.3953,-3.3443,-3.3039,-3.1951,-3.1482,-3.1482,-3.1482,-3.1219,-3.0837,-3.045,-2.9504,-2.8233,-2.7855,0.0,0.0,0.0,0.0,0.0,0.0,0.0,-2.6533,-2.6533,-2.6533,-2.6533,-2.6533,-2.6533,0.0,-2.6533,0.0,-2.708,-2.7908,-2.831,-2.875,-2.9616,-2.9702,-2.9611,0.0,0.0,0.0,0.0,0.0,0.0,0.0,0.0,0.0,0.0,0.0,0.0,0.0,0.0,0.0,0.0,0.0,-3.0991,-3.0991,-3.1065,-3.0877,-3.0492,-3.056,-3.0568,-3.0568,-3.0507,-3.0447,-3.0447,-2.987,-2.9107,-2.8208,-2.8403,-2.839,-2.8325,-2.7723,-2.7458,-2.7245,-2.6364,-2.5963,-2.5975,-2.5511,-2.5099,-2.4826,-2.5099,-2.5028,-2.4826,0.0,0.0,0.0,0.0,0.0,0.0,0.0,0.0,0.0,0.0,0.0,0.0,0.0,0.0,0.0,0.0,0.0,0.0,0.0,0.0,0.0,-3.0767,-3.1787,-3.2506,-3.2883,-3.3329,-3.4003,-3.4899,-3.4899,-3.4899,-3.4899,-3.5198,-3.493,-3.4169,-3.3802,-3.3251,-3.2547,-3.1796,-3.1482,-3.1482,-3.1482,-3.1409,-3.1219,-3.0703,-2.9766,-2.8684,-2.8117,-2.7284,-2.6533,-2.6533,0.0,0.0,0.0,0.0,-2.6533,-2.6533,-2.6533,-2.6533,-2.6533,-2.6533,-2.6533,-2.6533,-2.6866,0.0,-2.7984,-2.8536,-2.9089,-2.9679,-2.9611,0.0,0.0,0.0,0.0,0.0,0.0,0.0,0.0,0.0,0.0,0.0,0.0,0.0,0.0,0.0,0.0,0.0,0.0,-2.9233,-2.9107,-2.987,-3.0068,-2.931,-2.987,-3.0237,-3.0387,-3.0251,-3.0176,-3.0115,-2.9066,-2.8168,-2.7338,-2.6989,-2.6921,-2.7111,-2.6625,-2.6433,-2.6296,-2.5429,-2.5028,-2.4874,-2.425,-2.3897,-2.3813,-2.3813,-2.3813,-2.3751,0.0,0.0,0.0,0.0,0.0,0.0,0.0,0.0,0.0,0.0,0.0,0.0,0.0,0.0,0.0,0.0,0.0,0.0,0.0,0.0,0.0,-3.1534,-3.1121,-3.1727,-3.3641,-3.3103,-3.3531,-3.4899,-3.4899,-3.4899,-3.4899,-3.5198,-3.493,-3.4169,-3.3802,-3.3251,-3.2547,-3.1796,-3.1482,-3.1482,-3.1482,-3.1087,-3.0524,-3.1087,-2.9889,-2.7986,-2.862,-2.7802,-2.6533,-2.6533,-2.6533,0.0,0.0,0.0,-2.6533,-2.6533,-2.6533,-2.6533,-2.6533,0.0,-2.6533,0.0,-2.6866,-2.7431,0.0,0.0,-2.9089,0.0,0.0,0.0,0.0,0.0,0.0,0.0,0.0,0.0,0.0,0.0,0.0,0.0,0.0,0.0,0.0,0.0,0.0,0.0,-2.8839,-2.8967,-2.8182,-2.8967,-2.9435,-2.931,-2.8698,-2.8698,-2.9498,-2.8698,-2.8376,-2.8312,-2.7365,-2.6828,-2.6705,-2.5581,-2.5791,-2.6921,-2.6008,-2.5615,-2.5441,-2.4683,-2.3959,-2.3287,-2.3224,-2.2756,-2.2145,-2.2145,-2.2145,-2.2122,0.0,0.0,0.0,0.0,0.0,0.0,0.0,0.0,0.0,0.0,0.0,0.0,0.0,0.0,0.0,0.0,0.0,0.0,0.0,0.0,0.0,-3.109,-3.1512,-3.2214,-3.3135,-3.2886,-3.3427,-3.4899,-3.4086,-3.4136,-3.4994,-3.4399,-3.3969,-3.3665,-3.3547,-3.2933,-3.1951,-3.164,-3.1482,-3.1482,-3.1482,-3.1029,-3.0329,-3.0703,-2.9504,-2.7736,-2.8117,-2.7484,-2.6533,-2.6533,-2.6533,-2.6533,-2.6533,0.0,0.0,0.0,-2.6533,-2.6533,-2.6533,-2.6533,-2.6533,0.0,-2.7105,-2.7808,-2.8047,0.0,-2.9478,0.0,0.0,0.0,0.0,0.0,0.0,0.0,0.0,0.0,0.0,0.0,0.0,0.0,0.0,0.0,0.0,0.0,0.0,0.0,-2.7564,-2.763,-2.7232,-2.8117,-2.8312,-2.7828,-2.792,-2.8182,-2.8583,-2.8182,-2.7723,-2.7245,-2.6828,-2.6296,-2.5709,-2.5182,-2.5253,-2.5664,-2.5087,-2.4731,-2.4683,-2.4334,-2.3751,-2.3001,-2.3001,-2.2531,-2.1832,-2.1832,-2.1834,-2.1875,0.0,0.0,0.0,0.0,0.0,0.0,0.0,0.0,0.0,0.0,0.0,0.0,0.0,0.0,0.0,0.0,0.0,0.0,0.0,0.0,0.0,-3.0604,-3.1617,-3.2305,-3.247,-3.2524,-3.3235,-3.4707,-3.3443,-3.3598,-3.5041,-3.3767,-3.3182,-3.3182,-3.3182,-3.2571,-3.1482,-3.1482,-3.1482,-3.1467,-3.1278,-3.0837,-3.0269,-3.0072,-2.9002,-2.767,-2.767,-2.7162,-2.6533,-2.6533,-2.6533,-2.6533,-2.6533,-2.6533,0.0,0.0,0.0,-2.6164,0.0,0.0,-2.607,-2.6596,-2.7267,-2.799,0.0,0.0,-2.9754,0.0,0.0,0.0,0.0,0.0,0.0,0.0,0.0,0.0,0.0,0.0,0.0,0.0,0.0,0.0,0.0,0.0,0.0,0.0,-2.6501,-2.6488,-2.6296,-2.7178,-2.7311,-2.6625,-2.7043,-2.7445,-2.7644,-2.7445,-2.6976,-2.6296,-2.6296,-2.5906,-2.5182,-2.5052,-2.4921,-2.479,-2.4418,-2.4273,-2.42,-2.42,-2.3593,-2.2692,-2.2692,-2.2069,-2.1088,-2.1198,-2.1212,-2.1214,0.0,0.0,0.0,0.0,0.0,0.0,0.0,0.0,0.0,0.0,0.0,0.0,0.0,-2.8384,-2.8792,-2.8946,-2.9391,-2.9979,-3.0588,-3.0669,-3.0634,-3.0615,-3.0792,0.0,-3.1946,-3.2074,-3.2788,-3.4151,-3.3475,-3.3783,-3.4899,-3.3716,-3.3182,-3.3182,-3.2788,-3.2216,-3.1482,-3.1482,-3.1482,-3.1409,-3.0644,-3.0329,-3.0208,-2.938,-2.8492,-2.767,-2.767,-2.7162,-2.6533,-2.6533,-2.6533,-2.6533,-2.6533,-2.6533,-2.6533,0.0,0.0,0.0,0.0,-2.5421,0.0,-2.6791,-2.7286,-2.7596,0.0,0.0,0.0,0.0,0.0,0.0,0.0,0.0,0.0,0.0,0.0,0.0,0.0,0.0,0.0,0.0,0.0,0.0,0.0,0.0,0.0,0.0,-2.6102,-2.6227,-2.5441,-2.6239,-2.6625,-2.6625,-2.5836,-2.5836,-2.6625,-2.5836,-2.5441,-2.5382,-2.5382,-2.537,-2.5312,-2.4992,-2.479,-2.4801,-2.4574,-2.4345,-2.42,-2.42,-2.3287,-2.1832,-2.1832,-2.0769,-1.9197,-1.9598,-1.9507,-1.9208,0.0,0.0,0.0,0.0,0.0,0.0,0.0,0.0,0.0,0.0,0.0,0.0,0.0,-2.8752,-2.9212,-3.0142,-3.0387,-3.0754,-3.141,-3.112,-3.0866,-3.0747,-3.1306,-3.1751,-3.2018,-3.2555,-3.3039,-3.3527,-3.3182,-3.3323,-3.3919,-3.2917,-3.261,-3.2788,-3.2586,-3.212,-3.1482,-3.1482,-3.1482,-3.1409,-3.0644,-2.995,-2.938,-2.8492,-2.767,-2.6905,0.0,0.0,-2.6533,-2.6533,-2.6533,-2.6533,-2.6533,-2.6533,-2.6383,-2.5734,-2.53,0.0,0.0,0.0,0.0,-2.5089,-2.6311,-2.7389,-2.7799,-2.8879,0.0,0.0,0.0,0.0,0.0,0.0,0.0,0.0,0.0,0.0,0.0,0.0,0.0,0.0,0.0,0.0,0.0,0.0,0.0,0.0,0.0,-2.5639,-2.5312,-2.5569,-2.5767,-2.5767,-2.5441,-2.5441,-2.5767,-2.5441,-2.5312,-2.5312,-2.5312,-2.5241,-2.5182,-2.4443,-2.407,-2.379,-2.318,-2.3117,-2.3446,-2.4127,-2.3054,-2.1001,-2.1603,-2.0615,-1.8865,-1.9093,-1.9044,-1.8901,0.0,0.0,0.0,0.0,0.0,0.0,0.0,0.0,0.0,0.0,0.0,0.0,0.0,0.0,-2.9403,-3.0612,-3.0913,-3.1283,-3.1607,-3.1278,-3.1014,-3.0895,-3.1495,-3.1807,-3.1807,-3.2625,-3.3002,-3.2933,-3.2864,-3.2955,-3.3287,-3.2351,-3.2104,-3.2547,-3.2231,-3.1853,-3.1482,-3.1482,-3.1482,-3.1409,-3.0329,-2.9504,-2.8876,-2.8051,-2.7278,0.0,0.0,0.0,0.0,-2.6596,-2.6533,-2.6559,-2.6747,-2.6866,-2.6864,-2.5829,-2.5236,0.0,-2.4157,0.0,0.0,0.0,-2.5588,-2.66,-2.693,0.0,0.0,0.0,0.0,0.0,0.0,0.0,0.0,0.0,0.0,0.0,0.0,0.0,0.0,0.0,0.0,0.0,0.0,0.0,0.0,0.0,0.0,0.0,-2.5312,-2.5312,-2.5312,-2.5312,-2.5312,-2.5312,-2.5312,-2.5312,-2.5312,-2.5312,-2.5312,-2.5241,-2.5099,-2.412,-2.3599,-2.3316,-2.2414,-2.2199,-2.2692,-2.3361,-2.236,-2.0557,-2.0976,-2.0188,-1.8819,-1.8909,-1.8828,-1.8675,0.0,0.0,0.0,0.0,0.0,0.0,0.0,0.0,0.0,-2.7461,0.0,0.0,0.0,0.0,0.0,-3.0041,-3.0791,-3.1176,-3.1073,-3.1073,-3.1087,-3.1087,-3.1234,-3.1278,-3.1278,-3.216,-3.2547,-3.2398,-3.2547,-3.2788,-3.3145,-3.2048,-3.1853,-3.2342,-3.1739,-3.1482,-3.1482,-3.1482,-3.1482,-3.1351,0.0,-2.9016,-2.8876,0.0,0.0,0.0,-2.7572,-2.7537,0.0,-2.6747,0.0,0.0,0.0,-2.767,-2.7877,-2.6812,-2.5789,-2.4993,0.0,0.0,0.0,0.0,0.0,0.0,-2.6202,0.0,0.0,0.0,0.0,0.0,0.0,0.0,0.0,0.0,0.0,0.0,0.0,0.0,0.0,0.0,0.0,0.0,0.0,0.0,0.0,0.0,-2.5312,-2.5312,-2.5312,-2.5312,-2.5312,-2.5312,-2.5312,-2.5312,-2.5241,-2.5241,-2.5229,-2.5229,-2.5229,-2.5229,-2.5158,-2.3963,-2.3441,-2.3368,-2.2328,-2.1821,-2.168,-2.1756,-2.1308,-2.042,-2.016,-1.9461,-1.8726,-1.8795,-1.8598,-1.8412,0.0,0.0,0.0,0.0,0.0,0.0,-2.8144,-2.7686,-2.7686,0.0,0.0,0.0,-2.8943,-2.9007,-2.913,-2.9299,-2.9529,-2.9827,-3.0283,-3.0404,-3.0732,-3.1234,-3.1351,-3.1409,-3.1409,-3.2216,-3.2327,-3.1754,-3.2734,-3.2772,-3.1992,-3.2064,-3.2023,-3.1754,-3.1582,-3.1482,-3.1482,-3.1482,0.0,-3.1395,-3.0122,-2.9325,0.0,0.0,0.0,0.0,0.0,-2.7341,-2.7318,0.0,-2.7657,-2.767,0.0,-2.7984,-2.7717,-2.593,-2.5237,-2.4692,-2.3132,0.0,0.0,0.0,0.0,0.0,0.0,0.0,0.0,0.0,0.0,0.0,0.0,0.0,0.0,0.0,0.0,0.0,0.0,0.0,0.0,0.0,0.0,0.0,0.0,0.0,0.0,0.0,-2.5312,-2.5312,-2.5312,-2.5312,-2.5312,-2.5312,-2.5312,-2.4933,-2.4192,-2.4181,-2.3818,-2.3147,-2.3147,-2.3147,-2.3073,-2.2027,-2.1583,-2.1507,-2.0518,-1.9913,-1.9923,-2.1364,-2.0827,-1.925,-1.9869,-1.9308,-1.812,-1.8374,-1.8229,-1.7912,0.0,0.0,0.0,0.0,0.0,0.0,-2.8217,-2.7961,-2.7853,0.0,0.0,0.0,-2.9157,-2.9045,-2.9002,-2.9002,-2.9002,-2.9317,-3.0072,-3.0208,-3.0644,-3.1351,-3.1467,-3.1482,-3.1482,-3.2216,-3.2216,-3.1482,-3.2571,-3.2516,-3.1539,-3.1853,-3.1853,-3.1482,-3.1482,-3.1482,-3.1497,-3.1824,0.0,0.0,-3.0122,0.0,0.0,-2.819,-2.7545,0.0,0.0,0.0,-2.7984,-2.8072,-2.826,0.0,0.0,-2.8288,-2.7754,-2.6086,-2.5289,-2.4562,-2.2888,-2.2588,-2.2773,0.0,0.0,0.0,-2.3808,-2.4242,0.0,0.0,0.0,0.0,0.0,0.0,0.0,0.0,0.0,0.0,0.0,0.0,0.0,0.0,0.0,0.0,0.0,-2.3818,-2.4264,-2.4636,-2.5087,-2.5312,-2.5382,-2.5382,-2.5312,-2.5382,-2.5312,-2.4862,-2.3963,-2.3818,-2.3368,-2.2403,-2.2328,-2.2328,-2.2253,-2.1288,-2.076,-2.076,-1.9608,-1.9073,-1.9073,-2.0294,-1.9913,-1.8709,-1.9075,-1.8778,-1.8135,-1.8145,-1.7935,-1.776,0.0,0.0,0.0,-2.7156,-2.6621,-2.6541,-2.7852,-2.8081,-2.7907,0.0,-2.8338,-2.9021,-2.8884,-2.8812,-2.8748,-2.8748,-2.8748,-2.9066,-2.995,-3.0011,-3.0389,-3.1219,-3.1351,-3.1351,-3.1351,-3.2104,-3.2176,-3.1482,-3.2176,-3.2104,-3.1351,-3.1467,-3.1409,-3.1219,0.0,0.0,-3.1485,0.0,0.0,-3.2361,-3.0164,-2.9582,0.0,0.0,-2.837,-2.8182,-2.9061,-2.9121,-2.8863,-2.8436,-2.8537,0.0,0.0,0.0,0.0,0.0,-2.5546,-2.4542,-2.3387,-2.3135,-2.3135,-2.3135,0.0,0.0,-2.3076,-2.3027,-2.2773,0.0,0.0,0.0,0.0,0.0,0.0,0.0,0.0,0.0,0.0,0.0,0.0,0.0,0.0,0.0,-2.2553,-2.3305,-2.3818,-2.3745,-2.4564,-2.5087,-2.5241,-2.5087,-2.5087,-2.5382,-2.5087,-2.4636,-2.3891,-2.3599,-2.3073,-2.2242,-2.2027,-2.1952,-2.1952,-2.1058,-2.0605,-2.0527,-1.946,-1.9002,-1.9002,-1.8922,-1.8843,-1.8656,-1.8169,-1.8093,-1.8279,-1.7912,-1.7728,-1.7839,0.0,0.0,-2.7698,-2.7148,-2.6823,-2.6922,-2.7889,-2.7371,-2.7296,-2.8449,-2.8248,-2.7983,-2.7973,-2.7351,-2.6973,-2.6973,-2.6973,-2.7351,-2.8182,-2.8247,-2.862,-2.9442,-3.0147,-3.0524,-3.0524,-3.1321,-3.164,-3.1482,-3.164,-3.1321,-3.0524,-3.1219,-3.0777,-2.9504,-3.0208,-3.0785,0.0,0.0,0.0,-3.2876,-3.1565,0.0,-2.9472,-2.8972,-2.8533,-2.816,-2.8821,-2.8975,-2.8988,-2.934,-2.8938,-2.827,0.0,0.0,0.0,-2.5462,0.0,0.0,0.0,0.0,0.0,0.0,0.0,0.0,-2.2715,-2.2373,-2.1982,0.0,0.0,0.0,0.0,0.0,0.0,0.0,0.0,0.0,0.0,0.0,0.0,0.0,0.0,0.0,-2.1907,-2.2124,-2.2499,-2.3095,-2.3316,-2.3316,-2.2925,-2.3073,-2.3441,-2.412,-2.3294,-2.2776,-2.2627,-2.1811,-2.0904,-1.9904,-1.9904,-1.9913,-1.9904,-1.9678,-1.9608,-1.9529,-1.9152,-1.9002,-1.9002,-1.8674,-1.8523,-1.8451,-1.8539,-1.827,-1.7831,-1.7879,-1.7672,-1.7478,-2.7183,-2.7074,-2.6991,-2.6972,-2.6542,-2.6551,-2.7709,-2.743,-2.7289,-2.7696,-2.7351,-2.6879,-2.6377,-2.5988,-2.5734,-2.5734,-2.5734,-2.6333,-2.7604,-2.767,-2.8117,-2.8939,-2.9827,-3.0329,-3.0329,-3.1087,-3.1482,-3.1482,-3.1087,-3.0703,-3.0329,-3.0269,-2.9827,-2.9016,-2.9764,-3.0186,0.0,0.0,-3.1089,-3.1557,-3.0825,0.0,-2.9797,-2.9173,-2.8675,-2.8437,-2.9075,-2.9365,-2.9402,-2.9691,-2.9456,0.0,-2.8255,-2.736,-2.6307,0.0,-2.4372,-2.38,0.0,0.0,0.0,-2.3135,0.0,0.0,0.0,-2.2208,-2.1438,0.0,0.0,0.0,0.0,0.0,0.0,0.0,0.0,0.0,0.0,0.0,0.0,0.0,0.0,0.0,-2.1011,-2.1538,-2.2134,-2.2957,-2.3032,-2.2872,-2.2627,-2.2627,-2.2776,-2.322,-2.2627,-2.2103,-2.1735,-2.1135,-2.0391,-1.9469,-1.9381,-1.9301,-1.9301,-1.9301,-1.9231,-1.9152,-1.9073,-1.8922,-1.8851,-1.8612,-1.8523,-1.8362,-1.8273,-1.8031,-1.7661,-1.7546,-1.7485,-1.7301,-2.6248,-2.6149,-2.6242,-2.6713,-2.6215,-2.6181,-2.7285,-2.7484,-2.7229,-2.6589,-2.6533,-2.6094,-2.5087,-2.5004,-2.4933,-2.4707,-2.4707,-2.5405,-2.7056,-2.7191,-2.7577,-2.8492,-2.9317,-2.9827,-2.9827,-3.0584,-3.1029,-3.1029,-3.0389,-2.995,-2.9766,-2.938,-2.8977,-2.8682,-2.9185,-2.9591,-2.9915,0.0,0.0,-2.9978,0.0,-2.958,-3.0181,-2.9377,-2.8937,-2.8911,-2.9539,-2.9792,-2.9792,-2.9792,-2.9624,-2.9287,-2.8187,-2.7035,0.0,0.0,0.0,0.0,0.0,0.0,0.0,0.0,0.0,-2.3047,0.0,0.0,0.0,0.0,0.0,0.0,0.0,0.0,0.0,0.0,0.0,0.0,0.0,0.0,0.0,0.0,0.0,0.0,0.0,-2.1088,-2.1842,-2.2435,-2.251,-2.2499,-2.2328,-2.2178,-2.2178,-2.2328,-2.1952,-2.1507,-2.1068,-2.0682,-2.0157,-1.9557,-1.9381,-1.9301,-1.9301,-1.9301,-1.9222,-1.9073,-1.9002,-1.8922,-1.8772,-1.87,-1.8451,-1.8112,-1.7861,-1.77,-1.7588,-1.7199,-1.7016,-1.6956,-2.7196,-2.7473,-2.7314,-2.668,-2.6433,-2.6445,-2.6577,-2.6658,-2.6589,-2.6533,-2.6533,-2.6094,-2.5087,-2.5004,-2.4636,-2.3745,-2.3672,0.0,-2.5205,0.0,-2.5779,-2.6714,-2.7537,-2.7986,-2.7986,-2.8812,-2.9254,-2.9254,-2.9192,-2.8748,-2.7999,-2.9152,-2.8893,-2.7545,-2.7822,0.0,0.0,0.0,-2.8519,0.0,-2.8602,-2.8934,0.0,-2.9768,-2.9691,-2.9704,-2.9767,-2.9792,-2.9792,0.0,-2.9106,-2.8096,0.0,-2.588,-2.4787,-2.3637,0.0,0.0,0.0,0.0,0.0,0.0,-2.3135,0.0,0.0,0.0,-2.0403,-1.9167,0.0,-1.7836,-1.7762,0.0,0.0,0.0,0.0,0.0,0.0,0.0,0.0,0.0,0.0,0.0,0.0,-2.0634,-2.0712,-2.0644,-2.0789,-2.0712,-2.0235,-2.0245,-2.0537,-2.1288,-2.0216,-1.9991,-2.0837,-1.9913,-1.946,-1.9301,-1.9301,-1.9301,-1.9301,-1.9301,-1.9301,-1.9222,-1.9073,-1.9002,-1.8922,-1.8772,-1.8112,-1.7204,-1.7789,-1.7716,-1.7302,-1.6586,-1.6235,-1.601,-2.5133,-2.5718,-2.6045,-2.5721,-2.6094,-2.6314,-2.5734,-2.5664,-2.5441,-2.4838,-2.5288,-2.4992,0.0,0.0,0.0,0.0,0.0,-2.3294,0.0,0.0,-2.5441,-2.6452,-2.7297,-2.767,-2.767,-2.8831,-2.9449,-2.9449,-2.9294,-2.9053,-2.867,-2.8782,-2.8434,-2.7783,-2.7569,0.0,-2.8549,0.0,-2.8107,0.0,0.0,0.0,0.0,-2.8767,-2.9106,-2.9599,-2.9599,-2.9599,-2.9521,0.0,-2.8937,0.0,0.0,0.0,0.0,-2.3637,0.0,0.0,0.0,0.0,0.0,0.0,0.0,0.0,-2.2492,0.0,-1.9834,0.0,0.0,0.0,0.0,0.0,0.0,0.0,-1.5951,0.0,0.0,0.0,0.0,0.0,0.0,0.0,0.0,0.0,0.0,0.0,-2.0411,-2.0342,-2.0108,-1.9872,-1.9863,-2.0245,-1.9618,-1.9529,-1.9913,-1.9529,-1.9301,-1.9301,-1.9301,-1.9222,-1.9152,-1.9231,-1.9143,-1.8922,-1.9073,-1.9073,-1.8851,-1.87,-1.7951,-1.6862,-1.7049,-1.664,-1.6004,-1.5524,-1.5137,-1.4798,-2.2382,-2.3503,-2.4564,-2.4564,-2.5205,-2.5429,-2.4707,0.0,0.0,0.0,0.0,0.0,-2.2178,-2.2027,0.0,0.0,-2.1593,-2.2339,0.0,0.0,-2.5075,0.0,0.0,0.0,-2.7207,-2.8569,-2.9363,-2.9363,-2.9114,-2.8899,-2.86,-2.8136,-2.7854,-2.7879,0.0,-2.7211,-2.7549,0.0,-2.7522,-2.7186,-2.7186,-2.7186,-2.7256,-2.7844,-2.8676,-2.9509,-2.9172,-2.9003,-2.8924,-2.7936,-2.8199,0.0,-2.5703,0.0,-2.5641,0.0,0.0,0.0,-2.3135,0.0,0.0,0.0,0.0,0.0,0.0,0.0,0.0,0.0,0.0,0.0,0.0,0.0,-1.4182,0.0,0.0,-1.4977,0.0,0.0,0.0,0.0,0.0,0.0,0.0,0.0,0.0,0.0,0.0,-2.0342,-2.0264,-1.9872,-1.9715,-1.9715,-1.9469,-1.9301,-1.9381,-1.9301,-1.9301,-1.9301,-1.9301,-1.9222,-1.9073,-1.8984,-1.8745,-1.8434,-1.8745,-1.8585,-1.8201,-1.8201,-1.7448,-1.6198,-1.5801,-1.5054,-1.423,-1.4226,-1.4045,-1.3623,-1.9502,-2.1542,-2.3526,-2.3526,0.0,0.0,0.0,0.0,0.0,0.0,0.0,0.0,0.0,0.0,0.0,0.0,0.0,-2.1078,-2.2027,0.0,-2.4093,0.0,0.0,-2.7408,0.0,-2.7395,-2.8145,-2.8145,-2.817,-2.7644,-2.6586,-2.7073,-2.7365,-2.7311,-2.6794,-2.7105,-2.7992,-2.6953,-2.588,-2.4872,-2.4872,-2.4872,-2.5115,0.0,-2.8767,-2.9624,-2.8518,0.0,0.0,-2.6883,-2.6565,0.0,0.0,0.0,0.0,0.0,0.0,0.0,0.0,0.0,0.0,-2.3135,0.0,0.0,0.0,0.0,-1.8856,0.0,0.0,0.0,-1.5003,-1.4703,-1.4416,-1.4135,0.0,0.0,0.0,0.0,0.0,0.0,0.0,0.0,0.0,0.0,0.0,0.0,0.0,0.0,-2.0342,-2.002,-1.9863,-1.9863,-1.9539,-1.939,-1.9557,-1.939,-1.9301,-1.9301,-1.9301,-1.9301,-1.9222,-1.8407,-1.7908,-1.7738,-1.7764,-1.7448,-1.7041,-1.7041,-1.6288,-1.4956,-1.4126,-1.3124,-1.2152,-1.2814,-1.2815,-1.2331,-2.0157,-2.0285,-2.07,0.0,0.0,0.0,0.0,-2.2478,0.0,0.0,0.0,0.0,0.0,-2.1078,-2.0934,0.0,0.0,-2.1011,-2.1952,-2.3448,0.0,0.0,0.0,-2.7372,0.0,0.0,-2.8649,-2.8649,-2.9038,-2.8642,-2.7584,-2.7751,-2.7822,-2.7755,0.0,-2.5964,0.0,0.0,0.0,0.0,0.0,-2.521,-2.5975,0.0,0.0,-2.7279,-2.7128,-2.6953,0.0,-2.5703,-2.588,-2.6141,-2.4296,-2.4211,-2.4542,-2.3464,-2.3135,0.0,0.0,0.0,-2.212,-2.2862,0.0,0.0,0.0,0.0,0.0,0.0,0.0,0.0,0.0,0.0,-1.4429,-1.4135,-1.4088,0.0,0.0,0.0,0.0,0.0,0.0,0.0,0.0,0.0,0.0,0.0,-1.9854,0.0,0.0,-1.9432,-1.9283,-2.0108,-1.9204,-1.8966,-1.9557,-1.9557,-1.939,-1.9301,-1.9301,-1.8904,-1.8256,-1.7917,-1.7253,-1.6347,-1.6339,-1.6093,-1.5681,-1.5681,-1.5025,-1.3951,-1.362,-1.2687,-1.1602,-1.2025,-1.188,-1.1369,-2.0089,-1.9766,0.0,0.0,0.0,0.0,0.0,0.0,0.0,0.0,-2.1155,0.0,-2.0634,0.0,-2.0566,0.0,-2.0566,-2.0926,-2.1686,-2.3174,0.0,-2.2937,-2.5919,0.0,0.0,0.0,0.0,0.0,-2.9012,-2.8609,-2.7522,-2.7105,-2.693,-2.6849,0.0,-2.521,-2.588,-2.5126,-2.4542,0.0,0.0,-2.4638,0.0,0.0,-2.5953,-2.6767,0.0,-2.5797,-2.5535,-2.4542,-2.4713,-2.5062,-2.356,-2.3627,-2.4049,-2.3299,-2.3135,-2.3135,-2.3135,-2.2217,0.0,-2.2306,-2.1578,0.0,-2.0124,0.0,0.0,0.0,0.0,0.0,0.0,0.0,0.0,-1.4289,-1.4155,-1.4088,0.0,-1.4088,0.0,0.0,0.0,0.0,0.0,0.0,0.0,-1.7819,-1.8718,-1.9283,0.0,0.0,-1.8221,-1.9116,-1.8141,-1.79,-1.8559,-1.8399,-1.823,-1.8141,-1.8141,-1.7738,-1.7098,-1.6764,-1.6093,-1.5108,-1.5101,-1.4851,-1.4434,-1.4434,-1.3937,-1.319,-1.2948,-1.2186,-1.1332,-1.1419,-1.1068,-1.0554,-1.9204,0.0,0.0,0.0,-2.0576,0.0,0.0,0.0,-2.0576,0.0,-2.0576,-2.0566,-2.0566,-2.0586,-2.0596,-2.0596,-2.0615,-2.081,-2.116,-2.2664,0.0,0.0,-2.4823,-2.5755,-2.4209,0.0,0.0,0.0,0.0,-2.7522,-2.6483,-2.5294,-2.4787,-2.4787,-2.4702,0.0,-2.4787,-2.4702,-2.4125,-2.3135,-2.3057,-2.3135,-2.3135,-2.3135,-2.5126,-2.7671,-2.5452,-2.4702,-2.4542,-2.3464,-2.3057,-2.3135,-2.3135,-2.3135,-2.3135,-2.3135,-2.3135,-2.3057,-2.3047,-2.212,-2.1203,-2.1203,0.0,0.0,0.0,0.0,-1.7318,0.0,0.0,0.0,0.0,0.0,0.0,-1.4569,-1.4275,-1.4088,0.0,0.0,0.0,0.0,0.0,0.0,0.0,-1.5054,-1.5696,-1.5696,-1.6683,-1.7253,0.0,0.0,-1.7001,-1.7001,-1.6601,-1.6429,-1.6659,-1.625,-1.6003,-1.6003,-1.6003,-1.6003,-1.5921,-1.5108,-1.4441,-1.3931,-1.3951,-1.3704,-1.3281,-1.3281,-1.319,-1.2851,-1.2032,-1.1527,-1.1262,-1.1073,-1.0554,-1.0038,-1.9036,-1.9432,-1.9633,0.0,-1.9715,-2.0674,0.0,0.0,0.0,0.0,-2.0771,-2.0566,-2.042,-2.0632,-2.0745,-2.0575,-2.1024,0.0,0.0,0.0,0.0,-2.1977,-2.4823,-2.5755,-2.4209,-2.676,-2.8096,-2.8096,0.0,-2.7522,-2.6483,-2.5294,-2.4787,-2.4787,0.0,-2.4049,-2.4702,-2.3887,-2.3387,-2.3057,-2.2969,-2.3464,0.0,0.0,-2.4049,-2.5452,-2.3877,-2.3387,-2.3464,-2.3057,-2.2969,-2.3135,-2.3135,-2.3135,-2.3135,-2.3135,-2.3135,-2.2862,-2.2031,-2.0845,-1.9943,-1.9943,-1.9039,-1.8048,0.0,0.0,0.0,0.0,0.0,0.0,0.0,0.0,0.0,0.0,0.0,0.0,0.0,0.0,0.0,-1.2766,0.0,0.0,0.0,-1.5054,-1.5696,-1.5696,-1.6683,-1.7261,-1.7253,0.0,0.0,-1.7172,-1.6183,-1.6018,-1.6659,-1.6421,-1.6175,-1.6003,-1.6003,-1.5681,-1.5025,-1.4615,-1.3944,-1.3033,-1.2869,-1.2534,-1.2118,-1.2118,-1.1946,-1.1682,-1.1521,-1.1267,-1.1089,-1.0819,-1.0554,-1.0207,-1.8562,0.0,0.0,-1.9731,0.0,0.0,-2.123,0.0,0.0,-2.123,-2.1182,0.0,-2.0992,-2.1124,-2.1188,-2.1188,-2.1326,0.0,-2.1887,0.0,0.0,-2.2432,-2.3954,-2.4523,-2.3768,-2.5644,0.0,-2.6685,0.0,-2.6367,-2.5714,-2.4553,-2.4049,-2.4049,0.0,-2.3474,-2.4049,-2.3387,-2.3135,-2.3057,-2.2969,-2.3387,0.0,-2.3135,-2.3299,-2.379,-2.296,-2.2794,-2.2969,-2.2706,-2.2706,-2.2784,-2.2969,-2.2969,-2.2969,-2.3057,-2.3135,-2.2862,-2.1658,-2.0395,-1.9405,-1.8864,-1.777,-1.685,-1.685,-1.685,-1.6669,0.0,0.0,0.0,0.0,0.0,0.0,0.0,0.0,0.0,0.0,0.0,0.0,0.0,-1.1552,0.0,0.0,-1.4041,-1.4977,-1.4977,-1.5553,-1.5876,0.0,0.0,0.0,-1.5876,-1.513,-1.4873,-1.5357,-1.5115,-1.4949,-1.4699,-1.4699,-1.4448,-1.3789,-1.3704,-1.3288,-1.2534,-1.2448,-1.2203,-1.1785,-1.1699,-1.1613,-1.144,-1.1354,-1.1262,-1.1094,-1.0472,-1.0033,-0.9763,-1.8037,0.0,0.0,0.0,0.0,0.0,0.0,-2.168,0.0,-2.1445,0.0,-2.1885,-2.1802,-2.1675,-2.162,-2.1797,0.0,-2.1617,-2.2407,-2.2083,-2.2246,-2.295,-2.2882,-2.2882,-2.3057,-2.4211,-2.4787,0.0,0.0,-2.4787,-2.4787,-2.3627,-2.3135,-2.3135,0.0,0.0,0.0,-2.3135,-2.3135,-2.3135,-2.3057,-2.3057,-2.3057,-2.2794,-2.2803,-2.2803,-2.2441,-2.253,-2.2706,-2.2441,-2.2441,-2.2441,-2.2706,-2.2715,-2.2794,-2.2784,-2.2862,-2.2501,-2.1212,-2.0034,-1.8948,-1.7777,-1.6574,-1.5832,-1.5832,-1.5832,-1.5832,-1.5832,-1.5832,-1.5832,0.0,0.0,0.0,0.0,0.0,0.0,0.0,0.0,0.0,0.0,0.0,0.0,0.0,0.0,-1.3822,-1.3822,-1.3997,-1.4088,0.0,0.0,0.0,-1.4088,-1.3828,-1.3737,-1.3737,0.0,-1.3307,-1.3137,-1.3052,-1.2966,-1.2705,-1.2705,-1.2619,-1.2448,-1.2448,-1.2283,-1.1957,-1.1785,-1.1699,-1.1613,-1.1354,-1.1176,-1.1003,-1.0038,-0.9331,-0.8969,-1.8145,0.0,0.0,0.0,0.0,-2.2783,-2.2353,-2.206,-2.1982,-2.2256,-2.2051,-2.1709,-2.1358,-2.1588,-2.1627,-2.1265,-2.1677,0.0,0.0,0.0,0.0,-2.252,-2.2706,-2.2803,-2.2891,-2.4125,-2.4787,0.0,0.0,0.0,-2.4787,-2.3627,-2.3135,-2.3135,0.0,0.0,-2.3135,-2.3135,0.0,-2.3057,-2.2882,-2.2969,-2.3047,-2.2618,-2.2618,-2.2715,-2.2274,-2.2264,-2.2441,-2.2441,-2.2441,-2.2441,-2.2441,-2.2441,-2.2344,-2.1596,-2.1409,-2.0953,-1.8864,-1.8141,-1.7677,-1.648,-1.6015,-1.5832,-1.5832,-1.5832,-1.5832,-1.5832,-1.5832,-1.5832,-1.5832,0.0,0.0,0.0,0.0,0.0,0.0,0.0,0.0,0.0,0.0,-0.9579,0.0,0.0,-1.2589,-1.2589,-1.3555,0.0,0.0,0.0,0.0,0.0,-1.3828,0.0,0.0,0.0,-1.3137,-1.3137,-1.2881,-1.279,-1.2705,-1.2705,-1.2705,-1.2619,-1.2619,-1.2369,-1.2043,-1.1957,-1.1699,-1.1348,-1.1354,-1.0824,-1.012,-0.9946,-0.8807,-0.7489,0.0,0.0,0.0,0.0,0.0,0.0,0.0,-2.1584,0.0,-2.2425,-2.2519,-2.2444,-2.2169,-2.2111,-2.2051,-2.1964,-2.1887,-2.2008,-2.2274,-2.2087,-2.2176,-2.2353,-2.2441,-2.2539,-2.2794,-2.3464,-2.379,-2.3877,0.0,0.0,-2.3877,0.0,0.0,-2.3135,0.0,-2.2765,0.0,0.0,0.0,-2.1221,-2.1141,-2.1141,-2.1221,-2.0872,-2.0782,-2.0872,-2.1248,-2.1347,-2.1347,-2.19,-2.2087,-2.2264,-2.2264,-2.1802,-2.1338,-2.1606,-2.1239,-2.0413,-1.8864,-1.8411,-1.7948,-1.6103,-1.5737,-1.5737,-1.5635,-1.573,-1.5832,-1.5832,-1.5832,-1.5832,-1.5832,-1.4646,0.0,0.0,0.0,0.0,0.0,0.0,0.0,0.0,0.0,0.0,0.0,0.0,0.0,0.0,0.0,0.0,0.0,0.0,0.0,0.0,0.0,0.0,0.0,0.0,0.0,-1.3137,-1.2966,-1.279,-1.2705,-1.2705,-1.2705,-1.2705,-1.2705,-1.2272,-1.1413,-1.0722,-1.0202,-0.9859,-0.9859,-0.9593,-0.9157,-0.8632,-0.7837,-0.6959,0.0,-1.8319,0.0,0.0,-1.9852,0.0,-2.148,-2.1311,-2.1389,-2.2428,-2.2766,-2.2969,-2.2872,-2.253,-2.2441,-2.253,-2.2008,-2.182,-2.2264,-2.1909,-2.182,-2.2264,-2.2185,-2.2362,-2.2715,-2.2794,-2.2969,0.0,0.0,0.0,0.0,0.0,0.0,0.0,0.0,0.0,0.0,0.0,-2.0395,-1.9497,-1.9497,-1.9497,-1.9488,-1.9222,-1.9039,-1.9131,-1.9861,-2.0051,-1.9977,-2.0718,-2.1266,-2.1633,-2.1633,-2.0799,-1.996,-2.0872,-2.0494,-1.9488,-1.8488,-1.8211,-1.7755,-1.5913,-1.5547,-1.5642,-1.554,-1.5635,-1.5737,-1.5825,-1.5832,-1.573,-1.5439,-1.4364,0.0,0.0,0.0,0.0,0.0,0.0,0.0,0.0,0.0,0.0,-0.7139,0.0,0.0,0.0,0.0,0.0,0.0,0.0,0.0,0.0,0.0,-1.373,-1.3737,0.0,-1.3483,-1.3137,-1.3137,-1.2966,-1.2705,-1.2705,-1.2528,-1.2357,-1.2357,-1.1655,-1.0443,-0.9323,-0.8715,-0.8456,-0.8452,-0.8277,-0.8013,-0.7221,-0.6694,-0.6425,0.0,0.0,0.0,0.0,0.0,0.0,-2.2775,-2.2031,-2.1658,-2.2648,-2.2589,-2.2441,-2.2185,-2.2185,-2.2008,-2.182,-2.1741,-2.1741,-2.1731,-2.1741,-2.1741,-2.1731,-2.2176,-2.2353,-2.2441,-2.2872,-2.3047,0.0,0.0,-2.3135,0.0,0.0,0.0,0.0,0.0,0.0,0.0,-1.9679,-1.9579,-1.9497,-1.9497,-1.9497,-1.9488,-1.9222,-1.8948,-1.8848,-1.8672,-1.8572,-1.858,-1.8403,-1.9147,-2.0076,-2.0076,-1.9239,-1.8033,-1.7282,-1.7001,-1.6727,-1.5724,-1.5452,-1.5458,-1.5178,-1.5178,-1.5172,-1.5452,-1.554,-1.554,-1.573,-1.5832,-1.5439,-1.4268,-1.3011,-1.1745,0.0,0.0,0.0,0.0,0.0,-0.7552,-0.7373,0.0,0.0,0.0,-0.8193,0.0,0.0,-1.1214,0.0,0.0,0.0,0.0,-1.4088,0.0,-1.2942,-1.4082,-1.3822,-1.3568,-1.3398,-1.3222,-1.2966,-1.2705,-1.2705,-1.218,-1.1133,-1.1133,-1.0356,-0.9061,-0.8715,-0.854,-0.8456,-0.8273,-0.7742,-0.6953,-0.6593,-0.5891,-0.5186,0.0,0.0,0.0,0.0,0.0,0.0,0.0,-1.977,-1.9497,-2.1239,-2.1516,-2.1516,-2.1248,-2.1722,-2.2097,-2.1919,-2.182,-2.1741,-2.1741,-2.1741,-2.1741,-2.1741,-2.1998,-2.2264,-2.2441,-2.2706,-2.2969,0.0,0.0,0.0,0.0,0.0,0.0,0.0,0.0,-1.9588,-1.8411,-1.8411,-1.7948,-1.7296,-1.7296,-1.7296,-1.7203,-1.7016,-1.6922,-1.6828,-1.7188,-1.7282,-1.7375,-1.7848,-1.8495,-1.8956,-1.8772,-1.7933,-1.7001,-1.7289,-1.6908,-1.6257,-1.5994,-1.59,-1.5812,-1.507,-1.4987,-1.5083,-1.507,-1.5261,-1.554,-1.5635,-1.5737,-1.5439,-1.4166,-1.2813,-1.1458,0.0,0.0,0.0,0.0,0.0,0.0,-0.7634,0.0,-0.7278,0.0,0.0,0.0,0.0,0.0,0.0,0.0,0.0,0.0,-1.1997,0.0,-1.1472,-1.1826,-1.174,-1.1569,-1.1311,-1.1225,-1.1052,-1.088,-1.088,-1.0529,-0.9908,-0.9222,-0.8619,-0.8013,-0.7048,-0.6605,-0.6605,-0.6334,-0.6068,-0.5716,-0.5625,-0.5275,-0.4835,-1.5832,0.0,-1.7225,0.0,-1.7692,-1.8141,-1.9314,-1.8596,-1.8411,-1.9861,-2.0503,-2.0872,-2.0881,-2.1544,-2.2008,-2.2008,-2.183,-2.1741,-2.1741,-2.1741,-2.1741,-2.1741,-2.1998,0.0,-2.2441,-2.2706,-2.2969,-2.3135,-2.2765,0.0,0.0,0.0,0.0,0.0,-1.8948,-1.8319,-1.7131,-1.7131,-1.6662,-1.5832,-1.5832,-1.573,-1.573,-1.554,-1.535,-1.535,-1.5805,-1.5886,-1.5981,-1.6633,-1.7001,-1.7188,-1.7375,-1.6626,-1.5785,-1.6633,-1.6351,-1.569,-1.5792,-1.5886,-1.5609,-1.4777,-1.4688,-1.4885,-1.4688,-1.507,-1.5452,-1.554,-1.5635,-1.5242,-1.359,-1.2528,-1.1361,-0.9706,0.0,0.0,0.0,0.0,0.0,0.0,-0.759,-0.7421,-0.7373,-0.7272,0.0,0.0,0.0,0.0,0.0,0.0,0.0,0.0,0.0,0.0,0.0,-1.0356,-1.0178,-0.9831,-0.9805,-0.9717,-0.9405,-0.9024,-0.8806,-0.8492,-0.7214,-0.6668,-0.6662,-0.556,-0.5013,-0.4924,-0.4743,-0.4652,-0.4565,-0.4476,-0.4405,-0.4248,-1.5832,-1.5825,-1.6197,-1.7505,-1.7692,-1.8141,-1.9314,-1.9222,-1.9039,-1.8848,-1.9687,-2.0619,-2.1553,-2.1741,-2.1741,-2.1741,-2.1741,-2.1741,-2.1741,-2.1741,-2.1741,0.0,0.0,-2.2441,-2.2441,-2.2882,-2.3135,-2.3135,0.0,0.0,-2.1293,0.0,-1.8864,-1.7692,-1.7692,-1.7037,-1.5825,-1.5825,-1.5825,-1.5832,-1.5832,-1.5635,-1.554,-1.554,-1.5159,-1.4694,-1.4688,-1.4586,-1.4298,-1.4292,-1.4394,-1.458,-1.5785,-1.5324,-1.4298,-1.4292,-1.4298,-1.4298,-1.4298,-1.4298,-1.4298,-1.4298,-1.4298,-1.4394,-1.4688,-1.4885,-1.5274,-1.5737,-1.5635,-1.4765,-1.2334,-1.195,-1.1068,-0.8432,0.0,0.0,0.0,0.0,0.0,-0.7811,-0.7685,-0.7539,-0.7387,-0.737,0.0,0.0,0.0,0.0,0.0,0.0,0.0,-1.0524,-0.9492,0.0,-1.0611,-1.0611,-1.026,-0.9648,-0.9669,-0.9398,-0.8877,-0.7814,-0.724,-0.6992,-0.5488,-0.4807,-0.4798,-0.4426,-0.4119,-0.3939,-0.3939,-0.3762,-0.3587,-0.3317,-0.3269,-0.3318,-1.5832,-1.648,-1.7225,-1.7598,-1.7591,-1.7576,-1.7933,-1.7755,-1.7848,-1.8488,-1.9596,-2.0628,-2.1642,-2.1741,-2.1741,0.0,-2.1741,-2.1741,0.0,-2.1741,-2.1741,-2.1741,-2.2008,-2.2264,-2.2441,-2.2706,-2.2969,-2.3135,0.0,0.0,0.0,-1.8411,-1.7584,-1.6386,-1.6386,-1.6204,-1.5832,-1.5832,-1.5832,-1.5825,-1.5635,-1.554,-1.5445,-1.5064,-1.4879,-1.4694,-1.449,-1.4394,-1.4298,-1.4298,-1.4298,-1.4388,-1.4765,-1.4669,-1.4298,-1.4298,-1.4298,-1.4298,-1.4298,-1.4298,-1.4298,-1.4298,-1.4298,-1.4298,-1.4394,-1.479,-1.5178,-1.5547,-1.554,-1.4758,-1.2334,-1.1755,-1.0877,-0.8432,-0.8038,0.0,0.0,0.0,0.0,-0.7967,-0.7834,-0.7726,0.0,-0.7584,0.0,0.0,0.0,0.0,0.0,0.0,0.0,0.0,-0.7837,0.0,-0.8181,-0.8181,-0.8093,-0.7921,-0.7801,-0.7446,-0.6959,-0.6296,-0.5978,-0.5831,-0.5255,-0.4973,-0.4881,-0.4672,-0.448,-0.4389,-0.4034,-0.3855,-0.3767,-0.3587,-0.3512,-0.3437,-1.5547,-1.6204,-1.6756,-1.6756,-1.6936,-1.7117,-1.7117,-1.7762,-1.8403,-1.9047,-2.0068,-2.1087,-2.1642,-2.1741,0.0,-2.1741,-2.1741,-2.1741,-2.1741,-2.1741,-2.1741,-2.1741,-2.1919,-2.2185,-2.2441,-2.2618,0.0,-2.2969,-2.1311,-1.9306,-1.6943,-1.6943,-1.6574,-1.5832,-1.5832,-1.5832,-1.5832,-1.5832,-1.573,-1.5635,-1.554,-1.5356,-1.5166,-1.4783,-1.4592,-1.4496,-1.4394,-1.4298,-1.4298,-1.4298,-1.4298,-1.4298,-1.4298,-1.4298,-1.4298,-1.4298,-1.4298,-1.4298,-1.4298,-1.4298,-1.4298,-1.4298,-1.4298,-1.4298,-1.4394,-1.4592,-1.4885,-1.5261,-1.4968,-1.3986,-1.2145,-1.1365,-1.0391,-0.8333,-0.8038,-0.8038,-0.8038,0.0,0.0,0.0,0.0,0.0,0.0,-0.7733,-0.7617,0.0,0.0,0.0,0.0,0.0,0.0,-0.7139,-0.7139,0.0,-0.7139,-0.7139,-0.7051,-0.6874,-0.6523,-0.6218,-0.5858,-0.5543,-0.5368,-0.5314,-0.4908,-0.48,-0.4707,-0.4403,-0.4212,-0.4123,-0.3857,-0.3767,-0.3587,-0.3139,-0.2883,-0.2807,-1.5083,-1.5083,0.0,0.0,-1.6103,0.0,-1.7023,-1.8864,-2.0249,-2.0249,-2.1087,-2.1642,-2.1553,-2.1553,-2.1553,-2.1463,0.0,0.0,0.0,-2.1553,-2.1553,-2.1553,-2.1919,-2.2185,-2.2353,-2.2618,-2.2706,-2.253,-2.0141,-1.7848,-1.5737,-1.5737,-1.5737,-1.5737,-1.5737,-1.5737,-1.5737,-1.5737,-1.5642,-1.5445,-1.5445,-1.5166,-1.4688,-1.4694,-1.4496,-1.4298,-1.4298,-1.4298,-1.4298,-1.4298,-1.4298,-1.4298,-1.4298,-1.4202,-1.4196,-1.4298,-1.4298,-1.4298,-1.4298,-1.4298,-1.4298,-1.4298,-1.4298,-1.4394,-1.4592,-1.449,-1.449,-1.4885,-1.4004,-1.2732,-1.1658,-1.0685,-0.9509,-0.8237,-0.8038,-0.8038,-0.8038,0.0,0.0,0.0,0.0,0.0,0.0,-0.7828,-0.7767,0.0,0.0,0.0,0.0,0.0,-0.7166,-0.7156,-0.7146,-0.7139,-0.7139,-0.7139,-0.6874,-0.6432,-0.5985,-0.5655,-0.5578,-0.5483,-0.54,-0.5207,-0.4562,-0.434,-0.4328,-0.3808,-0.3419,-0.3235,-0.3421,-0.3331,-0.297,-0.1982,-0.164,-0.1476,0.0,0.0,-1.5363,-1.6285,-1.6553,-1.6915,-1.794,-1.9139,-1.9977,-1.9977,-2.0997,-2.1365,-2.0447,-2.0357,-1.9886,-1.8964,-1.9795,-2.0257,-1.9994,-2.0175,-2.0357,-2.0357,-2.1275,-2.1919,-2.2185,-2.2274,-2.1526,-1.996,-1.8488,-1.7016,-1.554,-1.554,-1.554,-1.554,-1.554,-1.554,-1.554,-1.554,-1.5452,-1.5172,-1.4975,-1.4783,-1.4694,-1.4496,-1.4394,-1.4298,-1.4298,-1.4298,-1.4298,-1.4298,-1.4298,-1.4298,-1.4298,-1.3613,-1.2926,-1.4004,-1.4298,-1.4298,-1.4298,-1.4298,-1.4298,-1.4298,-1.4298,-1.4298,-1.4394,-1.4496,-1.4394,-1.3709,-1.3318,-1.2533,-1.0681,-0.9998,-0.9312,-0.8137,-0.8038,-0.8038,-0.8038,-0.8038,0.0,0.0,-0.8038,-0.8024,-0.7987,-0.7984,-0.7923,0.0,0.0,0.0,0.0,-0.7529,-0.7438,-0.7319,-0.7204,-0.7139,-0.7139,-0.7139,-0.6966,-0.6704,-0.6343,-0.593,-0.5448,-0.5065,-0.4797,-0.4455,-0.3864,-0.3758,-0.3984,-0.3345,-0.3166,-0.3218,-0.2239,-0.1877,-0.1689,-0.0657,-0.0282,-0.0094,-1.4688,-1.4688,-1.4968,-1.5622,-1.6546,-1.7382,-1.8118,-1.9604,-2.0538,-1.9985,-2.0447,-2.0439,-1.9147,-1.9055,-1.8688,-1.794,-1.8588,-1.9239,-1.9621,-1.9803,-2.0167,-2.0727,-2.1365,-2.183,-2.2097,-2.1535,-2.024,-1.811,-1.7282,-1.6365,-1.5356,-1.5356,-1.5356,-1.5356,-1.5356,-1.5356,-1.5356,-1.5356,-1.5172,-1.4885,-1.479,-1.4592,-1.4496,-1.4394,-1.4298,-1.4298,-1.4298,-1.4298,-1.4298,-1.4298,-1.4298,-1.4298,-1.4298,-1.3414,-1.2436,-1.3216,-1.292,-1.2522,-1.2522,-1.292,-1.3511,-1.41,-1.4298,-1.4196,-1.3709,-1.3709,-1.3511,-1.2436,-1.1853,-1.117,-0.9998,-0.9316,-0.8726,-0.8137,-0.8038,-0.8038,-0.8038,-0.8038,0.0,-0.8038,-0.8038,-0.8038,-0.8038,-0.8038,-0.8004,-0.7923,-0.7916,0.0,-0.7804,-0.7733,-0.7628,-0.7482,-0.7326,-0.7244,-0.7244,-0.7088,-0.6877,-0.6612,-0.6346,-0.608,-0.5727,-0.5102,-0.4743,-0.4476,-0.3989,-0.3459,-0.3096,-0.2791,-0.2438,-0.1969,-0.1232,-0.0951,-0.0856,0.019,0.0476,0.0666,-1.4298,-1.4298,-1.4388,-1.4573,-1.6445,-1.8033,-1.8218,-2.0068,-2.1087,-2.0076,-1.9704,-1.9147,-1.7848,-1.7755,-1.7561,-1.7188,-1.7375,-1.794,-1.9239,-1.9521,-2.0076,-2.1087,-2.1463,-2.1731,-2.1731,-2.0331,-1.8656,-1.6807,-1.6445,-1.5805,-1.5083,-1.5083,-1.5083,-1.5083,-1.5083,-1.5083,-1.5083,-1.5083,-1.4885,-1.4592,-1.4592,-1.4496,-1.4298,-1.4298,-1.4298,-1.4298,-1.4298,-1.4298,-1.4298,-1.4298,-1.4298,-1.4298,-1.41,-1.3119,-1.1945,-1.175,-1.0765,-0.9878,-1.0266,-1.1253,-1.2339,-1.3516,-1.3806,-1.3613,-1.2635,-1.2436,-1.2145,-1.117,-1.0194,-0.9509,-0.941,-0.8627,-0.8038,-0.8038,-0.8038,-0.8038,-0.8038,0.0,-0.8038,-0.8038,-0.8038,-0.8038,-0.8038,-0.8038,-0.8038,-0.8038,-0.8038,-0.8038,-0.8038,-0.7916,-0.779,-0.7672,-0.7495,-0.7397,-0.7373,-0.6956,-0.6704,-0.6428,-0.6169,-0.6083,-0.5994,-0.5277,-0.483,-0.4652,-0.4133,-0.3266,-0.2115,-0.2126,-0.1402,-0.0474,-0.0285,-0.0191,-0.0096,0.086,0.1245,0.1344,-1.4298,-1.4298,-1.4669,-1.569,-1.7102,-1.8403,-1.9422,-1.9886,-2.0076,-1.9894,-1.8964,-1.7848,-1.6626,-1.6438,-1.6069,-1.4949,-1.486,-1.533,-1.6351,-1.7569,-1.8403,-1.8588,-2.0619,-2.1275,-2.0257,-1.8018,-1.672,-1.6539,-1.552,-1.4873,-1.4783,-1.4783,-1.4783,-1.4783,-1.4783,-1.4783,-1.4783,-1.4783,-1.4592,-1.4394,-1.4394,-1.4298,-1.4298,-1.4298,-1.4298,-1.4298,-1.4298,-1.4298,-1.4298,-1.4298,-1.4298,-1.41,-1.2926,-1.1745,-1.0467,-0.9296,-0.8014,-0.7521,-0.978,-1.0672,-1.1072,-1.1268,-1.1463,-1.1658,-1.1463,-1.1463,-1.117,-1.0096,-0.9706,-0.9312,-0.8432,-0.8137,-0.8038,-0.8038,-0.8038,-0.8038,-0.8038,0.0,-0.8038,-0.8038,-0.8038,-0.8038,-0.8038,-0.8038,-0.8038,-0.8038,-0.8038,-0.8038,-0.8038,-0.8018,-0.7994,-0.7974,-0.7706,-0.7409,-0.7103,-0.6866,-0.6704,-0.6428,-0.6169,-0.5905,-0.546,-0.5191,-0.4743,-0.4302,-0.31,-0.2462,-0.2346,-0.1028,-0.047,-0.0279,0.0757,0.1251,0.1366,0.244,0.2763,0.2902,-1.4298,-1.4298,-1.4484,-1.5038,-1.6163,-1.7188,-1.784,-1.8495,-1.868,-1.8025,-1.7375,-1.6539,-1.5324,-1.5134,-1.4949,-1.4394,-1.4298,-1.4484,-1.4956,-1.6257,-1.7654,-1.8964,-1.9422,-1.9139,-1.7933,-1.6814,-1.588,-1.5324,-1.4771,-1.449,-1.449,-1.449,-1.449,-1.449,-1.449,-1.449,-1.449,-1.449,-1.4394,-1.4298,-1.4298,-1.4298,-1.4298,-1.4298,-1.4298,-1.4196,-1.3511,-1.3221,-1.3119,-1.2431,-1.2226,-1.2129,-1.1448,-1.0373,-0.9197,-0.8609,-0.7425,-0.683,-0.8803,-0.9395,-0.9694,-1.0378,-1.0672,-1.0574,-1.0087,-0.9891,-0.9596,-0.852,-0.8326,-0.823,-0.7842,-0.7743,-0.7842,-0.7942,-0.8038,0.0,0.0,-0.8038,-0.8038,-0.8038,-0.8038,-0.7939,-0.7842,-0.7743,-0.7743,-0.7743,-0.7743,-0.7842,-0.8038,-0.8038,-0.7942,-0.7743,-0.7637,-0.7325,-0.6825,-0.6672,-0.6332,-0.5994,-0.5908,-0.5458,-0.4559,-0.4202,-0.3487,-0.2506,-0.19,-0.1182,-0.0456,0.0,0.0656,0.1318,0.1922,0.2238,0.2454,0.2978,0.3206,0.323,-1.4202,-1.4208,-1.4202,-1.4106,-1.5229,-1.6069,-1.6069,-1.6908,-1.7282,-1.6344,-1.5974,-1.5412,-1.4394,-1.4202,-1.4202,-1.4298,-1.4202,-1.4298,-1.4675,-1.5324,-1.672,-1.8956,-1.8118,-1.7188,-1.625,-1.588,-1.5324,-1.4298,-1.4298,-1.4298,-1.4298,-1.4298,-1.4298,-1.4298,-1.4298,-1.4298,-1.4298,-1.4202,-1.4202,-1.4298,-1.4202,-1.4202,-1.4298,-1.3908,-1.3806,-1.3709,-1.2334,-1.1843,-1.1745,-1.076,-1.0369,-1.0369,-1.0075,-0.9193,-0.8315,-0.8018,-0.7229,-0.6634,-0.7624,-0.8021,-0.8315,-0.9292,-0.9587,-0.9391,-0.8609,-0.8414,-0.8219,-0.7335,-0.7238,-0.7341,-0.7547,-0.7646,-0.7646,-0.7939,0.0,0.0,0.0,-0.8038,-0.8038,-0.8038,-0.8038,-0.7942,-0.7646,-0.7646,-0.7646,-0.7646,-0.7646,-0.7646,-0.7942,-0.7942,-0.7743,-0.7543,-0.7407,-0.7133,-0.6734,-0.6489,-0.6136,-0.5773,-0.5473,-0.4828,-0.3838,-0.3217,-0.2325,-0.1253,-0.1075,-0.0181,0.1017,0.0924,0.1492,0.2559,0.2707,0.2827,0.2932,0.3087,0.3218,0.323,-1.4027,-1.3931,-1.3835,-1.3636,-1.4854,-1.5798,-1.5798,-1.6163,-1.6344,-1.625,-1.5134,-1.4388,-1.4298,-1.4118,-1.4022,-1.4298,-1.4118,-1.4394,-1.5609,-1.4675,-1.4771,-1.6438,-1.6344,-1.625,-1.6156,-1.5045,-1.4388,-1.4298,-1.4298,-1.4298,-1.4298,-1.4298,-1.4298,-1.4298,-1.4298,-1.4298,-1.4298,-1.4022,-1.4118,-1.4298,-1.4022,-1.4118,-1.4196,-1.2926,-1.2436,-1.2242,-1.0956,-1.0565,-1.0565,-1.0467,-1.0369,-1.0173,-0.8905,-0.8513,-0.8117,-0.693,-0.6434,-0.6437,-0.6537,-0.6739,-0.6942,-0.7039,-0.7238,-0.7434,-0.7335,-0.7335,-0.7335,-0.7238,-0.7441,-0.7547,-0.7547,-0.7646,-0.7646,-0.7939,0.0,0.0,-0.7942,-0.8038,-0.8038,-0.8038,-0.8038,-0.7942,-0.7646,-0.7646,-0.7646,-0.7646,-0.7646,-0.7646,-0.7646,-0.7646,-0.7543,-0.7238,-0.7306,-0.7127,-0.6719,-0.6668,-0.645,-0.5888,-0.46,-0.4018,-0.3838,-0.2679,-0.2056,-0.17,-0.0805,-0.0091,0.0646,0.148,0.1853,0.2045,0.2558,0.2579,0.2397,0.293,0.3183,0.323,-1.3636,-1.3636,-1.3636,-1.3539,-1.401,-1.4388,-1.4388,-1.4478,-1.4573,-1.4573,-1.4106,-1.3823,-1.3823,-1.3732,-1.3732,-1.3823,-1.3732,-1.3829,-1.4388,-1.3919,-1.4016,-1.4771,-1.4949,-1.4956,-1.4771,-1.4484,-1.4202,-1.4022,-1.4202,-1.4298,-1.4298,-1.4298,-1.4298,-1.4298,-1.4298,-1.4298,-1.4298,-1.4022,-1.3931,-1.3919,-1.3039,-1.2743,-1.2732,-1.1551,-1.1156,-1.096,-0.9587,-0.9197,-0.9,-0.8209,-0.7915,-0.7816,-0.7325,-0.7129,-0.703,-0.6534,-0.6437,-0.6437,-0.6437,-0.6437,-0.6539,-0.6539,-0.6637,-0.6736,-0.6736,-0.6736,-0.6736,-0.6942,-0.7042,-0.7144,-0.7341,-0.7341,-0.7441,-0.7743,0.0,-0.7646,-0.7746,-0.7942,-0.7839,-0.7537,-0.7839,-0.7739,-0.7144,-0.7241,-0.7241,-0.7144,-0.7144,-0.7144,-0.7341,-0.7341,-0.7341,-0.7238,-0.7288,-0.7122,-0.694,-0.6745,-0.6142,-0.4979,-0.4387,-0.3256,-0.1697,-0.1251,-0.0626,0.0179,0.0537,0.081,0.109,0.1657,0.1944,0.2134,0.2366,0.2594,0.2818,0.2838,0.3078,0.323,-1.3346,-1.3346,-1.3346,-1.3249,-1.3346,-1.3346,-1.3346,-1.3443,-1.3539,-1.3539,-1.3539,-1.3539,-1.3539,-1.3443,-1.3443,-1.3443,-1.3443,-1.3346,-1.3346,-1.3346,-1.3539,-1.3835,-1.4118,-1.4118,-1.3931,-1.4118,-1.4118,-1.3931,-1.4208,-1.4298,-1.4298,-1.4298,-1.4298,-1.4298,-1.4298,-1.4298,-1.4208,-1.3925,-1.3636,-1.3238,-1.2252,-1.1755,-1.1361,-1.0177,-0.9784,-0.9587,-0.8212,-0.7723,-0.7624,-0.6734,-0.6437,-0.6437,-0.6437,-0.6437,-0.6437,-0.6437,-0.6437,-0.6437,-0.6437,-0.6437,-0.6437,-0.6437,-0.6437,-0.6437,-0.6437,-0.6437,-0.6437,-0.6742,-0.6845,-0.6842,-0.7138,-0.7138,-0.7141,-0.7543,-0.7447,-0.7344,-0.7444,-0.7543,-0.754,-0.7238,-0.7441,-0.7441,-0.6942,-0.7042,-0.7039,-0.6942,-0.6942,-0.7042,-0.7238,-0.7138,-0.6836,-0.6334,-0.6531,-0.6289,-0.5713,-0.6076,-0.5595,-0.4416,-0.3523,-0.2104,-0.0361,0.0,0.0627,0.1436,0.1436,0.1441,0.1542,0.184,0.2045,0.2248,0.2388,0.261,0.2825,0.2858,0.2983,0.3104,-1.3147,-1.3147,-1.305,-1.2861,-1.2953,-1.3147,-1.3147,-1.334,-1.3443,-1.3443,-1.3443,-1.3443,-1.3443,-1.3249,-1.3244,-1.3443,-1.3244,-1.3147,-1.3147,-1.3147,-1.3346,-1.3835,-1.3931,-1.3931,-1.3931,-1.3931,-1.3931,-1.3931,-1.4208,-1.4298,-1.4298,-1.4298,-1.4298,-1.4298,-1.4298,-1.4112,-1.3835,-1.3636,-1.2942,-1.1955,-1.1658,-1.1063,-1.0271,-0.8905,-0.8414,-0.8216,-0.683,-0.6437,-0.6437,-0.6437,-0.6437,-0.6437,-0.6437,-0.6437,-0.6437,-0.6437,-0.6437,-0.6437,-0.6437,-0.6437,-0.6437,-0.6437,-0.6437,-0.6437,-0.6437,-0.6437,-0.6437,-0.6742,-0.6845,-0.6842,-0.7138,-0.6942,-0.6945,-0.7547,-0.7144,-0.6842,-0.7138,-0.6942,-0.6942,-0.7138,-0.6942,-0.6942,-0.7138,-0.6942,-0.6942,-0.7138,-0.7238,-0.7238,-0.7138,-0.6942,-0.6037,-0.4429,-0.4922,-0.4416,-0.2814,-0.4341,-0.4791,-0.4204,-0.1881,-0.0554,-0.0277,0.0905,0.1436,0.1436,0.1436,0.1634,0.1851,0.1944,0.2062,0.2294,0.263,0.2619,0.2397,0.2987,0.2992,0.2853,-1.2958,-1.2861,-1.2861,-1.2764,-1.2861,-1.2861,-1.2861,-1.2958,-1.3055,-1.3055,-1.3055,-1.3055,-1.3055,-1.2958,-1.2958,-1.2958,-1.2958,-1.2861,-1.2861,-1.305,-1.3147,-1.3346,-1.3539,-1.3636,-1.3636,-1.3835,-1.3835,-1.3636,-1.4112,-1.4298,-1.4298,-1.4298,-1.4298,-1.4298,-1.4118,-1.3528,-1.2737,-1.2349,-1.1565,-1.0489,-0.9501,-0.8905,-0.8609,-0.7425,-0.703,-0.693,-0.6534,-0.6437,-0.6437,-0.6437,-0.6437,-0.6437,-0.6437,-0.6437,-0.6437,-0.6437,-0.6437,-0.6437,-0.6437,-0.6437,-0.6437,-0.6437,-0.6437,-0.6437,-0.6437,-0.6539,-0.6742,-0.6745,-0.6845,-0.6842,-0.6942,-0.6739,-0.6639,-0.6945,-0.6945,-0.6742,-0.6637,-0.6742,-0.6642,-0.6442,-0.6642,-0.6742,-0.6637,-0.6939,-0.6939,-0.6637,-0.6637,-0.6234,-0.5331,-0.5329,-0.4724,-0.3317,-0.3416,-0.3314,-0.2814,-0.3397,-0.3169,-0.215,-0.1161,-0.0285,0.0739,0.1195,0.1455,0.1436,0.1436,0.144,0.1541,0.184,0.1951,0.2059,0.2292,0.2514,0.2626,0.2623,0.2754,0.3099,-1.2764,-1.2764,-1.2764,-1.2764,-1.2764,-1.2764,-1.2764,-1.2764,-1.2764,-1.2764,-1.2764,-1.2764,-1.2764,-1.2764,-1.2764,-1.2764,-1.2764,-1.2764,-1.2764,-1.2953,-1.305,-1.3147,-1.3152,-1.3249,-1.3346,-1.3539,-1.3545,-1.3539,-1.3919,-1.4208,-1.4298,-1.3806,-1.3511,-1.3511,-1.2834,-1.215,-1.1365,-1.1072,-1.0288,-0.911,-0.8319,-0.7726,-0.7329,-0.6634,-0.6437,-0.6437,-0.6437,-0.6437,-0.6437,-0.6437,-0.6437,-0.6437,-0.6437,-0.6437,-0.6437,-0.6437,-0.6437,-0.6437,-0.6437,-0.6437,-0.6437,-0.6437,-0.6437,-0.6437,-0.6539,-0.6639,-0.6642,-0.6742,-0.6742,-0.6639,-0.6639,-0.6539,-0.6537,-0.6742,-0.6742,-0.6539,-0.6239,-0.6339,-0.6239,-0.6042,-0.6239,-0.6439,-0.6736,-0.6437,-0.5934,-0.5227,-0.5127,-0.4724,-0.3822,-0.3822,-0.3218,-0.1911,-0.181,-0.1609,-0.1107,-0.1308,-0.1301,-0.089,-0.0295,0.0483,0.131,0.1393,0.1464,0.1436,0.1436,0.1436,0.1437,0.1637,0.1746,0.1946,0.2064,0.229,0.2618,0.2512,0.2631,0.2865,-1.2764,-1.2764,-1.2764,-1.2764,-1.2764,-1.2764,-1.2764,-1.2764,-1.2764,-1.2764,-1.2764,-1.2764,-1.2764,-1.2764,-1.2764,-1.2764,-1.2764,-1.2764,-1.2764,-1.2662,-1.2759,-1.305,-1.2657,-1.2559,-1.2856,-1.305,-1.3147,-1.3346,-1.3636,-1.3823,-1.3902,-1.2727,-1.2139,-1.2042,-1.0858,-1.0181,-0.9899,-0.9801,-0.911,-0.7826,-0.7826,-0.7229,-0.6437,-0.6437,-0.6437,-0.6437,-0.6437,-0.6437,-0.6437,-0.6437,-0.6437,-0.6437,-0.6437,-0.6437,-0.6437,-0.6437,-0.6437,-0.6437,-0.6437,-0.6437,-0.6437,-0.6437,-0.6437,-0.6437,-0.6642,-0.6539,-0.6437,-0.6642,-0.6539,-0.6337,-0.6337,-0.6337,-0.6437,-0.6742,-0.6539,-0.6237,-0.6042,-0.5737,-0.5737,-0.5942,-0.5636,-0.5834,-0.6836,-0.5534,-0.4228,-0.3317,-0.3217,-0.3016,-0.2613,-0.2414,-0.1611,-0.0302,-0.0202,0.0404,0.1617,0.1314,0.0707,-0.0202,0.0694,0.1267,0.1433,0.1498,0.1468,0.1439,0.1436,0.1436,0.1436,0.1436,0.1543,0.1846,0.185,0.206,0.229,0.2624,0.2617,0.2404,-1.2764,-1.2764,-1.2764,-1.2565,-1.2467,-1.2467,-1.2467,-1.2467,-1.2565,-1.2764,-1.2764,-1.2764,-1.2764,-1.2764,-1.2764,-1.2764,-1.2764,-1.2764,-1.2764,-1.177,-1.1765,-1.2861,-1.0779,-1.0186,-1.1272,-1.2457,-1.2748,-1.2052,-1.2252,-1.2047,-1.1249,-1.076,-1.0565,-1.076,-1.0075,-0.9395,-0.8711,-0.8517,-0.7822,-0.6734,-0.6734,-0.6634,-0.6437,-0.6437,-0.6437,-0.6437,-0.6437,-0.6437,-0.6437,-0.6437,-0.6437,-0.6437,-0.6437,-0.6437,-0.6437,-0.6437,-0.6437,-0.6437,-0.6437,-0.6437,-0.6437,-0.6642,-0.6442,-0.6142,-0.6142,-0.6442,-0.6539,-0.5937,-0.5939,-0.6042,-0.6042,-0.5937,-0.5937,-0.6437,-0.6239,-0.6039,-0.5737,-0.5636,-0.5636,-0.5636,-0.4732,-0.4329,-0.4931,-0.3723,-0.312,-0.3519,-0.2918,-0.2214,-0.1309,-0.1007,-0.0202,0.1111,0.1212,0.1313,0.1617,0.1516,0.1313,0.0808,0.1107,0.1193,0.1268,0.1435,0.15,0.147,0.1446,0.1436,0.1436,0.1436,0.1439,0.1538,0.1839,0.1949,0.2055,0.2287,0.2512,0.2837,-1.2662,-1.2165,-1.197,-1.217,-1.1775,-1.1678,-1.2273,-1.237,-1.2467,-1.2565,-1.257,-1.2565,-1.2467,-1.197,-1.1673,-1.1868,-1.1277,-1.1175,-1.177,-1.0583,-1.0186,-1.0881,-0.9596,-0.9099,-0.9792,-1.0681,-1.0877,-1.0476,-1.0574,-1.0471,-0.9968,-0.9186,-0.8894,-0.8989,-0.8107,-0.7419,-0.7027,-0.6927,-0.6634,-0.6239,-0.6239,-0.6237,-0.6437,-0.6437,-0.6437,-0.6437,-0.6437,-0.6437,-0.6437,-0.6437,-0.6437,-0.6437,-0.6437,-0.6437,-0.6437,-0.6437,-0.6437,-0.6437,-0.6437,-0.6437,-0.6437,-0.6442,-0.6342,-0.6239,-0.6342,-0.6342,-0.6139,-0.5839,-0.5939,-0.5942,-0.5839,-0.5839,-0.5839,-0.6139,-0.6042,-0.5939,-0.5636,-0.5636,-0.5334,-0.4732,-0.4029,-0.3325,-0.2718,-0.2315,-0.1812,-0.1309,-0.1008,-0.0504,0.0303,0.0504,0.0908,0.1617,0.1617,0.1617,0.1617,0.1617,0.1516,0.1415,0.1415,0.14,0.1374,0.1444,0.1509,0.1479,0.1448,0.1436,0.1436,0.1436,0.1436,0.1437,0.1634,0.1743,0.1946,0.2062,0.2394,0.2845,-1.237,-1.1477,-1.0886,-1.158,-1.0886,-1.0685,-1.1775,-1.1975,-1.1975,-1.2073,-1.1873,-1.1678,-1.1482,-1.0685,-1.019,-1.0485,-0.9399,-0.93,-1.0386,-0.9201,-0.8609,-0.8806,-0.8411,-0.8209,-0.8411,-0.8209,-0.8407,-0.8901,-0.8901,-0.8894,-0.8882,-0.7707,-0.722,-0.722,-0.6032,-0.5536,-0.5636,-0.5636,-0.5737,-0.5942,-0.5942,-0.6139,-0.6337,-0.6337,-0.6337,-0.6437,-0.6437,-0.6437,-0.6437,-0.6437,-0.6437,-0.6437,-0.6437,-0.6437,-0.6437,-0.6337,-0.6337,-0.6337,-0.6337,-0.6337,-0.6237,-0.6139,-0.6139,-0.6237,-0.6542,-0.6139,-0.5737,-0.5842,-0.5942,-0.5839,-0.5636,-0.5739,-0.5942,-0.5942,-0.5942,-0.5839,-0.5334,-0.5334,-0.483,-0.3527,-0.3123,-0.2417,-0.0605,-0.0806,-0.0403,0.101,0.101,0.1111,0.1516,0.1617,0.1617,0.1617,0.1617,0.1617,0.1617,0.1617,0.1617,0.1617,0.1617,0.1604,0.1578,0.1548,0.1517,0.1487,0.1456,0.144,0.1436,0.1436,0.1436,0.1436,0.1436,0.1541,0.1843,0.1849,0.2273,0.2825,-1.2073,-1.1184,-1.0391,-1.0293,-1.0194,-1.0096,-1.0297,-1.0293,-1.0391,-1.0685,-0.9895,-0.93,-0.9201,-0.9103,-0.9004,-0.9103,-0.8905,-0.8901,-0.9103,-0.7819,-0.7621,-0.8707,-0.6623,-0.5929,-0.7027,-0.5932,-0.6029,-0.7518,-0.7518,-0.7024,-0.6129,-0.5734,-0.5636,-0.5834,-0.5438,-0.5338,-0.5636,-0.5636,-0.5636,-0.5636,-0.5636,-0.5837,-0.6042,-0.6042,-0.6239,-0.6437,-0.6437,-0.6437,-0.6437,-0.6437,-0.6437,-0.6437,-0.6437,-0.6437,-0.6337,-0.6139,-0.6042,-0.6042,-0.6042,-0.5839,-0.5834,-0.6237,-0.5839,-0.5441,-0.5737,-0.5839,-0.5842,-0.5441,-0.5539,-0.5636,-0.5636,-0.5438,-0.5441,-0.5942,-0.5839,-0.5334,-0.4327,-0.4227,-0.3721,-0.2415,-0.141,-0.0403,0.0808,0.1111,0.1111,0.0909,0.1212,0.1415,0.1313,0.1516,0.1617,0.1617,0.1617,0.1617,0.1617,0.1617,0.1617,0.1617,0.1617,0.1615,0.1609,0.1579,0.1549,0.1518,0.1487,0.1459,0.1436,0.1436,0.1436,0.1436,0.1436,0.1438,0.1535,0.1838,0.2347,0.3161,-1.089,-0.9501,-0.8513,-0.881,-0.8418,-0.8216,-0.9008,-0.9106,-0.9106,-0.9304,-0.8905,-0.8513,-0.8414,-0.7819,-0.7521,-0.7621,-0.7024,-0.6921,-0.7621,-0.6429,-0.5929,-0.6526,-0.5432,-0.5033,-0.5632,-0.5133,-0.5133,-0.5829,-0.5829,-0.5632,-0.5135,-0.5037,-0.5035,-0.5135,-0.5037,-0.5035,-0.5135,-0.5135,-0.5236,-0.5338,-0.5338,-0.5539,-0.5739,-0.5739,-0.5837,-0.5937,-0.6139,-0.6039,-0.6037,-0.6337,-0.6234,-0.5937,-0.6139,-0.6039,-0.5937,-0.5837,-0.5839,-0.5942,-0.5839,-0.5839,-0.5839,-0.5739,-0.5441,-0.524,-0.5135,-0.5236,-0.5338,-0.524,-0.534,-0.5338,-0.5338,-0.524,-0.5039,-0.4734,-0.4531,-0.4128,-0.3019,-0.2918,-0.2414,-0.1007,0.0101,0.0908,0.1415,0.1415,0.1314,0.1212,0.1314,0.1415,0.1415,0.1516,0.1617,0.1617,0.1617,0.1617,0.1617,0.1617,0.1617,0.1617,0.1617,0.1617,0.1615,0.1585,0.1555,0.1524,0.1494,0.1463,0.1436,0.1436,0.1436,0.1436,0.1436,0.1525,0.1709,0.2568,0.3066,0.3566]},{"header":{"parameterUnit":"m.s-1","parameterCategory":1,"la1":30.6,"la2":28.766,"lo1":-90.7593,"lo2":-88.6598,"dy":0.0162,"dx":0.0183,"nx":116,"ny":114,"refTime":"2023-05-23T12:00:00:Z","depth":0,"parameterNumber":3,"parameterNumberName":"V-component_of_WINDS"},"data":[0.0,0.0,0.0,0.0,0.0,0.0,0.0,0.0,0.0,0.0,0.0,0.0,0.0,0.0,0.0,0.0,0.0,0.0,0.0,0.0,0.0,0.0,0.0,0.0,0.0,0.0,0.0,0.0,0.0,0.0,0.0,0.0,0.0,0.0,0.0,0.0,0.0,0.0,0.0,0.0,0.0,0.0,0.0,0.0,0.0,0.0,0.0,0.0,0.0,0.0,0.0,0.0,0.0,0.0,0.0,0.0,0.0,0.0,0.0,0.0,0.0,0.0,0.0,0.0,0.0,0.0,0.0,0.0,0.0,0.0,0.0,0.0,0.0,0.0,0.0,0.0,0.0,0.0,0.0,0.0,0.0,0.0,0.0,0.0,0.0,0.0,0.0,0.0,0.0,0.0,0.0,0.0,0.0,0.0,0.0,0.0,0.0,0.0,0.0,0.0,0.0,0.0,0.0,0.0,0.0,0.0,0.0,0.0,0.0,0.0,0.0,0.0,0.0,0.0,0.0,0.0,0.0,0.0,0.0,0.0,0.0,0.0,0.0,0.0,0.0,0.0,0.0,0.0,0.0,0.0,0.0,0.0,0.0,0.0,0.0,0.0,0.0,0.0,0.0,0.0,0.0,0.0,0.0,0.0,0.0,0.0,0.0,0.0,0.0,0.0,0.0,0.0,0.0,0.0,0.0,0.0,0.0,0.0,0.0,0.0,0.0,0.0,0.0,0.0,0.0,0.0,0.0,0.0,0.0,0.0,0.0,0.0,0.0,0.0,0.0,0.0,0.0,0.0,0.0,0.0,0.0,0.0,0.0,0.0,0.0,0.0,0.0,0.0,0.0,0.0,0.0,0.0,0.0,0.0,0.0,0.0,0.0,0.0,0.0,0.0,0.0,0.0,0.0,0.0,0.0,0.0,0.0,0.0,0.0,0.0,0.0,0.0,0.0,0.0,0.0,0.0,0.0,0.0,0.0,0.0,0.0,0.0,0.0,0.0,0.0,0.0,0.0,0.0,0.0,0.0,0.0,0.0,0.0,0.0,0.0,0.0,0.0,0.0,0.0,0.0,0.0,0.0,0.0,0.0,0.0,0.0,0.0,0.0,0.0,0.0,0.0,0.0,0.0,0.0,0.0,0.0,0.0,0.0,0.0,0.0,0.0,0.0,0.0,0.0,0.0,0.0,0.0,0.0,0.0,0.0,0.0,0.0,0.0,0.0,0.0,0.0,0.0,0.0,0.0,0.0,0.0,0.0,0.0,0.0,0.0,0.0,0.0,0.0,0.0,0.0,0.0,0.0,0.0,0.0,0.0,0.0,0.0,0.0,0.0,0.0,0.0,0.0,0.0,0.0,0.0,0.0,0.0,0.0,0.0,0.0,0.0,0.0,0.0,0.0,0.0,0.0,0.0,0.0,0.0,0.0,0.0,0.0,0.0,0.0,0.0,0.0,0.0,0.0,0.0,0.0,0.0,0.0,0.0,0.0,0.0,0.0,0.0,0.0,0.0,0.0,0.0,0.0,0.0,0.0,0.0,0.0,0.0,0.0,0.0,0.0,0.0,0.0,0.0,0.0,0.0,0.0,0.0,0.0,0.0,0.0,0.0,0.0,0.0,0.0,0.0,0.0,0.0,0.0,0.0,0.0,0.0,0.0,0.0,0.0,0.0,0.0,0.0,0.0,0.0,0.0,0.0,0.0,0.0,0.0,0.0,0.0,0.0,0.0,0.0,0.0,0.0,0.0,0.0,0.0,0.0,0.0,0.0,0.0,0.0,0.0,0.0,0.0,0.0,0.0,0.0,0.0,0.0,0.0,0.0,0.0,0.0,0.0,0.0,0.0,0.0,0.0,0.0,0.0,0.0,0.0,0.0,0.0,0.0,0.0,0.0,0.0,0.0,0.0,0.0,0.0,0.0,0.0,0.0,0.0,0.0,0.0,0.0,0.0,0.0,0.0,0.0,0.0,0.0,0.0,0.0,0.0,0.0,0.0,0.0,0.0,0.0,0.0,0.0,0.0,0.0,0.0,0.0,0.0,0.0,0.0,0.0,0.0,0.0,0.0,0.0,0.0,0.0,0.0,0.0,0.0,0.0,0.0,0.0,0.0,0.0,0.0,0.0,0.0,0.0,0.0,0.0,0.0,0.0,0.0,0.0,0.0,0.0,0.0,0.0,0.0,0.0,0.0,0.0,0.0,0.0,0.0,0.0,0.0,0.0,0.0,0.0,0.0,0.0,0.0,0.0,0.0,0.0,0.0,0.0,0.0,0.0,0.0,0.0,0.0,0.0,0.0,0.0,0.0,0.0,0.0,0.0,0.0,0.0,0.0,0.0,0.0,0.0,0.0,0.0,0.0,0.0,0.0,0.0,0.0,0.0,0.0,0.0,0.0,0.0,0.0,0.0,0.0,0.0,0.0,0.0,0.0,0.0,0.0,0.0,0.0,0.0,0.0,0.0,0.0,0.0,0.0,0.0,0.0,0.0,0.0,0.0,0.0,0.0,0.0,0.0,0.0,0.0,0.0,0.0,0.0,0.0,0.0,0.0,0.0,0.0,0.0,0.0,0.0,0.0,0.0,0.0,0.0,0.0,0.0,0.0,0.0,0.0,0.0,0.0,0.0,0.0,0.0,0.0,0.0,0.0,0.0,0.0,0.0,0.0,0.0,0.0,0.0,0.0,0.0,0.0,0.0,0.0,0.0,0.0,0.0,0.0,0.0,0.0,0.0,0.0,0.0,0.0,0.0,0.0,0.0,0.0,0.0,0.0,0.0,0.0,0.0,0.0,0.0,0.0,0.0,0.0,0.0,0.0,0.0,0.0,0.0,0.0,0.0,0.0,0.0,0.0,0.0,0.0,0.0,0.0,0.0,0.0,0.0,0.0,0.0,0.0,0.0,0.0,0.0,0.0,0.0,0.0,0.0,0.0,0.0,0.0,0.0,0.0,0.0,0.0,0.0,0.0,0.0,0.0,0.0,0.0,0.0,0.0,0.0,0.0,0.0,0.0,0.0,0.0,0.0,0.0,0.0,0.0,0.0,0.0,0.0,0.0,0.0,0.0,0.0,0.0,0.0,0.0,0.0,0.0,0.0,0.0,0.0,0.0,0.0,0.0,0.0,0.0,0.0,0.0,0.0,0.0,0.0,0.0,0.0,0.0,0.0,0.0,0.0,0.0,0.0,0.0,0.0,0.0,0.0,0.0,0.0,0.0,0.0,0.0,0.0,0.0,0.0,0.0,0.0,0.0,0.0,0.0,0.0,0.0,0.0,0.0,0.0,0.0,0.0,0.0,0.0,0.0,0.0,0.0,0.0,0.0,0.0,0.0,0.0,0.0,0.0,0.0,0.0,0.0,0.0,0.0,0.0,0.0,0.0,0.0,0.0,0.0,0.0,0.0,0.0,0.0,0.0,0.0,0.0,0.0,0.0,0.0,0.0,0.0,0.0,0.0,0.0,0.0,0.0,0.0,0.0,0.0,0.0,0.0,0.0,0.0,0.0,0.0,0.0,0.0,0.0,0.0,0.0,0.0,0.0,0.0,0.0,0.0,0.0,0.0,0.0,0.0,0.0,0.0,0.0,0.0,0.0,0.0,0.0,0.0,0.0,0.0,0.0,0.0,0.0,0.0,0.0,0.0,0.0,0.0,0.0,0.0,0.0,0.0,0.0,0.0,0.0,0.0,0.0,0.0,0.0,0.0,0.0,0.0,0.0,0.0,0.0,0.0,0.0,0.0,0.0,0.0,0.0,0.0,0.0,0.0,0.0,0.0,0.0,0.0,0.0,0.0,0.0,0.0,0.0,0.0,0.0,0.0,0.0,0.0,0.0,0.0,0.0,0.0,0.0,0.0,0.0,0.0,0.0,0.0,0.0,0.0,0.0,0.0,0.0,0.0,0.0,0.0,0.0,0.0,0.0,0.0,0.0,0.0,0.0,0.0,0.0,0.0,0.0,0.0,0.0,0.0,0.0,0.0,0.0,0.0,0.0,0.0,0.0,0.0,0.0,0.0,0.0,0.0,0.0,0.0,0.0,0.0,0.0,0.0,0.0,0.0,0.0,0.0,0.0,0.0,0.0,0.0,0.0,0.0,0.0,0.0,0.0,0.0,0.0,0.0,0.0,0.0,0.0,0.0,0.0,0.0,0.0,0.0,0.0,0.0,0.0,0.0,0.0,0.0,0.0,0.0,0.0,0.0,0.0,0.0,0.0,0.0,0.0,0.0,0.0,0.0,0.0,0.0,0.0,0.0,0.0,0.0,0.0,0.0,0.0,0.0,0.0,0.0,0.0,0.0,0.0,0.0,0.0,0.0,0.0,0.0,0.0,0.0,0.0,0.0,0.0,0.0,0.0,0.0,0.0,0.0,0.0,0.0,0.0,0.0,0.0,0.0,0.0,0.0,0.0,0.0,0.0,0.0,0.0,0.0,0.0,0.0,0.0,0.0,0.0,0.0,0.0,0.0,0.0,0.0,0.0,0.0,0.0,0.0,0.0,0.0,0.0,0.0,0.0,0.0,0.0,0.0,0.0,0.0,0.0,0.0,0.0,0.0,0.0,0.0,0.0,0.0,0.0,0.0,0.0,0.0,0.0,0.0,0.0,0.0,0.0,0.0,0.0,0.0,0.0,0.0,0.0,0.0,0.0,0.0,0.0,0.0,0.0,0.0,0.0,0.0,0.0,0.0,0.0,0.0,0.0,0.0,0.0,0.0,0.0,0.0,0.0,0.0,0.0,0.0,0.0,0.0,0.0,0.0,0.0,0.0,0.0,0.0,0.0,0.0,0.0,0.0,0.0,0.0,0.0,0.0,0.0,0.0,0.0,0.0,0.0,0.0,0.0,0.0,0.0,0.0,0.0,0.0,0.0,0.0,0.0,0.0,0.0,0.0,0.0,0.0,0.0,0.0,0.0,0.0,0.0,0.0,0.0,0.0,0.0,0.0,0.0,0.0,0.0,0.0,0.0,0.0,0.0,0.0,0.0,0.0,0.0,0.0,0.0,0.0,0.0,0.0,0.0,0.0,0.0,0.0,0.0,0.0,0.0,0.0,0.0,0.0,0.0,0.0,0.0,0.0,0.0,0.0,0.0,0.0,0.0,0.0,0.0,0.0,0.0,0.0,0.0,0.0,0.0,0.0,0.0,0.0,0.0,0.0,0.0,0.0,0.0,0.0,0.0,0.0,0.0,0.0,0.0,0.0,0.0,0.0,0.0,0.0,0.0,0.0,0.0,0.0,0.0,0.0,0.0,0.0,0.0,0.0,0.0,0.0,0.0,0.0,0.0,0.0,0.0,0.0,0.0,0.0,0.0,0.0,0.0,0.0,0.0,0.0,0.0,0.0,0.0,0.0,0.0,0.0,0.0,0.0,0.0,0.0,0.0,0.0,0.0,0.0,0.0,0.0,0.0,0.0,0.0,0.0,0.0,0.0,0.0,0.0,0.0,0.0,0.0,0.0,0.0,0.0,0.0,0.0,0.0,0.0,0.0,0.0,0.0,0.0,0.0,0.0,0.0,0.0,0.0,0.0,0.0,0.0,0.0,0.0,0.0,0.0,0.0,0.0,0.0,0.0,0.0,0.0,0.0,0.0,0.0,0.0,0.0,0.0,0.0,0.0,0.0,0.0,0.0,0.0,0.0,0.0,0.0,0.0,0.0,0.0,0.0,0.0,0.0,0.0,0.0,0.0,0.0,0.0,0.0,0.0,0.0,0.0,0.0,0.0,0.0,0.0,0.0,0.0,0.0,0.0,0.0,0.0,0.0,0.0,0.0,0.0,0.0,0.0,0.0,0.0,0.0,0.0,0.0,0.0,0.0,0.0,0.0,0.0,0.0,0.0,0.0,0.0,0.0,0.0,0.0,0.0,0.0,0.0,0.0,0.0,0.0,0.0,0.0,0.0,0.0,0.0,0.0,0.0,0.0,0.0,0.0,0.0,0.0,0.0,0.0,0.0,0.0,0.0,0.0,0.0,0.0,0.0,0.0,0.0,0.0,0.0,0.0,0.0,0.0,0.0,0.0,0.0,0.0,0.0,0.0,0.0,0.0,0.0,0.0,0.0,0.0,0.0,0.0,0.0,0.0,0.0,0.0,0.0,0.0,0.0,0.0,0.0,0.0,0.0,0.0,-0.5269,0.0,0.0,0.0,0.0,0.0,0.0,0.0,0.0,0.0,0.0,0.0,0.0,0.0,0.0,0.0,0.0,0.0,0.0,0.0,0.0,0.0,0.0,0.0,0.0,0.0,0.0,0.0,0.0,0.0,0.0,0.0,0.0,0.0,0.0,0.0,0.0,0.0,0.0,0.0,2.2884,2.3078,2.3078,2.3078,2.393,2.5398,0.0,0.0,0.0,0.0,0.0,0.0,0.0,0.0,0.0,0.0,0.0,0.0,0.0,0.0,0.0,0.0,0.0,0.0,0.0,0.0,0.0,0.0,0.0,0.0,0.0,0.0,0.0,0.0,0.0,0.0,0.0,0.0,0.0,0.0,0.0,0.0,0.0,0.0,0.0,0.0,0.0,0.0,0.0,0.0,0.0,0.0,0.0,0.0,0.0,0.0,0.0,0.0,0.0,0.0,0.0,0.0,0.0,0.0,0.0,0.0,0.0,0.0,0.0,0.0,0.0,0.0,0.0,0.0,0.0,0.0,0.0,-0.7331,0.0,0.0,0.0,0.0,0.0,0.0,0.0,0.0,0.0,0.0,0.0,0.0,0.0,0.0,0.0,0.0,0.0,0.0,0.0,0.0,0.0,0.0,0.0,0.0,2.3065,2.2884,2.2884,0.0,0.0,0.0,0.0,0.0,0.0,0.0,0.0,2.1632,2.2088,2.2414,2.3108,2.3427,2.3427,2.3487,2.4177,2.5438,2.5384,0.0,0.0,0.0,0.0,0.0,0.0,0.0,0.0,0.0,0.0,0.0,0.0,0.0,0.0,0.0,0.0,0.0,0.0,0.0,0.0,0.0,0.0,0.0,0.0,0.0,0.0,0.0,0.0,0.0,0.0,0.0,0.0,0.0,0.0,0.0,0.0,0.0,0.0,0.0,0.0,0.0,0.0,0.0,0.0,0.0,0.0,0.0,0.0,0.0,0.0,0.0,0.0,0.0,0.0,0.0,0.0,0.0,0.0,0.0,0.0,0.0,0.0,0.0,-0.6662,-0.7618,-0.7647,-0.9703,-1.016,-0.9412,-1.0621,-1.0598,-0.9585,-0.8516,0.0,0.0,0.0,0.0,0.0,0.0,0.0,0.0,0.0,0.0,0.0,0.0,0.0,0.0,0.0,0.0,0.0,0.0,0.0,0.0,0.0,2.3078,2.2823,2.2137,2.2063,2.1428,0.0,0.0,0.0,0.0,0.0,0.0,0.0,2.2398,2.2811,2.4402,2.4709,2.4836,2.4836,2.495,2.5227,2.5594,2.5464,2.5892,2.6864,0.0,0.0,0.0,0.0,0.0,0.0,0.0,0.0,0.0,0.0,0.0,0.0,0.0,0.0,0.0,0.0,0.0,0.0,0.0,0.0,0.0,0.0,0.0,0.0,0.0,0.0,0.0,0.0,0.0,0.0,0.0,0.0,0.0,0.0,0.0,0.0,0.0,0.0,0.0,0.0,0.0,1.2276,1.1411,0.0,0.0,0.0,0.0,0.0,0.0,0.0,0.0,0.0,0.0,0.0,0.0,0.0,-0.0546,-0.1566,-0.3673,-0.4737,-0.4916,-0.6118,-0.6753,-0.6884,-0.8896,-0.9697,-0.9697,-1.172,0.0,-1.0833,-0.9891,0.0,0.0,0.0,0.0,0.0,0.0,0.0,0.0,0.0,0.0,0.0,0.0,0.0,0.0,0.0,0.0,0.0,0.0,0.0,0.0,0.0,2.3078,2.2944,2.2628,2.239,2.1911,2.1124,0.0,0.0,0.0,0.0,2.0329,2.1086,2.1702,2.2998,2.5,2.5065,2.5116,2.5243,2.5294,2.5342,2.5441,2.6226,2.6581,2.6707,2.8591,0.0,0.0,0.0,0.0,0.0,0.0,0.0,0.0,0.0,0.0,0.0,0.0,0.0,0.0,0.0,0.0,0.0,0.0,0.0,0.0,0.0,0.0,0.0,0.0,0.0,0.0,0.0,0.0,0.0,0.0,0.0,0.0,0.0,0.0,0.0,0.0,0.0,0.0,0.0,1.3605,1.2311,1.106,1.1449,1.1219,0.0,0.0,0.0,0.0,0.0,0.0,0.0,0.0,0.0,0.0717,-0.0319,-0.1364,-0.2441,-0.3332,-0.4166,-0.4871,-0.5363,-0.5891,-0.6536,-0.7996,-0.8638,-0.8719,-1.0267,-1.0858,-1.0638,-1.0748,-1.0834,-1.0842,0.0,0.0,0.0,0.0,-0.6261,-0.536,0.0,0.0,0.0,0.0,0.0,0.0,0.0,0.0,0.0,0.0,0.0,0.0,2.2823,2.3081,2.3156,2.2764,2.2735,2.2698,2.2491,2.1683,0.0,0.0,0.0,2.0886,2.1163,2.2486,2.3803,2.5131,2.5262,2.547,2.5794,2.5588,2.5576,2.5703,2.7053,2.7513,2.7249,2.8966,2.9899,3.0401,0.0,0.0,0.0,0.0,0.0,0.0,0.0,0.0,0.0,0.0,0.0,0.0,0.0,0.0,0.0,0.0,0.0,0.0,0.0,0.0,0.0,0.0,0.0,0.0,0.0,0.0,0.0,0.0,0.0,0.0,0.0,0.0,0.0,0.0,0.0,0.0,0.0,1.2989,1.2103,1.0914,1.1242,1.095,0.0,0.0,0.0,0.0,0.0,0.0,0.3895,0.247,0.1125,0.0,-0.1063,-0.1979,-0.268,-0.2931,-0.3528,-0.448,-0.4732,-0.5254,-0.6051,-0.7297,-0.7875,-0.7959,-0.9032,-0.9702,-1.009,-1.0953,-1.1386,-1.1362,-1.0537,-0.9542,-0.8546,-0.8463,-0.7724,-0.6729,0.0,0.0,0.0,0.0,0.0,0.0,0.0,0.0,0.0,0.0,0.0,2.2823,2.2063,2.317,2.334,2.1908,2.2803,2.3176,2.2524,2.2682,2.3176,2.4068,2.4495,2.5145,2.6146,2.6352,2.6052,2.532,2.5599,2.6246,2.7191,2.6395,2.6253,2.6686,2.7879,2.8408,2.851,2.9775,3.1193,3.2587,3.3081,0.0,0.0,0.0,0.0,0.0,0.0,0.0,0.0,0.0,0.0,0.0,0.0,0.0,0.0,0.0,0.0,0.0,0.0,0.0,0.0,0.0,0.0,0.0,0.0,0.0,0.0,0.0,0.0,0.0,0.0,0.0,0.0,0.0,0.0,0.0,0.0,0.0,0.0,1.0783,0.997,0.0,0.0,0.0,0.0,0.6251,0.5239,0.3832,0.1836,0.1671,0.1088,0.0,-0.1006,-0.1591,-0.1676,-0.2596,-0.3217,-0.3371,-0.4323,-0.4891,-0.5159,-0.6923,-0.7807,-0.7895,-0.91,-0.962,-0.9702,-1.01,-1.0388,-1.0661,-1.0408,-0.9721,-0.886,-0.8603,-0.7731,-0.6773,0.0,0.0,0.0,0.0,0.0,0.0,0.0,0.0,0.0,2.3185,2.3078,2.3155,2.3257,2.3779,2.4092,2.3907,2.3479,2.3087,2.2867,2.1975,2.1871,2.2798,2.2974,2.3806,2.5511,2.5709,2.5697,2.5475,2.5685,2.6045,2.6552,2.6264,2.6506,2.7288,2.8699,2.9602,3.0041,3.0779,3.1593,3.2469,3.3571,3.4507,0.0,0.0,0.0,0.0,0.0,0.0,0.0,0.0,0.0,0.0,0.0,0.0,0.0,0.0,0.0,0.0,0.0,0.0,0.0,0.0,0.0,0.0,0.0,0.0,0.0,0.0,0.0,0.0,0.0,0.0,0.0,0.0,0.0,0.0,0.0,0.0,0.0,0.9895,0.9566,0.0,0.8494,0.822,0.7596,0.66,0.5533,0.4314,0.2763,0.2095,0.1183,0.0,-0.0344,-0.0605,-0.0614,-0.0965,-0.1407,-0.2122,-0.2475,-0.3282,-0.4554,-0.5265,-0.5977,-0.6697,-0.7129,-0.739,-0.7559,-0.7676,-0.8723,-1.0163,-1.0082,-0.9392,-0.8448,-0.836,-0.7573,-0.6523,0.0,0.0,0.0,0.0,0.0,0.0,0.0,0.0,2.31,2.3125,2.3045,2.3108,2.349,2.4293,2.4721,2.455,2.4091,2.3815,2.3886,2.2761,2.2489,2.3503,2.3503,2.4169,2.5569,2.5779,2.5988,2.6195,2.5975,2.6114,2.6539,2.6264,2.6744,2.796,2.9268,3.0303,3.1225,3.2162,3.28,3.3288,3.4397,3.5347,3.6102,0.0,0.0,0.0,0.0,0.0,0.0,0.0,0.0,0.0,0.0,0.0,0.0,0.0,0.0,0.0,0.0,0.0,0.0,0.0,0.0,0.0,0.0,0.0,0.0,0.0,0.0,0.0,0.0,0.0,0.0,0.0,0.0,0.0,0.0,0.0,1.0644,1.0126,0.9483,0.8772,0.8142,0.7853,0.7289,0.626,0.5499,0.4582,0.3423,0.2399,0.1469,0.0615,0.0176,0.0,0.009,0.018,-0.0179,-0.0716,-0.0984,-0.2056,-0.3662,-0.402,-0.4825,-0.5997,-0.5997,-0.6083,-0.6169,-0.6169,-0.7041,-0.8515,-0.9039,-0.8782,-0.8181,-0.8093,-0.7305,-0.6254,0.0,0.0,0.0,0.0,0.0,0.0,0.0,2.3598,2.305,2.3065,2.2921,2.275,2.275,2.462,2.5264,2.3758,2.4625,2.5334,2.5557,2.5217,2.537,2.6383,2.6465,2.6589,2.6714,2.6875,2.7079,2.7268,2.6483,2.6539,2.7456,2.6539,2.7124,2.8867,2.9518,3.0601,3.1936,3.3826,3.4834,3.5196,3.5584,3.6384,3.7307,0.0,0.0,0.0,0.0,0.0,0.0,0.0,0.0,0.0,0.0,0.0,0.0,0.0,0.0,0.0,0.0,0.0,0.0,0.0,0.0,0.0,0.0,0.0,0.0,0.0,0.0,0.0,0.0,0.0,0.0,0.0,0.0,0.0,1.4223,1.2337,1.1126,1.1375,0.9548,0.8172,0.8172,0.7281,0.6263,0.5271,0.519,0.4715,0.3744,0.2592,0.1879,0.179,0.0718,0.018,0.0448,0.0448,0.0538,0.0718,-0.0179,-0.1252,-0.2502,-0.3393,-0.4469,-0.5644,-0.5644,-0.5733,-0.5733,-0.5644,-0.5644,-0.5822,-0.7221,-0.7921,-0.8093,-0.783,-0.7048,-0.6083,0.0,0.0,0.0,0.0,0.0,0.0,0.0,2.3996,2.3577,2.3128,2.3791,2.4248,2.4248,2.4698,2.5253,2.5741,2.4968,2.4684,2.5334,2.4469,2.4337,2.537,2.622,2.6658,2.6714,2.7066,2.6918,2.6183,2.6114,2.6264,2.6471,2.6803,2.7604,2.8853,3.0225,3.1287,3.2222,3.3991,3.5429,3.6523,3.6916,3.7551,3.8204,0.0,0.0,0.0,0.0,0.0,0.0,0.0,0.0,0.0,0.0,0.0,0.0,0.0,0.0,0.0,0.0,0.0,0.0,0.0,0.0,0.0,0.0,0.0,0.0,0.0,0.0,0.0,0.0,0.0,0.0,0.0,0.0,1.4292,1.3557,1.2315,1.093,0.9447,0.8857,0.8199,0.7366,0.7128,0.686,0.6546,0.6546,0.6031,0.4999,0.4554,0.3664,0.2059,0.1702,0.1255,0.0628,0.0628,0.0718,0.0987,0.0717,0.009,-0.0983,-0.2144,-0.3215,-0.4467,-0.5191,-0.5463,-0.5463,-0.528,-0.5191,-0.528,-0.5991,-0.6346,-0.6346,-0.6349,-0.6083,-0.5641,0.0,0.0,0.0,0.0,0.0,0.0,0.0,2.359,2.3393,2.314,2.3976,2.4641,2.4781,2.5353,2.5779,2.6126,2.4898,2.4469,2.5276,2.4981,2.5052,2.5652,2.6358,2.6782,2.693,2.7201,2.704,2.6526,2.6607,2.6867,2.7258,2.7683,2.8579,2.986,3.1071,3.2222,3.3374,3.4906,3.6317,3.7631,3.8268,3.8823,3.9174,3.8713,3.8246,3.7536,3.5435,3.3886,3.2474,3.0067,0.0,0.0,0.0,0.0,0.0,0.0,0.0,0.0,0.0,0.0,0.0,0.0,0.0,0.0,0.0,0.0,0.0,0.0,0.0,0.0,0.0,0.0,0.0,0.0,1.4966,1.4188,1.3601,1.2525,1.1356,1.0206,0.9329,0.8472,0.7793,0.7351,0.7139,0.7139,0.7139,0.6782,0.616,0.5625,0.4823,0.3486,0.2594,0.188,0.1434,0.1076,0.0987,0.1256,0.1256,0.0627,-0.0447,-0.1073,-0.2054,-0.3213,-0.4202,-0.4652,-0.4654,-0.4919,-0.501,0.0,0.0,0.0,0.0,0.0,-0.5193,-0.4743,0.0,0.0,0.0,0.0,0.0,0.0,0.0,2.3082,2.2989,2.3092,2.3937,2.4621,2.4753,2.6013,2.6452,2.5523,2.4684,2.4601,2.537,2.6094,2.6589,2.6714,2.6714,2.6918,2.7268,2.7335,2.7403,2.7523,2.759,2.8039,2.8803,2.898,2.986,3.1332,3.2072,3.3374,3.5002,3.6162,3.7362,3.8559,3.9456,3.995,4.0052,3.9574,3.9,3.8161,3.5837,3.4164,3.2798,3.1148,0.0,0.0,0.0,0.0,0.0,0.0,0.0,0.0,0.0,0.0,0.0,0.0,0.0,0.0,0.0,0.0,0.0,0.0,0.0,0.0,0.0,0.0,0.0,0.0,1.4559,1.4088,1.4088,1.2996,1.2159,1.2298,1.0438,0.9065,0.889,0.7841,0.7139,0.7139,0.7139,0.7139,0.7139,0.0,0.0,0.0,0.0,0.2506,0.2508,0.1703,0.1345,0.1436,0.1436,0.0806,-0.0179,-0.0358,-0.0983,-0.1965,-0.295,-0.34,-0.3489,-0.4385,-0.4832,-0.4921,-0.5008,-0.501,-0.501,-0.501,-0.4383,-0.3489,0.0,0.0,0.0,0.0,0.0,0.0,0.0,2.4227,2.409,2.3203,2.4841,2.5765,2.4868,2.5314,2.5804,2.6245,2.5511,2.5441,2.6245,2.6508,2.6658,2.6714,2.6998,2.7201,2.7268,2.7403,2.7469,2.7523,2.8222,2.861,2.8867,3.0104,3.1172,3.2072,3.3204,3.4471,3.5788,3.695,3.8088,3.9104,3.9769,4.0106,4.0174,4.0064,3.956,3.8663,3.6802,3.5256,3.3654,3.126,2.944,2.794,2.6687,2.5571,0.0,0.0,0.0,0.0,0.0,0.0,0.0,0.0,0.0,0.0,0.0,0.0,0.0,0.0,0.0,0.0,0.0,0.0,0.0,1.5771,1.4775,1.4088,1.4088,1.386,1.3322,1.2407,1.1123,0.9923,0.8978,0.7841,0.7139,0.7139,0.7139,0.7139,0.7139,0.6871,0.6428,0.563,0.5184,0.4293,0.2867,0.2598,0.2152,0.1436,0.0,0.0,0.0986,0.0,-0.0537,-0.0805,-0.17,-0.2148,-0.2237,-0.2955,-0.376,-0.4478,-0.4832,-0.501,-0.501,-0.501,-0.4291,-0.313,0.0,0.0,0.0,0.0,0.0,0.0,0.0,2.4333,2.4205,2.364,2.5008,2.5824,2.5272,2.5667,2.6164,2.6452,2.6107,2.5873,2.5931,2.6427,2.6794,2.6998,2.7201,2.7523,2.8039,2.8105,2.8157,2.8157,2.8967,2.9407,2.9393,3.0998,3.2118,3.2876,3.4409,3.5521,3.6313,3.7636,3.8656,3.945,3.9952,4.015,4.016,4.0159,3.9553,3.8498,3.7058,3.5571,3.3972,3.1649,3.0145,2.8924,2.7409,2.6271,2.5432,0.0,0.0,0.0,0.0,0.0,0.0,0.0,0.0,0.0,0.0,0.0,0.0,0.0,0.0,2.1704,0.0,0.0,1.6927,1.5861,1.4817,1.4088,1.4088,1.4088,1.3646,1.2413,1.1295,1.0183,0.8978,0.7841,0.7139,0.7139,0.7139,0.7139,0.7139,0.7139,0.6874,0.6432,0.6071,0.5447,0.4469,0.3578,0.2776,0.2327,0.1704,0.1436,0.1615,0.0986,0.0806,0.0806,-0.0089,-0.0537,-0.0626,-0.1432,-0.2058,-0.2505,-0.2771,-0.322,-0.3758,-0.3758,-0.2683,-0.1161,0.0,0.0,0.0,0.0,0.0,0.0,0.0,0.0,2.4178,2.3991,2.4933,2.5598,2.5598,2.6236,2.6589,2.6533,2.6533,2.6289,2.5812,2.6526,2.7229,2.7762,2.7829,2.8222,2.9044,2.9044,2.9044,2.9044,2.9827,3.03,3.0451,3.181,3.2951,3.3922,3.5484,3.6452,3.698,3.8364,3.9239,3.9727,4.0064,4.014,4.0011,3.9841,3.9126,3.8072,3.6841,3.5309,3.3612,3.186,3.066,2.9566,2.8117,2.7098,2.609,2.4792,2.4718,0.0,0.0,0.0,0.0,0.0,0.0,0.0,0.0,0.0,2.2936,2.2936,2.2264,2.142,2.0304,1.8744,1.7172,1.5944,1.4977,1.4328,1.4173,1.4088,1.3646,1.2413,1.1466,1.0524,0.9323,0.8189,0.7404,0.7231,0.7231,0.7241,0.7272,0.7276,0.7286,0.7317,0.6863,0.64,0.6195,0.467,0.3767,0.3575,0.2418,0.1973,0.2152,0.1973,0.1974,0.2154,0.1343,0.0895,0.0626,-0.0089,-0.0447,-0.0716,-0.0716,-0.1163,-0.179,-0.197,-0.0805,0.0895,0.0,0.0,0.0,0.0,0.0,0.0,0.0,0.0,0.0,2.4116,2.4933,2.5598,2.5598,2.6181,2.6521,2.6533,2.6533,2.6837,2.7538,2.7867,2.8451,2.94,2.9628,2.9766,2.9889,2.9889,2.9889,2.9889,3.0645,3.136,3.1962,3.2839,3.4088,3.5633,3.6278,3.7238,3.8432,3.9354,3.9912,4.014,4.0184,4.004,3.9738,3.8906,3.8218,3.7502,3.6039,3.4248,3.2415,3.157,2.9836,2.7986,2.7736,2.7149,2.6277,2.5216,2.4957,2.4779,2.375,2.2881,2.2328,2.2178,2.1527,2.0934,0.0,0.0,2.0934,2.0934,2.0867,2.0469,1.9344,1.8957,1.8141,1.6026,1.5621,1.522,1.425,1.4088,1.3646,1.2413,1.2151,1.1638,1.0524,0.9575,0.854,0.7503,0.7676,0.783,0.7978,0.7985,0.8048,0.8281,0.8192,0.7653,0.66,0.6418,0.5814,0.4819,0.3844,0.34,0.3401,0.2511,0.2154,0.2243,0.2243,0.1703,0.0716,0.0805,0.0268,-0.0716,-0.0716,0.0,0.0805,-0.0268,0.0179,0.1342,0.0,0.0,0.0,0.0,0.0,0.0,0.0,0.0,0.0,0.0,2.49,2.5259,2.5561,2.6113,2.6533,2.6533,2.6905,2.7404,2.7907,2.8593,2.9164,2.9737,2.9936,3.024,3.0719,3.0719,3.0719,3.0719,3.1886,3.2369,3.2103,3.3721,3.4951,3.5882,3.6907,3.7849,3.8728,3.9699,4.0164,4.0199,4.0194,3.9992,3.9558,3.8387,3.7695,3.7071,3.4846,3.3313,0.0,2.99,2.8502,2.7604,2.7162,2.6346,2.5511,2.5158,2.4564,2.3891,2.2925,2.1886,2.1155,2.1155,2.0857,2.0566,2.0566,2.0566,2.0566,2.0566,2.0566,2.0479,2.0001,1.9441,1.8718,0.0,1.6511,1.5538,1.5054,1.4489,1.3906,1.3379,1.3379,1.2601,1.0783,1.0265,0.963,0.8698,0.8796,0.8697,0.8328,0.8244,0.8273,0.8434,0.8524,0.8299,0.7855,0.7297,0.6762,0.6169,0.5091,0.4342,0.3758,0.3403,0.3047,0.278,0.305,0.2869,0.2418,0.2508,0.2238,0.179,0.179,0.2149,0.2508,0.1163,0.1522,0.2688,0.0,0.0,0.0,0.0,0.0,0.0,0.0,0.0,0.0,0.0,2.4993,2.509,2.5523,2.6113,2.6533,2.6533,2.704,2.767,2.8285,2.8989,2.9737,3.0421,3.0555,3.0911,3.1549,3.1534,3.1577,3.1732,3.2833,3.3224,3.3061,3.4636,3.5788,3.6632,3.7652,3.8479,3.9173,3.998,4.0331,4.0324,4.0155,3.99,3.9443,3.8022,3.7236,3.6549,3.386,3.2504,3.149,2.8652,2.7537,2.7217,2.6358,2.5594,2.4862,2.4337,2.3452,2.2563,2.1811,2.1155,2.0566,2.0566,2.0566,2.0566,2.0566,2.0566,2.0566,2.0566,2.0566,2.0566,2.0566,2.0001,1.9283,1.863,1.7172,1.5944,1.5379,1.4573,1.4088,1.4088,1.4088,1.3417,1.183,1.1402,1.0953,1.0051,0.9849,0.9605,0.9149,0.8785,0.8714,0.876,0.8855,0.8922,0.8875,0.8302,0.7934,0.7685,0.6545,0.5663,0.5041,0.448,0.4026,0.3671,0.3676,0.3678,0.3587,0.3678,0.3678,0.3588,0.361,0.3707,0.3619,0.2544,0.2894,0.3855,0.0,0.0,0.0,0.0,0.0,0.0,0.0,0.0,0.0,0.0,0.0,0.0,0.0,2.6113,2.6533,2.6533,2.6521,2.7271,2.9087,2.9199,3.0076,3.2064,3.2135,3.2191,3.2327,3.2327,3.2641,3.313,3.3182,3.4071,3.5684,3.5727,3.6749,3.8511,3.8637,3.9233,4.0177,4.033,4.0505,4.0628,4.0053,3.9732,3.9419,3.7819,3.6742,3.5821,3.3262,3.1793,3.0717,2.8447,2.7162,2.6383,2.537,2.5004,2.4636,2.2627,2.1441,2.0712,2.0634,2.0644,2.0566,2.0566,2.0566,2.0566,2.0566,2.0566,2.0566,2.0566,2.0566,2.0566,2.0566,2.0566,1.9835,1.7658,1.7342,1.6527,1.4412,1.4088,1.4088,1.4088,1.4088,1.4195,0.0,1.353,1.2545,1.1384,1.0874,1.0636,1.0849,0.9918,0.9425,0.9604,0.9612,0.9527,0.9348,0.9631,0.9638,0.9457,0.8249,0.78,0.7873,0.5847,0.4999,0.491,0.421,0.3767,0.3587,0.3767,0.3767,0.3593,0.3668,0.388,0.407,0.415,0.4171,0.43,0.0,0.0,0.0,0.0,0.0,0.0,0.0,0.0,0.0,0.0,0.0,0.0,0.0,0.0,0.0,0.0,2.7802,2.8684,2.9875,3.0555,3.1263,3.1883,3.2053,3.2094,3.215,3.215,3.2437,3.3093,3.3824,3.4695,3.5667,3.6675,3.7652,3.8553,3.9025,3.9672,4.0413,4.0586,4.0606,4.0461,4.0005,3.9396,3.8644,3.7074,3.5761,3.4442,0.0,3.0573,2.9966,2.767,2.6714,2.6314,2.53,2.4564,2.3599,2.1669,2.0857,2.0566,2.0566,2.0566,2.0566,2.0566,2.0566,2.0566,2.0566,2.0566,2.0566,2.0566,2.0566,2.0566,2.0566,2.0566,2.0323,1.9599,1.823,1.7017,1.6281,1.4985,1.4088,1.4088,1.4088,0.0,0.0,0.0,0.0,1.302,1.2847,1.2256,1.1158,1.078,1.0334,0.9624,0.9628,0.96,0.9539,0.9633,0.9639,0.9643,0.8574,0.8068,0.8061,0.6745,0.5844,0.5289,0.5294,0.4883,0.4295,0.4295,0.4295,0.4299,0.4328,0.443,0.4712,0.4746,0.4904,0.5218,0.0,0.0,0.0,0.0,0.0,0.0,0.0,0.0,0.0,0.0,0.0,0.0,0.0,0.0,0.0,0.0,0.0,2.938,3.0269,3.0896,3.1409,3.1784,3.2094,3.2302,3.2342,3.2602,3.313,3.3922,3.4648,3.5574,3.6619,3.76,3.8414,3.9116,3.9634,4.0145,4.0613,4.0638,4.0435,4.0034,3.9501,3.8664,3.7636,3.633,3.4784,0.0,3.0832,2.9675,2.8913,2.7136,2.6533,2.6233,2.4921,2.3526,2.2188,2.0934,2.0566,2.0566,2.0566,2.0566,2.0566,2.0566,2.0566,2.0566,2.0566,2.0566,2.0566,2.0566,2.0566,2.0566,2.0566,2.0566,2.0479,2.0079,1.8868,1.7658,1.6846,1.5545,1.4489,1.4173,1.4088,1.4242,0.0,0.0,0.0,1.4402,1.4154,1.3524,1.2334,1.156,1.0881,1.0207,0.9821,0.9628,0.9723,0.9821,0.9926,1.0023,0.9389,0.905,0.8798,0.8057,0.7343,0.6786,0.6605,0.6284,0.57,0.5325,0.5232,0.5237,0.4892,0.4905,0.5195,0.5229,0.5437,0.5716,0.0,0.0,0.0,0.0,0.0,0.0,0.0,0.0,0.0,0.0,0.0,0.0,0.0,0.0,0.0,0.0,0.0,0.0,3.0271,3.0315,3.0777,3.1784,3.2437,3.2895,3.3039,3.3665,3.4543,3.5579,3.565,3.6619,3.8395,3.8525,3.9164,4.0207,4.0402,4.0582,4.0758,4.0459,3.998,3.9373,3.8619,3.7618,3.6453,3.5583,3.386,3.1719,3.0353,2.8927,2.755,2.6782,2.6452,2.6013,2.4036,2.2113,2.0566,2.0566,2.0566,2.0566,2.0566,2.0566,2.0566,2.0566,2.0566,2.0566,2.0566,2.0566,2.0566,2.0566,2.0566,2.0566,0.0,0.0,2.0245,1.9283,1.8966,1.8141,1.6108,1.5703,1.5213,0.0,0.0,0.0,0.0,0.0,0.0,1.5398,0.0,1.4394,1.4298,1.2441,1.1365,1.117,1.0207,0.9821,1.0019,1.0314,1.0418,1.0528,1.0805,1.0693,1.0218,0.9554,0.927,0.9185,0.8243,0.7868,0.7782,0.675,0.6472,0.6584,0.5644,0.5491,0.5701,0.5797,0.5937,0.6011,0.0,0.0,0.0,0.0,0.0,0.0,0.0,0.0,0.0,0.0,0.0,0.0,0.0,0.0,0.0,0.0,0.0,0.0,3.0391,3.0938,3.1552,3.2342,3.2547,3.2895,3.3443,3.3973,3.4648,3.543,3.6461,3.7446,3.8426,3.9277,3.9863,4.0208,4.0254,4.0368,4.045,3.9668,3.9107,3.8658,3.7515,3.652,3.5479,3.3583,3.1874,3.0294,2.8801,2.763,2.6782,2.6589,2.5499,2.4024,2.2765,2.1593,2.0566,2.0566,2.0566,2.0566,2.0566,2.0566,2.0566,2.0566,2.0566,2.0566,2.0566,2.0566,2.0566,2.0566,2.0566,2.0566,2.0566,0.0,0.0,2.0245,1.8789,0.0,1.7009,1.5553,0.0,1.4166,0.0,1.4315,1.4903,1.4963,0.0,0.0,1.5501,1.5064,1.4298,1.3986,1.3011,1.1268,1.1272,1.0886,1.0019,1.0507,1.0681,1.0728,1.0871,1.0868,1.0712,1.0366,0.9907,0.9283,0.8993,0.8675,0.8199,0.7906,0.8004,0.8199,0.7943,0.8055,0.8255,0.8488,0.8113,0.7617,0.0,0.0,0.0,0.0,0.0,0.0,0.0,0.0,0.0,0.0,0.0,0.0,0.0,0.0,0.0,0.0,0.0,0.0,0.0,3.0709,3.1235,3.165,3.253,3.3269,3.3889,3.4747,3.572,3.6717,3.7464,3.8301,3.9161,3.9835,4.0156,4.0194,4.0266,4.0087,3.9744,3.9063,3.822,0.0,0.0,3.5314,3.4006,3.2338,3.0791,2.9378,2.8141,2.7162,2.6452,2.6025,2.4767,2.3294,2.2328,2.1375,2.0566,2.0566,2.0566,2.0566,2.0566,2.0566,2.0566,2.0566,2.0566,2.0566,2.0566,2.0566,2.0566,2.0566,2.0566,2.0566,2.0566,2.0566,2.0566,0.0,0.0,0.0,1.7342,1.5876,1.4657,0.0,1.4088,0.0,1.4903,1.4963,1.5204,0.0,1.535,1.5159,1.5166,1.4382,1.3692,1.2915,1.2716,1.2042,1.0988,1.0895,1.0904,1.0998,1.0983,1.1125,1.1216,1.1091,1.081,1.0338,0.0,1.0201,0.9801,0.9402,0.9399,0.9596,0.9197,0.9103,0.9399,0.9694,0.9402,0.9008,0.0,0.0,0.0,0.0,0.0,0.0,0.0,0.0,0.0,0.0,0.0,0.0,0.0,0.0,0.0,0.0,0.0,0.0,0.0,0.0,3.0678,3.0848,3.248,3.3717,3.4363,3.563,3.6896,3.8053,3.8224,3.8807,3.9755,3.9828,3.9862,3.9863,3.9952,3.9522,3.8737,3.8377,3.7259,3.569,3.5328,3.4137,3.2461,0.0,3.0153,2.8876,2.7855,2.7095,2.6383,2.537,2.4409,2.3514,2.2553,2.1517,2.0789,2.0789,2.0712,2.0566,2.0566,2.0566,2.0566,2.0566,2.0566,2.0566,2.0566,2.0566,2.0566,2.0566,2.0566,2.0566,2.0566,2.0566,2.0566,2.0566,0.0,1.863,1.7666,1.6437,1.5379,1.4412,1.4173,1.4315,1.4903,1.4963,1.5204,1.5785,1.4873,1.4873,1.613,1.4472,1.4082,1.5038,1.3968,1.3102,1.263,1.1575,1.1194,1.1482,1.1292,1.1292,1.1585,1.1585,1.159,1.1683,1.1883,0.0,1.1683,1.0984,1.0783,1.0979,1.0083,0.9891,1.0096,1.0391,1.0391,1.0288,0.0,0.0,0.0,0.0,0.0,0.0,0.0,0.0,0.0,0.0,2.7588,2.772,0.0,0.0,0.0,0.0,0.0,0.0,0.0,0.0,0.0,3.2519,3.2914,3.3571,3.4596,3.5513,3.6079,3.6337,3.7341,3.7859,3.7951,3.8084,3.8098,3.8035,3.7837,3.7654,3.7477,3.697,3.6273,3.5406,3.4332,3.3375,3.2351,3.0242,0.0,0.0,2.7297,2.6589,2.6383,2.537,2.4862,2.4564,2.3588,2.2553,2.1735,2.1735,2.1231,2.0566,2.0566,2.0566,2.0566,2.0566,2.0566,2.0566,2.0566,2.0566,2.0566,2.0566,2.0566,2.0566,2.0566,2.0566,2.0566,2.0566,1.9678,1.8957,1.8718,1.7001,1.5613,0.0,1.4657,1.4315,1.4903,1.4963,0.0,0.0,0.0,1.4873,1.613,1.6109,1.5906,1.5704,1.3573,1.3091,1.4166,1.321,1.2737,1.2737,1.1678,1.1292,1.1585,1.1585,1.1683,1.1883,1.198,0.0,1.2273,1.2073,1.217,1.2462,1.2457,1.2457,1.2554,1.3044,1.2549,1.1853,0.0,0.0,0.0,0.0,0.0,0.0,0.0,0.0,2.79,2.8182,2.8035,2.8045,2.8392,2.8444,0.0,0.0,0.0,0.0,0.0,0.0,0.0,0.0,0.0,0.0,3.4541,3.5436,3.611,3.6519,0.0,3.7577,3.7558,3.7623,3.7346,3.6824,3.6686,3.6064,3.5154,3.4886,3.4269,3.334,3.2768,3.2106,3.1246,0.0,0.0,0.0,0.0,2.6533,2.6452,2.5955,2.5804,2.5511,2.3963,2.2776,2.2027,2.2027,2.1375,2.0566,2.0566,2.0566,2.0566,2.0566,2.0566,2.0566,2.0566,2.1011,2.1298,2.1298,2.1745,2.1973,2.1451,2.1298,0.0,2.0712,1.9678,1.9036,1.9036,1.7577,1.6355,1.5779,1.522,1.4916,1.4777,1.487,1.5137,1.5571,0.0,1.5642,1.6407,1.6096,1.5893,1.5798,1.4058,1.3578,1.4555,1.416,1.3968,1.4064,1.3578,1.3204,1.284,1.2931,1.2743,1.2175,1.237,0.0,1.2667,1.2759,1.2958,1.3152,1.3249,1.3346,1.3346,1.3925,1.3721,1.3323,0.0,0.0,0.0,0.0,0.0,0.0,0.0,2.8298,2.8353,2.8551,2.8364,2.8235,2.8371,2.851,2.8762,0.0,0.0,0.0,0.0,0.0,0.0,0.0,0.0,0.0,0.0,0.0,0.0,3.6607,3.689,0.0,0.0,0.0,0.0,0.0,3.5236,3.434,3.2866,3.2908,3.2343,0.0,0.0,3.0985,0.0,0.0,0.0,0.0,0.0,2.6533,2.6533,2.6533,2.6533,2.6233,2.4612,2.3441,2.2627,2.2627,2.1973,2.1155,2.0934,2.0934,2.0934,2.0934,2.0934,2.0934,2.1155,2.1811,2.2328,2.2328,2.2925,2.3294,2.2478,2.2178,2.1735,0.0,1.9991,1.9362,1.9362,1.839,1.7334,0.0,1.6004,0.0,1.5005,1.5055,0.0,1.5564,0.0,0.0,1.6683,1.5893,1.5602,1.6082,1.5026,1.474,1.5317,1.5203,1.5197,1.5488,1.5475,1.5007,1.437,1.4555,1.4172,1.3318,1.3329,0.0,0.0,1.3335,1.3437,1.363,1.3732,1.3732,1.3829,1.4304,1.4496,1.4496,0.0,0.0,0.0,0.0,0.0,0.0,0.0,2.8298,2.8201,2.7935,2.7877,2.7936,2.8186,2.8784,2.9161,0.0,0.0,0.0,0.0,0.0,0.0,0.0,0.0,0.0,0.0,0.0,0.0,3.5017,3.5283,0.0,0.0,0.0,0.0,0.0,0.0,3.208,3.1401,3.1665,0.0,0.0,0.0,0.0,0.0,0.0,0.0,0.0,0.0,2.6533,2.6533,2.6533,2.6533,2.6452,2.6302,2.5511,2.4707,2.4707,2.4047,2.2999,2.2113,2.1886,2.1886,2.1886,2.1886,2.2103,2.2999,2.3294,2.3368,2.3368,2.3441,2.3441,2.3368,2.2627,2.1952,2.1886,2.1068,2.0479,2.0479,1.952,1.8798,1.8709,0.0,0.0,1.6345,1.5798,0.0,0.0,0.0,0.0,1.6979,1.5994,1.5981,1.7138,1.6358,1.6546,1.7792,1.703,1.6828,1.7102,1.5947,1.5569,1.5866,1.5961,1.6149,1.6425,1.5317,0.0,0.0,1.4184,1.3806,1.3908,1.4394,1.4598,1.4598,1.4892,1.4987,1.5083,0.0,0.0,0.0,0.0,0.0,0.0,2.9325,2.9286,2.9147,2.8791,2.8894,2.8975,2.8876,2.9269,2.9594,0.0,0.0,0.0,0.0,0.0,0.0,0.0,0.0,0.0,0.0,0.0,3.4841,3.4744,3.4555,0.0,0.0,0.0,0.0,0.0,0.0,3.0131,2.8904,2.9053,0.0,0.0,0.0,0.0,0.0,0.0,0.0,0.0,0.0,0.0,2.6533,2.6533,2.6533,2.6533,2.6533,2.6245,2.5804,2.5158,2.4264,2.3441,2.2999,2.2925,2.2925,2.2925,2.2925,2.2999,2.3441,2.3963,2.4409,2.4409,2.4909,2.5134,2.448,2.4047,2.3599,2.2999,2.2345,2.1859,2.1859,2.1242,2.0517,1.9825,1.9028,0.0,0.0,0.0,0.0,0.0,0.0,0.0,1.6979,1.5994,1.5697,1.6372,1.6075,1.6365,1.7217,1.7613,1.8079,1.8427,1.8048,1.7669,1.7282,1.7368,1.7181,1.6626,1.625,0.0,0.0,1.6243,1.6243,1.6351,1.5981,1.5798,1.571,1.5445,1.573,1.6197,0.0,0.0,0.0,0.0,0.0,3.0065,2.9973,2.995,2.9801,2.9456,2.9595,2.9609,2.9214,2.9539,2.9829,2.9895,0.0,0.0,0.0,0.0,0.0,0.0,0.0,0.0,0.0,0.0,3.4187,3.4231,3.3677,3.2988,0.0,0.0,3.0465,2.9287,0.0,0.0,0.0,0.0,0.0,0.0,0.0,0.0,0.0,0.0,0.0,0.0,0.0,0.0,0.0,0.0,0.0,2.6533,2.6533,2.6533,2.6383,2.5664,2.4921,2.4325,2.4036,2.3963,2.3963,2.3963,2.3963,2.4036,2.4325,2.4921,2.5441,2.5441,2.6025,2.6314,2.5581,2.5229,2.4826,2.4292,2.3643,2.3238,2.3377,2.2845,2.2083,0.0,0.0,0.0,0.0,0.0,0.0,0.0,0.0,0.0,1.6979,1.6379,1.6075,1.6271,1.6278,1.656,1.703,1.7994,1.8751,1.9188,1.9487,1.9196,1.8603,1.8872,1.8588,1.7832,1.7647,0.0,0.0,1.7925,1.7925,1.8033,1.7475,1.7196,1.7102,1.6655,1.6936,1.749,0.0,0.0,0.0,0.0,0.0,0.0,0.0,2.9961,2.9851,2.9457,2.9516,2.9432,2.8951,2.9436,2.9776,2.9702,0.0,0.0,0.0,0.0,0.0,0.0,0.0,0.0,0.0,0.0,3.2981,3.3136,3.2373,3.1673,3.0987,2.9587,2.8404,2.7395,0.0,0.0,0.0,0.0,0.0,0.0,0.0,0.0,0.0,0.0,0.0,0.0,0.0,0.0,0.0,0.0,0.0,0.0,0.0,2.6533,2.6533,2.6465,2.6465,2.6233,2.5229,2.5004,2.5004,2.5004,2.5004,2.5229,2.6245,2.6465,2.6452,2.6452,2.6465,2.6533,2.6465,2.5664,2.5171,2.5719,2.4918,2.4498,2.5092,2.4208,0.0,0.0,0.0,0.0,0.0,0.0,0.0,0.0,0.0,0.0,1.6979,1.7153,1.7232,1.7232,1.7527,1.7815,1.8087,1.8381,1.8751,1.9188,1.9487,1.9671,1.9928,2.0201,2.0555,0.0,0.0,0.0,0.0,1.8772,1.8395,1.8395,1.8688,1.8788,1.8788,1.8788,1.8788,1.8788,0.0,0.0,0.0,0.0,0.0,0.0,0.0,3.0459,3.0424,3.0318,3.0285,3.0149,2.981,3.0126,3.0093,2.9489,0.0,0.0,0.0,0.0,0.0,0.0,0.0,0.0,0.0,0.0,3.0617,3.0309,2.9521,2.8806,2.8171,2.747,2.6718,2.5997,2.5781,0.0,0.0,0.0,0.0,0.0,0.0,0.0,0.0,0.0,0.0,0.0,0.0,0.0,0.0,0.0,0.0,0.0,0.0,0.0,0.0,2.6533,2.6533,2.6452,2.6094,2.6025,2.6025,2.6025,2.6025,2.6094,2.6452,2.6533,2.6533,2.6533,2.6533,2.6533,2.6533,2.6544,2.663,2.6791,2.6584,2.6178,0.0,0.0,0.0,0.0,0.0,0.0,0.0,0.0,0.0,0.0,0.0,0.0,1.7978,1.7512,1.7326,1.7326,1.7426,1.7613,1.8087,1.8179,1.855,1.9188,1.9288,1.9479,1.9671,1.9936,2.011,0.0,0.0,0.0,0.0,2.0619,2.0619,2.0619,2.0068,1.9886,1.996,1.9231,1.9413,2.0051,0.0,0.0,0.0,0.0,0.0,0.0,0.0,3.0715,3.0689,3.0528,3.053,3.039,3.0088,3.0107,2.9916,2.934,0.0,0.0,0.0,0.0,0.0,0.0,0.0,0.0,0.0,2.8356,2.8196,2.7964,2.7504,2.7051,2.6644,2.5895,2.5315,2.4951,2.4667,2.4279,0.0,0.0,0.0,0.0,0.0,0.0,2.4998,0.0,0.0,0.0,0.0,0.0,0.0,0.0,0.0,0.0,0.0,0.0,0.0,0.0,2.6533,2.6533,2.6533,2.6533,2.6533,2.6533,2.6533,2.6533,2.6533,2.6533,2.6533,2.6533,2.6533,2.6596,2.6728,2.7055,2.7419,2.7833,2.7915,0.0,0.0,0.0,0.0,0.0,0.0,0.0,0.0,0.0,0.0,0.0,0.0,0.0,1.8427,1.8603,1.8411,1.7956,1.7606,1.7621,1.8087,1.8179,1.855,1.9004,1.9288,1.9479,1.9587,2.0027,2.0201,0.0,0.0,0.0,0.0,2.198,2.2167,2.1909,2.1266,2.1069,2.115,2.0512,2.0604,2.1024,0.0,0.0,0.0,0.0,0.0,0.0,0.0,0.0,3.0658,3.0233,3.0306,3.0238,2.9775,2.9519,2.9289,2.9081,0.0,0.0,0.0,0.0,0.0,0.0,0.0,0.0,0.0,2.5275,2.5697,2.5949,2.5943,2.5962,2.5977,2.4657,2.4047,2.4047,2.3292,2.3005,0.0,0.0,0.0,0.0,0.0,0.0,0.0,0.0,0.0,0.0,0.0,0.0,0.0,0.0,0.0,0.0,0.0,0.0,0.0,0.0,0.0,0.0,0.0,2.6533,2.6533,2.6533,2.6533,2.6533,2.6533,2.6533,0.0,2.6533,2.6559,2.6747,2.7193,2.7344,2.7733,2.8762,2.8963,0.0,0.0,0.0,0.0,0.0,0.0,0.0,0.0,0.0,0.0,0.0,0.0,0.0,1.8696,2.0042,2.0305,1.9222,1.8342,1.7994,1.8272,1.8381,1.8566,1.8827,1.9304,1.9587,1.9587,2.0382,2.0907,0.0,0.0,0.0,0.0,2.2931,2.294,2.252,2.2236,2.2315,2.2385,2.2199,2.1945,2.1788,0.0,0.0,0.0,0.0,0.0,0.0,0.0,0.0,0.0,0.0,3.0224,3.0072,2.9212,2.9236,2.8587,0.0,0.0,0.0,0.0,0.0,0.0,0.0,0.0,0.0,0.0,2.2693,2.2771,2.2711,2.2305,2.2408,2.3047,2.2262,2.1854,2.1854,2.1616,2.1877,0.0,0.0,0.0,0.0,0.0,0.0,0.0,0.0,0.0,0.0,2.938,2.9317,0.0,0.0,0.0,0.0,0.0,0.0,0.0,0.0,2.6533,2.6533,2.6533,0.0,2.6533,2.6533,2.6533,2.6533,0.0,2.6533,2.6533,2.6533,2.6804,0.0,0.0,2.7971,2.8624,2.8888,0.0,0.0,0.0,0.0,0.0,0.0,0.0,0.0,0.0,0.0,0.0,0.0,0.0,2.123,2.097,2.0593,2.0314,2.0223,2.0232,1.9968,1.9438,1.8835,1.8658,1.9104,1.9196,1.9387,1.9679,2.0889,2.1489,0.0,0.0,0.0,2.3627,2.4059,2.4145,2.3943,2.3001,2.2798,2.2928,2.1947,2.1606,2.1614,0.0,0.0,0.0,0.0,0.0,0.0,0.0,0.0,0.0,0.0,0.0,0.0,0.0,0.0,0.0,0.0,0.0,0.0,0.0,0.0,0.0,0.0,0.0,2.0953,2.0793,2.1258,2.1319,2.0967,2.1376,2.1542,2.1616,2.125,2.1123,2.1123,2.1123,2.1491,0.0,0.0,0.0,0.0,2.4368,0.0,0.0,0.0,0.0,0.0,3.0072,3.0072,0.0,2.9442,2.9317,2.8939,0.0,0.0,0.0,0.0,2.704,2.704,2.704,2.6782,2.6533,2.6533,2.6533,2.6533,2.6533,2.6533,2.6596,2.6791,2.708,0.0,0.0,0.0,0.0,0.0,2.9591,0.0,0.0,0.0,0.0,0.0,0.0,0.0,0.0,0.0,0.0,0.0,0.0,2.2236,2.1695,2.1952,2.1854,2.14,2.1756,2.1489,2.0503,2.0167,2.0093,2.0357,2.0529,2.0709,2.0907,2.2031,2.2551,0.0,0.0,0.0,2.4467,2.4682,2.4682,2.4462,2.3495,2.3402,2.3545,2.2961,2.2665,2.2652,0.0,0.0,0.0,0.0,0.0,0.0,0.0,0.0,0.0,0.0,0.0,0.0,0.0,0.0,0.0,0.0,0.0,0.0,0.0,0.0,0.0,0.0,0.0,1.9376,1.9744,2.0261,2.0382,2.0182,2.1307,2.1553,2.0933,2.0869,2.0805,2.0805,2.0869,2.1302,0.0,0.0,0.0,0.0,2.4583,0.0,0.0,0.0,0.0,0.0,0.0,0.0,0.0,3.0208,3.0011,2.938,2.9254,0.0,0.0,0.0,0.0,0.0,2.7736,2.7229,2.6658,2.6658,2.6589,2.6533,2.6533,2.6596,2.6716,2.718,0.0,0.0,0.0,2.9001,0.0,0.0,0.0,0.0,0.0,0.0,0.0,0.0,0.0,0.0,0.0,0.0,0.0,0.0,0.0,2.3047,2.205,2.3309,2.3667,2.2668,2.3105,2.2824,2.1826,2.1774,2.1695,2.1784,2.2217,2.2394,2.257,2.3367,2.3887,2.4049,0.0,0.0,2.5041,2.5224,2.5168,2.4794,2.3998,2.3975,2.4279,2.4092,2.3952,2.384,0.0,0.0,0.0,0.0,0.0,0.0,0.0,0.0,0.0,0.0,0.0,0.0,0.0,0.0,0.0,0.0,0.0,0.0,0.0,0.0,0.0,0.0,1.9109,1.9203,1.9165,1.8865,1.8945,1.9563,1.9404,1.9639,2.0226,1.9649,1.9396,1.9462,1.9977,2.0613,2.1313,2.2051,2.296,2.3978,2.5449,0.0,0.0,0.0,0.0,0.0,0.0,0.0,0.0,3.1278,3.1219,3.1029,3.0329,0.0,0.0,0.0,0.0,0.0,2.792,2.7604,2.755,2.755,2.6973,2.6533,2.6533,2.6816,2.718,2.7268,0.0,0.0,0.0,2.9327,2.9691,0.0,0.0,0.0,0.0,0.0,0.0,0.0,0.0,0.0,0.0,0.0,0.0,0.0,0.0,2.358,2.3232,2.3667,2.3841,2.3927,2.4186,2.4348,2.4327,2.257,2.1872,2.2306,2.2394,2.257,2.3008,2.4382,2.4988,2.5062,0.0,2.6642,2.6245,2.6246,2.613,2.5684,2.4612,2.4411,2.4668,2.3682,2.3472,2.3553,0.0,0.0,0.0,0.0,0.0,0.0,0.0,0.0,0.0,0.0,0.0,0.0,0.0,0.0,0.0,0.0,0.0,0.0,0.0,0.0,0.0,1.8912,1.8716,1.8679,1.8881,1.8967,1.91,1.9264,1.9467,1.9573,1.9518,1.9264,1.9075,1.9131,1.9386,2.0161,2.1273,2.191,2.2943,2.4366,0.0,0.0,0.0,0.0,0.0,0.0,0.0,0.0,0.0,0.0,3.1482,3.1409,3.1087,0.0,0.0,0.0,0.0,0.0,2.9192,2.8748,2.8492,2.9002,2.7802,2.6533,2.6533,2.6653,2.7005,2.7607,0.0,0.0,0.0,0.0,2.9792,2.9792,0.0,0.0,0.0,0.0,0.0,0.0,0.0,0.0,0.0,0.0,0.0,0.0,0.0,0.0,2.3667,2.4024,2.4196,2.4206,2.4529,2.4786,2.4861,2.3897,2.3627,2.4059,2.4231,2.4488,2.4819,2.5589,2.5876,2.5694,0.0,2.6428,2.6037,2.575,2.5639,2.5472,2.4802,2.468,2.4865,2.4969,2.5087,2.5193,0.0,0.0,0.0,0.0,0.0,0.0,0.0,0.0,0.0,0.0,0.0,0.0,0.0,0.0,0.0,0.0,0.0,0.0,0.0,0.0,1.8638,1.8542,1.8243,1.8365,1.8967,1.9241,1.9297,1.9075,1.9704,1.9704,1.9075,1.9075,1.9075,1.9075,1.9178,2.0139,2.1586,2.1997,2.32,2.4998,0.0,0.0,0.0,0.0,0.0,0.0,0.0,0.0,0.0,0.0,0.0,0.0,0.0,0.0,0.0,3.0524,3.045,3.0524,3.0329,2.9827,2.9442,3.0133,2.8794,2.7194,2.6875,2.7178,2.7613,2.7994,0.0,0.0,0.0,2.9792,0.0,0.0,0.0,0.0,0.0,0.0,0.0,0.0,0.0,0.0,0.0,0.0,0.0,0.0,0.0,0.0,2.4251,2.4358,2.4454,2.4368,2.4786,2.5031,2.5041,2.5126,2.5295,2.5622,2.5812,2.5997,2.6113,2.6371,2.6265,2.5939,2.6018,2.5823,2.5497,2.5223,2.5203,2.5356,2.5266,2.5394,2.5664,2.6569,2.6934,2.704,0.0,0.0,0.0,0.0,0.0,0.0,0.0,0.0,0.0,0.0,0.0,0.0,0.0,0.0,0.0,0.0,0.0,0.0,0.0,0.0,1.838,1.6592,1.7547,1.8543,1.9423,1.8797,1.8674,1.9075,1.9131,1.9131,1.9075,1.9075,1.9075,1.9085,1.9588,2.0628,2.215,2.2784,2.4183,2.6193,2.7197,0.0,0.0,0.0,0.0,0.0,0.0,0.0,0.0,0.0,0.0,0.0,0.0,0.0,3.1351,3.0524,3.0837,3.1219,3.0524,3.0269,3.0208,3.0269,3.0003,2.9367,2.7921,2.9094,3.0024,2.8422,2.9134,0.0,0.0,2.9792,0.0,0.0,0.0,0.0,0.0,0.0,0.0,0.0,0.0,0.0,0.0,0.0,0.0,0.0,0.0,0.0,2.5411,2.4861,2.4625,2.4861,2.5031,2.5285,2.5559,2.5728,2.5812,2.5895,2.5895,2.5903,2.5878,2.6005,2.5905,2.5451,2.5684,2.5463,2.5044,2.5642,2.5841,2.5804,2.6471,2.7191,2.7789,2.7855,2.8103,2.8363,0.0,0.0,0.0,0.0,0.0,0.0,0.0,0.0,0.0,0.0,0.0,0.0,0.0,0.0,0.0,0.0,0.0,0.0,0.0,1.8605,1.78,1.6802,1.7161,1.7694,1.837,1.8125,1.8348,1.9075,1.9075,1.9287,1.9499,1.9431,1.9586,1.9913,1.9959,2.1036,2.2807,2.3255,2.4627,2.6583,2.7066,2.7525,0.0,0.0,0.0,0.0,0.0,0.0,0.0,0.0,3.1482,3.1482,3.1482,3.1482,3.1409,3.1161,3.1278,3.1409,3.1146,3.1029,3.1029,3.1029,3.1628,3.1521,2.9096,2.9745,3.073,2.9925,3.0535,0.0,0.0,0.0,0.0,0.0,0.0,0.0,0.0,0.0,0.0,0.0,0.0,0.0,0.0,0.0,0.0,0.0,0.0,0.0,2.6565,2.6412,2.6329,2.6246,2.6659,2.6588,2.6124,2.6679,2.6531,2.5858,2.5858,2.6001,2.6211,2.5972,2.5549,2.5135,2.5651,2.558,2.5241,2.592,2.6275,2.6364,2.6761,2.7365,2.8051,2.8349,2.8478,2.8556,0.0,0.0,0.0,0.0,0.0,0.0,0.0,0.0,0.0,0.0,0.0,0.0,0.0,0.0,0.0,0.0,0.0,0.0,1.9217,1.8455,1.7614,1.6835,1.7064,1.7197,1.7276,1.7569,1.8182,1.9075,1.9287,1.9526,1.9768,1.9764,2.0,2.0288,2.0648,2.1734,2.3323,2.407,2.5339,2.6974,2.7059,2.7469,0.0,0.0,0.0,0.0,0.0,0.0,0.0,0.0,3.1482,3.1482,3.1482,3.1482,3.1482,3.1482,3.1482,3.1482,3.1482,3.1482,3.1482,3.1482,3.2362,3.2568,3.0315,3.0998,3.1848,3.0973,3.1502,3.218,3.2524,0.0,0.0,0.0,0.0,0.0,0.0,0.0,0.0,0.0,0.0,0.0,0.0,0.0,0.0,0.0,0.0,0.0,0.0,2.7557,2.7464,2.7313,2.7474,2.7392,2.6909,2.7167,2.6996,2.6343,2.6182,2.6178,2.6345,2.5984,2.5604,2.5394,2.5889,2.591,2.5721,2.6445,2.6989,2.7378,2.763,2.8103,2.8634,2.9002,2.9129,2.9142,0.0,0.0,0.0,0.0,0.0,0.0,0.0,0.0,0.0,0.0,0.0,0.0,0.0,0.0,0.0,0.0,0.0,0.0,1.9456,1.8818,1.7774,1.6358,1.7217,1.7285,1.6298,1.7217,1.8192,1.9075,1.9609,1.9837,1.9858,2.0224,2.0298,2.0175,2.1632,2.2809,2.3769,2.5232,2.6458,2.7469,2.7335,2.7214,2.7214,0.0,0.0,0.0,0.0,0.0,0.0,0.0,3.1482,3.1482,3.1482,3.1482,3.1482,3.1482,3.1482,3.1482,3.1482,3.1482,3.1482,3.1482,3.2018,3.2332,3.1616,3.3066,3.3805,3.1338,3.1764,3.2593,3.2593,3.2593,0.0,0.0,0.0,0.0,0.0,0.0,0.0,0.0,0.0,0.0,0.0,0.0,0.0,0.0,0.0,0.0,0.0,2.7879,2.7626,2.7799,2.7439,2.7389,2.7762,2.7306,2.72,2.7594,2.7098,2.6539,2.5985,2.5985,2.6127,2.6414,2.6414,2.6414,2.6483,2.7217,2.8157,2.9099,2.9477,2.9713,2.9808,3.0036,3.0158,3.0312,0.0,0.0,0.0,0.0,0.0,0.0,0.0,0.0,0.0,0.0,0.0,0.0,0.0,0.0,0.0,0.0,0.0,0.0,1.953,1.9125,1.8378,1.7345,1.756,1.7569,1.7285,1.8557,1.9346,1.9619,2.0006,2.0389,2.0721,2.0563,2.0724,2.1104,2.1956,2.2948,2.4033,2.5192,2.6277,2.7146,2.693,2.7242,2.7802,0.0,0.0,0.0,0.0,0.0,0.0,0.0,0.0,0.0,3.1482,3.1482,3.1482,3.1482,3.1482,3.1482,3.1482,3.1482,3.1482,3.1482,0.0,0.0,0.0,3.3066,3.442,0.0,3.4361,3.4624,3.4624,0.0,0.0,0.0,0.0,0.0,0.0,0.0,0.0,0.0,0.0,0.0,0.0,0.0,0.0,0.0,0.0,0.0,0.0,2.9276,2.8911,2.8987,2.8624,2.8249,2.7717,2.8117,2.7837,2.6906,2.717,2.7094,2.6754,2.6396,2.6288,2.6414,2.6947,2.7149,2.7284,2.8222,2.883,2.9099,2.9477,2.996,3.0478,3.0219,3.0387,3.0792,0.0,0.0,0.0,0.0,0.0,0.0,0.0,0.0,0.0,0.0,0.0,0.0,0.0,0.0,0.0,0.0,0.0,0.0,0.0,1.9162,1.8664,1.7706,1.8046,1.8329,1.8507,1.9685,2.0296,2.0296,2.0565,2.0834,2.1124,2.0937,2.1095,2.1425,2.251,2.3379,2.4097,2.5475,2.6427,2.6943,2.6794,2.704,2.7604,0.0,0.0,0.0,0.0,0.0,0.0,0.0,0.0,0.0,3.1482,3.1482,3.1482,3.1482,3.1482,3.1482,3.1482,3.1482,0.0,3.1482,3.1824,3.2153,3.2287,0.0,0.0,0.0,3.5504,3.5504,3.5504,3.4986,0.0,0.0,0.0,0.0,0.0,0.0,0.0,0.0,0.0,0.0,0.0,0.0,0.0,0.0,0.0,0.0,0.0,2.9455,2.9275,2.9275,2.8951,2.8569,2.8117,2.8333,2.8033,2.7196,2.7654,2.7721,2.7559,2.7033,2.7027,2.7297,2.7829,2.8026,2.8091,2.9121,2.9574,2.9623,3.0237,3.0718,3.1073,3.0911,3.1029,3.1248,0.0,0.0,0.0,0.0,0.0,0.0,0.0,0.0,0.0,0.0,1.7127,0.0,0.0,0.0,0.0,0.0,0.0,0.0,0.0,0.0,1.8787,1.7842,1.8761,1.95,1.9941,2.0762,2.1208,2.1176,2.1176,2.1176,2.1186,2.1394,2.1359,2.1282,2.3021,2.3795,2.3918,2.5836,2.6794,2.6956,2.6726,2.6714,2.6905,2.8363,0.0,0.0,0.0,0.0,0.0,0.0,0.0,0.0,3.1482,3.1482,3.1482,3.1482,3.1482,3.1482,3.1482,3.1482,3.1482,3.1482,3.1482,0.0,3.32,3.3499,3.3873,3.5235,0.0,3.5504,3.5504,0.0,0.0,0.0,0.0,0.0,0.0,0.0,0.0,0.0,0.0,0.0,0.0,0.0,0.0,0.0,0.0,0.0,0.0,2.8853,2.8925,2.8925,2.8552,2.8389,2.8607,2.8053,2.7855,2.8079,2.8235,2.8287,2.8352,2.7815,2.796,2.8651,2.8844,2.8908,2.8958,2.9964,3.0389,3.0435,3.1334,3.1637,3.1595,3.1823,3.1807,3.1807,0.0,0.0,0.0,0.0,0.0,0.0,0.0,0.0,0.0,0.0,0.0,0.0,0.0,0.0,0.0,0.0,0.0,0.0,0.0,0.0,1.9694,1.8865,2.0068,2.0795,2.0803,2.1779,2.2069,2.1652,2.1652,2.1652,2.1662,2.1385,2.1205,2.1282,2.2872,2.3588,2.3734,2.5709,2.6602,2.6602,2.6533,2.6905,2.755,2.7855,2.8812,0.0,0.0,0.0,0.0,0.0,0.0,0.0,3.1482,3.1482,3.1482,3.1482,3.1482,3.1482,3.1482,3.1482,0.0,3.1482,3.1482,3.1884,3.32,3.3499,3.3873,3.5235,3.5504,3.5504,3.5504,0.0,0.0,0.0,0.0,0.0,0.0,0.0,0.0,0.0,0.0,0.0,0.0,0.0,0.0,0.0,0.0,0.0,2.9119,2.876,2.8512,2.8512,2.802,2.7706,2.7786,2.7788,2.7855,0.0,2.8066,2.8444,2.9044,2.856,2.8522,2.878,2.9324,2.9623,2.9842,3.0659,3.1013,3.1072,3.1407,3.1823,3.216,3.1864,3.1977,3.2216,0.0,0.0,0.0,0.0,0.0,0.0,0.0,0.0,0.0,0.0,0.0,0.0,0.0,0.0,0.0,0.0,0.0,0.0,0.0,0.0,1.9811,2.0103,2.1259,2.1864,2.1803,2.2528,2.2559,2.1807,2.1807,2.1807,2.1807,2.1359,2.1425,2.1928,2.301,2.3745,2.4337,2.5873,2.6533,2.6533,2.6533,2.6782,2.7162,2.7537,2.8492,2.9752,3.0133,0.0,0.0,0.0,0.0,0.0,0.0,0.0,3.1482,3.1482,3.1482,3.1482,3.1482,3.1482,0.0,3.1482,0.0,3.2273,3.326,3.3739,3.4262,3.5295,3.5554,3.5604,0.0,0.0,0.0,0.0,0.0,0.0,0.0,0.0,0.0,0.0,0.0,0.0,0.0,0.0,0.0,0.0,0.0,2.9026,2.9026,2.8341,2.817,2.8559,2.7881,2.7523,2.7523,2.759,2.7656,2.7656,2.8222,2.898,2.9856,2.967,2.9656,2.9718,3.0254,3.0495,3.0659,3.142,3.1777,3.1792,3.2216,3.2563,3.2796,3.2563,3.2617,3.2796,0.0,0.0,0.0,0.0,0.0,0.0,0.0,0.0,0.0,0.0,0.0,0.0,0.0,0.0,0.0,0.0,0.0,0.0,0.0,0.0,0.0,2.1643,2.2569,2.2973,2.2706,2.3229,2.2936,2.1807,2.1807,2.1807,2.1807,2.1359,2.1721,2.2723,2.3231,2.4047,2.5087,2.6094,2.6533,2.6533,2.6533,2.6589,2.6782,2.7284,2.8247,2.9317,2.9889,3.0703,3.1482,3.1482,0.0,0.0,0.0,0.0,3.1482,3.1482,3.1482,3.1482,3.1482,3.1482,3.1482,3.1482,3.2018,0.0,3.335,3.4008,3.4666,3.537,3.5604,0.0,0.0,0.0,0.0,0.0,0.0,0.0,0.0,0.0,0.0,0.0,0.0,0.0,0.0,0.0,0.0,0.0,0.0,2.8853,2.898,2.8222,2.8039,2.8803,2.8222,2.7829,2.7723,2.7842,2.7894,2.796,2.8939,2.9813,3.0629,3.0911,3.097,3.0778,3.1174,3.1362,3.1477,3.2256,3.2617,3.2711,3.3224,3.3503,3.3539,3.3539,3.3539,3.3607,0.0,0.0,0.0,0.0,0.0,0.0,0.0,0.0,0.0,0.0,0.0,0.0,0.0,0.0,0.0,0.0,0.0,0.0,0.0,0.0,0.0,2.3547,2.4534,2.4455,2.3121,2.4051,2.3588,2.1807,2.1807,2.1807,2.1807,2.1359,2.1721,2.2723,2.3231,2.4047,2.5087,2.6094,2.6533,2.6533,2.6533,2.6905,2.7484,2.6905,2.8117,3.0011,2.938,3.0208,3.1482,3.1482,3.1482,0.0,0.0,0.0,3.1482,3.1482,3.1482,3.1482,3.1482,0.0,3.1482,0.0,3.2018,3.2691,0.0,0.0,3.4666,0.0,0.0,0.0,0.0,0.0,0.0,0.0,0.0,0.0,0.0,0.0,0.0,0.0,0.0,0.0,0.0,0.0,0.0,0.0,2.9219,2.9093,2.9827,2.9093,2.8675,2.8803,2.9331,2.9331,2.861,2.9331,2.9642,2.9704,3.0526,3.0999,3.113,3.216,3.1992,3.097,3.169,3.2059,3.2272,3.2904,3.3435,3.3882,3.3949,3.4218,3.4593,3.4593,3.4593,3.4724,0.0,0.0,0.0,0.0,0.0,0.0,0.0,0.0,0.0,0.0,0.0,0.0,0.0,0.0,0.0,0.0,0.0,0.0,0.0,0.0,0.0,2.473,2.4953,2.4719,2.4074,2.4446,2.3734,2.1807,2.2883,2.2809,2.1655,2.2446,2.3021,2.3463,2.3599,2.448,2.5873,2.6314,2.6533,2.6533,2.6533,2.6973,2.767,2.7284,2.8492,3.0269,2.9889,3.0524,3.1482,3.1482,3.1482,3.1482,3.1482,0.0,0.0,0.0,3.1482,3.1482,3.1482,3.1482,3.1482,0.0,3.2302,3.314,3.3425,0.0,3.513,0.0,0.0,0.0,0.0,0.0,0.0,0.0,0.0,0.0,0.0,0.0,0.0,0.0,0.0,0.0,0.0,0.0,0.0,0.0,3.0346,3.0286,3.0645,2.9889,2.9704,3.0104,3.0072,2.9827,2.947,2.9827,3.0254,3.0659,3.0999,3.1477,3.2033,3.2523,3.2468,3.212,3.2547,3.2819,3.2904,3.3187,3.3607,3.4101,3.4101,3.4366,3.4769,3.4769,3.5112,3.5523,0.0,0.0,0.0,0.0,0.0,0.0,0.0,0.0,0.0,0.0,0.0,0.0,0.0,0.0,0.0,0.0,0.0,0.0,0.0,0.0,0.0,2.5908,2.5603,2.524,2.5028,2.4957,2.4036,2.2111,2.3745,2.3526,2.1578,2.3316,2.4108,2.4108,2.4108,2.4992,2.6533,2.6533,2.6533,2.6521,2.6714,2.7162,2.7736,2.792,2.9002,3.0329,3.0329,3.0837,3.1482,3.1482,3.1482,3.1482,3.1482,3.1482,0.0,0.0,0.0,3.1739,0.0,0.0,3.2194,3.1837,3.293,3.3954,0.0,0.0,3.5459,0.0,0.0,0.0,0.0,0.0,0.0,0.0,0.0,0.0,0.0,0.0,0.0,0.0,0.0,0.0,0.0,0.0,0.0,0.0,3.1304,3.1289,3.1477,3.0719,3.06,3.1174,3.0837,3.048,3.03,3.048,3.0896,3.1477,3.1477,3.1849,3.2523,3.2648,3.2773,3.2897,3.315,3.3256,3.3309,3.3309,3.3694,3.4284,3.4284,3.4642,3.527,3.5455,3.5833,3.6194,0.0,0.0,0.0,0.0,0.0,0.0,0.0,0.0,0.0,0.0,0.0,0.0,0.0,2.1978,2.1993,2.3128,2.2655,2.3108,2.5103,2.5282,2.5933,2.7324,2.7242,0.0,2.5755,2.5627,2.4707,2.2927,2.3768,2.3327,2.1807,2.339,2.4108,2.4108,2.4707,2.5511,2.6533,2.6533,2.6533,2.6589,2.7351,2.767,2.7802,2.862,2.9504,3.0329,3.0329,3.0837,3.1482,3.1482,3.1482,3.1482,3.1482,3.1482,3.1482,0.0,0.0,0.0,0.0,3.298,0.0,3.2791,3.3998,3.5322,0.0,0.0,0.0,0.0,0.0,0.0,0.0,0.0,0.0,0.0,0.0,0.0,0.0,0.0,0.0,0.0,0.0,0.0,0.0,0.0,0.0,0.0,3.1664,3.1534,3.2272,3.1549,3.1174,3.1174,3.1905,3.1905,3.1174,3.1905,3.2272,3.2342,3.2342,3.2327,3.2398,3.2718,3.2897,3.2912,3.3058,3.3203,3.3309,3.3309,3.3882,3.4769,3.4769,3.5436,3.6488,3.7249,3.7076,3.6703,0.0,0.0,0.0,0.0,0.0,0.0,0.0,0.0,0.0,0.0,0.0,0.0,0.0,2.287,2.2823,2.3024,2.3634,2.4463,2.5549,2.6113,2.6713,2.7323,2.662,2.6057,2.5697,2.4981,2.4337,2.3694,2.4108,2.3879,2.3095,2.4469,2.4909,2.4707,2.5004,2.5664,2.6533,2.6533,2.6533,2.6589,2.7351,2.8051,2.862,2.9504,3.0329,3.1087,0.0,0.0,3.1482,3.1482,3.1482,3.1482,3.1482,3.1482,3.1582,3.2064,3.2382,0.0,0.0,0.0,0.0,3.4062,3.4758,3.5533,3.5262,3.5347,0.0,0.0,0.0,0.0,0.0,0.0,0.0,0.0,0.0,0.0,0.0,0.0,0.0,0.0,0.0,0.0,0.0,0.0,0.0,0.0,0.0,3.2089,3.2398,3.2145,3.1962,3.1962,3.2272,3.2272,3.1962,3.2272,3.2398,3.2398,3.2398,3.2453,3.2523,3.3033,3.3282,3.3507,3.3885,3.3951,3.3797,3.3361,3.4018,3.5299,3.4911,3.5887,3.7428,3.7071,3.7579,3.8327,0.0,0.0,0.0,0.0,0.0,0.0,0.0,0.0,0.0,0.0,0.0,0.0,0.0,0.0,2.4023,2.3917,2.4921,2.5673,2.6171,2.6714,2.7079,2.7214,2.6427,2.5988,2.5988,2.4921,2.442,2.448,2.4541,2.4385,2.3963,2.5276,2.5652,2.5087,2.5523,2.6025,2.6533,2.6533,2.6533,2.6589,2.767,2.8492,2.9129,2.995,3.0969,0.0,0.0,0.0,0.0,3.1556,3.1482,3.1511,3.1735,3.2018,3.23,3.3059,3.349,0.0,3.4181,0.0,0.0,0.0,3.6039,3.6611,3.6393,0.0,0.0,0.0,0.0,0.0,0.0,0.0,0.0,0.0,0.0,0.0,0.0,0.0,0.0,0.0,0.0,0.0,0.0,0.0,0.0,0.0,0.0,0.0,3.2398,3.2398,3.2398,3.2398,3.2398,3.2398,3.2398,3.2398,3.2398,3.2398,3.2398,3.2453,3.2563,3.3198,3.3547,3.3767,3.435,3.4512,3.4284,3.3832,3.4431,3.5605,3.5609,3.642,3.7539,3.7515,3.7971,3.8503,0.0,0.0,0.0,0.0,0.0,0.0,0.0,0.0,0.0,2.3454,0.0,0.0,0.0,0.0,0.0,2.6114,2.6531,2.6863,2.7011,2.7011,2.7024,2.7024,2.6794,2.6714,2.6714,2.5581,2.5087,2.5312,2.5087,2.4707,2.4192,2.5721,2.6025,2.5382,2.6164,2.6533,2.6533,2.6533,2.6533,2.6658,0.0,2.9016,2.9129,0.0,0.0,0.0,3.0891,3.1262,0.0,3.1735,0.0,0.0,0.0,3.2976,3.3668,3.4472,3.5172,3.5694,0.0,0.0,0.0,0.0,0.0,0.0,3.7946,0.0,0.0,0.0,0.0,0.0,0.0,0.0,0.0,0.0,0.0,0.0,0.0,0.0,0.0,0.0,0.0,0.0,0.0,0.0,0.0,0.0,3.2398,3.2398,3.2398,3.2398,3.2398,3.2398,3.2398,3.2398,3.2453,3.2453,3.2437,3.2437,3.2437,3.2437,3.2492,3.3287,3.3633,3.3684,3.4382,3.4752,3.4864,3.4816,3.5115,3.5728,3.6747,3.699,3.6951,3.8749,3.8345,3.7131,0.0,0.0,0.0,0.0,0.0,0.0,2.3826,2.4387,2.471,0.0,0.0,0.0,2.6175,2.7287,2.8008,2.817,2.8268,2.8182,2.7749,2.7617,2.731,2.6794,2.6658,2.6589,2.6589,2.5511,2.537,2.6176,2.4779,2.4696,2.5791,2.5734,2.5816,2.6176,2.6383,2.6533,2.6533,2.6533,0.0,2.6696,2.8835,2.9453,0.0,0.0,0.0,0.0,0.0,3.2154,3.2557,0.0,3.2961,3.2976,0.0,3.335,3.3774,3.5043,3.5545,3.5927,3.7019,0.0,0.0,0.0,0.0,0.0,0.0,0.0,0.0,0.0,0.0,0.0,0.0,0.0,0.0,0.0,0.0,0.0,0.0,0.0,0.0,0.0,0.0,0.0,0.0,0.0,0.0,0.0,3.2398,3.2398,3.2398,3.2398,3.2398,3.2398,3.2398,3.2641,3.3145,3.313,3.3391,3.3836,3.3836,3.3836,3.3887,3.4576,3.4878,3.4925,3.5537,3.5924,3.5941,3.5035,3.5357,3.6395,3.6216,3.6894,3.799,3.7672,3.8219,3.9079,0.0,0.0,0.0,0.0,0.0,0.0,2.4965,2.5398,2.5747,0.0,0.0,0.0,2.7669,2.8543,2.9002,2.9002,2.9002,2.8684,2.792,2.7802,2.7351,2.6658,2.6521,2.6533,2.6533,2.5511,2.5511,2.6533,2.4992,2.5063,2.6465,2.6025,2.6025,2.6533,2.6533,2.6533,2.6546,2.6703,0.0,0.0,2.8835,0.0,0.0,3.1308,3.2109,0.0,0.0,0.0,3.335,3.3455,3.3679,0.0,0.0,3.4316,3.5049,3.6235,3.6796,3.7285,3.8472,3.9123,3.9445,0.0,0.0,0.0,3.8852,3.8421,0.0,0.0,0.0,0.0,0.0,0.0,0.0,0.0,0.0,0.0,0.0,0.0,0.0,0.0,0.0,0.0,0.0,3.3391,3.3093,3.2841,3.2547,3.2398,3.2342,3.2342,3.2398,3.2342,3.2398,3.2695,3.3287,3.3391,3.3684,3.4333,3.4382,3.4382,3.4431,3.5081,3.5419,3.5419,3.6114,3.6444,3.6444,3.5688,3.5924,3.6719,3.6839,3.7254,3.7809,3.8042,3.8681,3.9426,0.0,0.0,0.0,2.5434,2.6161,2.6657,2.6546,2.6532,2.6715,0.0,2.7366,2.7782,2.901,2.9192,2.9254,2.9254,2.9254,2.8939,2.8051,2.7986,2.7604,2.6782,2.6658,2.6658,2.6658,2.5652,2.5594,2.6533,2.5594,2.5652,2.6658,2.6521,2.6589,2.6782,0.0,0.0,2.6772,0.0,0.0,2.7761,2.8876,2.9582,0.0,0.0,3.235,3.3438,3.2703,3.3353,3.4397,3.3888,3.416,0.0,0.0,0.0,0.0,0.0,3.8414,3.9086,3.9901,4.007,4.007,4.007,0.0,0.0,3.9969,3.9884,3.9445,0.0,0.0,0.0,0.0,0.0,0.0,0.0,0.0,0.0,0.0,0.0,0.0,0.0,0.0,0.0,3.4235,3.3751,3.3391,3.3443,3.2895,3.2547,3.2453,3.2547,3.2547,3.2342,3.2547,3.2841,3.3339,3.3547,3.3887,3.4414,3.4576,3.4624,3.4624,3.522,3.5509,3.5554,3.6216,3.6502,3.6502,3.6544,3.6585,3.6812,3.788,3.7721,3.7066,3.9079,3.9355,3.8919,0.0,0.0,2.6056,2.6795,2.7176,2.7516,2.7768,2.8468,2.889,2.8699,2.9251,2.9746,2.9997,3.0644,3.1029,3.1029,3.1029,3.0644,2.9827,2.9766,2.938,2.8556,2.7868,2.7484,2.7484,2.6633,2.6314,2.6533,2.6314,2.6633,2.7484,2.6782,2.7229,2.8492,2.7802,2.7719,0.0,0.0,0.0,2.9862,3.0883,0.0,3.1883,3.3328,3.3704,3.3559,3.3895,3.4226,3.4547,3.4966,3.5576,3.6184,0.0,0.0,0.0,3.8469,0.0,0.0,0.0,0.0,0.0,0.0,0.0,0.0,3.9343,3.8751,3.8075,0.0,0.0,0.0,0.0,0.0,0.0,0.0,0.0,0.0,0.0,0.0,0.0,0.0,0.0,0.0,3.4721,3.456,3.4317,3.3919,3.3767,3.3767,3.3987,3.3887,3.3633,3.3198,3.3735,3.4087,3.4186,3.4736,3.5311,3.5907,3.5907,3.5924,3.5907,3.6054,3.6114,3.6156,3.6402,3.6502,3.6502,3.665,3.6748,3.6806,3.698,3.7048,3.7175,3.8341,3.9231,3.9958,2.7065,2.7312,2.7586,2.8175,2.8713,2.9103,2.9199,2.9674,3.0042,3.0225,3.0644,3.1058,3.1435,3.1807,3.2064,3.2064,3.2064,3.1522,3.0389,3.0329,2.9889,2.9066,2.8182,2.767,2.767,2.6905,2.6533,2.6533,2.6905,2.7284,2.767,2.7736,2.8182,2.9016,2.8869,2.9023,0.0,0.0,3.1225,3.1833,3.1921,0.0,3.2804,3.4006,3.4325,3.4192,3.4805,3.4996,3.504,3.5385,3.5733,0.0,3.6492,3.7144,3.7921,0.0,3.9193,3.961,0.0,0.0,0.0,4.007,0.0,0.0,0.0,3.9452,3.9076,0.0,0.0,0.0,0.0,0.0,0.0,0.0,0.0,0.0,0.0,0.0,0.0,0.0,0.0,0.0,3.5316,3.4975,3.4577,3.4036,3.3986,3.407,3.4186,3.4186,3.4087,3.3786,3.4186,3.4528,3.4783,3.5174,3.5677,3.6233,3.6259,3.6301,3.6301,3.6301,3.636,3.6402,3.6444,3.6544,3.6602,3.6725,3.6748,3.6829,3.6851,3.697,3.7235,3.828,3.9272,4.0269,2.8771,2.8914,2.9145,2.9668,3.029,3.0654,3.0571,3.0524,3.0777,3.1409,3.1482,3.1796,3.2547,3.2586,3.2641,3.2788,3.2788,3.2226,3.0852,3.0733,3.036,2.9504,2.8684,2.8182,2.8182,2.7417,2.6973,2.6973,2.7604,2.8051,2.8247,2.8871,2.9358,2.9701,3.0355,3.0642,3.0709,0.0,0.0,3.3587,0.0,3.3287,3.3667,3.4396,3.4793,3.4916,3.5359,3.5504,3.5504,3.5504,3.5619,3.5846,3.6569,3.7381,0.0,0.0,0.0,0.0,0.0,0.0,0.0,0.0,0.0,4.0121,0.0,0.0,0.0,0.0,0.0,0.0,0.0,0.0,0.0,0.0,0.0,0.0,0.0,0.0,0.0,0.0,0.0,0.0,0.0,3.527,3.4785,3.4382,3.4333,3.4317,3.4382,3.4479,3.4479,3.4382,3.4624,3.4925,3.5237,3.5464,3.581,3.6208,3.6259,3.6301,3.6301,3.6301,3.6343,3.6444,3.6502,3.6544,3.6643,3.6702,3.6806,3.693,3.7031,3.7108,3.7291,3.8629,3.9605,4.0436,3.0337,3.0113,3.0335,3.1101,3.1362,3.1377,3.1394,3.1351,3.1409,3.1482,3.1482,3.1796,3.2547,3.2586,3.2841,3.3443,3.3495,0.0,3.2407,0.0,3.1977,3.1278,3.045,3.0011,3.0011,2.9192,2.8748,2.8748,2.8812,2.9254,3.0025,2.9925,3.0714,3.2109,3.272,0.0,0.0,0.0,3.5061,0.0,3.5797,3.573,0.0,3.532,3.5385,3.54,3.5474,3.5504,3.5504,0.0,3.5943,3.6615,0.0,3.8189,3.8908,3.9731,0.0,0.0,0.0,0.0,0.0,0.0,4.007,0.0,0.0,0.0,4.0043,4.0411,0.0,3.8468,3.8309,0.0,0.0,0.0,0.0,0.0,0.0,0.0,0.0,0.0,0.0,0.0,0.0,3.556,3.5515,3.5577,3.547,3.5515,3.5766,3.5783,3.5571,3.5081,3.5732,3.5881,3.5374,3.5924,3.6216,3.6301,3.6301,3.6301,3.6301,3.6301,3.6301,3.6343,3.6444,3.6502,3.6544,3.6643,3.693,3.7319,3.7087,3.7143,3.7532,3.9554,4.0437,4.0904,3.2314,3.1901,3.1736,3.2048,3.1796,3.164,3.2064,3.212,3.2272,3.2664,3.2367,3.2571,0.0,0.0,0.0,0.0,0.0,3.3735,0.0,0.0,3.2272,3.1524,3.0718,3.0329,3.0329,2.9855,2.9578,2.9578,3.0467,3.1019,3.1426,3.1826,3.2423,3.311,3.4197,0.0,3.4633,0.0,3.6137,0.0,0.0,0.0,0.0,3.6165,3.5943,3.5589,3.5589,3.5589,3.5653,0.0,3.6054,0.0,0.0,0.0,0.0,3.9731,0.0,0.0,0.0,0.0,0.0,0.0,0.0,0.0,4.0368,0.0,4.0893,0.0,0.0,0.0,0.0,0.0,0.0,0.0,3.7808,0.0,0.0,0.0,0.0,0.0,0.0,0.0,0.0,0.0,0.0,0.0,3.5711,3.5773,3.5905,3.6036,3.6019,3.5783,3.6131,3.6156,3.5924,3.6156,3.6301,3.6301,3.6301,3.6343,3.6402,3.636,3.6385,3.6544,3.6444,3.6444,3.6602,3.6702,3.7009,3.7432,3.7411,3.7595,3.7934,3.8912,3.9692,4.0382,3.4301,3.3566,3.2895,3.2895,3.2407,3.2256,3.2788,0.0,0.0,0.0,0.0,0.0,3.4479,3.4576,0.0,0.0,3.4894,3.4399,0.0,0.0,3.2827,0.0,0.0,0.0,3.1161,3.1042,3.0942,3.0942,3.2052,3.2664,3.2901,3.3681,3.4091,3.4122,0.0,3.611,3.5902,0.0,3.7024,3.7247,3.7247,3.7247,3.7172,3.6783,3.6212,3.5638,3.5864,3.5976,3.6039,3.6737,3.6585,0.0,3.8286,0.0,3.8374,0.0,0.0,0.0,4.007,0.0,0.0,0.0,0.0,0.0,0.0,0.0,0.0,0.0,0.0,0.0,0.0,0.0,3.8964,0.0,0.0,3.8267,0.0,0.0,0.0,0.0,0.0,0.0,0.0,0.0,0.0,0.0,0.0,3.5773,3.5817,3.6036,3.6122,3.6122,3.6233,3.6301,3.6259,3.6301,3.6301,3.6301,3.6301,3.6343,3.6444,3.6468,3.6591,3.6771,3.6591,3.6673,3.6908,3.6908,3.7206,3.7703,3.7913,3.8216,3.8572,3.8823,3.9387,4.0133,3.6105,3.4811,3.3598,3.3598,0.0,0.0,0.0,0.0,0.0,0.0,0.0,0.0,0.0,0.0,0.0,0.0,0.0,3.5253,3.4576,0.0,3.4249,0.0,0.0,3.3396,0.0,3.3381,3.3393,3.3393,3.3423,3.3834,3.4647,3.5282,3.5502,3.5592,3.7049,3.7306,3.6645,3.744,3.8189,3.8854,3.8854,3.8854,3.8674,0.0,3.6165,3.5619,3.6337,0.0,0.0,3.7515,3.7764,0.0,0.0,0.0,0.0,0.0,0.0,0.0,0.0,0.0,0.0,4.007,0.0,0.0,0.0,0.0,4.2103,0.0,0.0,0.0,4.1222,4.0396,3.9606,3.8836,0.0,0.0,0.0,0.0,0.0,0.0,0.0,0.0,0.0,0.0,0.0,0.0,0.0,0.0,3.5773,3.5932,3.6019,3.6019,3.6174,3.6276,3.6208,3.6276,3.6301,3.6301,3.6301,3.6301,3.6343,3.6719,3.6921,3.6981,3.7034,3.7206,3.7394,3.7394,3.7685,3.8212,3.8548,3.8942,3.944,4.003,4.0337,4.0651,3.581,3.5671,3.5318,0.0,0.0,0.0,0.0,3.4284,0.0,0.0,0.0,0.0,0.0,3.5253,3.5362,0.0,0.0,3.5316,3.4624,3.46,0.0,0.0,0.0,3.3501,0.0,0.0,3.4143,3.4143,3.4607,3.5213,3.5949,3.6166,3.6259,3.6335,0.0,3.8133,0.0,0.0,0.0,0.0,0.0,3.8635,3.8149,0.0,0.0,3.7203,3.7338,3.744,0.0,3.8286,3.8189,3.8035,3.9262,3.9315,3.9086,3.9833,4.007,0.0,0.0,0.0,4.0528,4.0204,0.0,0.0,0.0,0.0,0.0,0.0,0.0,0.0,0.0,0.0,3.9643,3.8836,3.8707,0.0,0.0,0.0,0.0,0.0,0.0,0.0,0.0,0.0,0.0,0.0,3.6002,0.0,0.0,3.6165,3.6266,3.5905,3.6308,3.6433,3.6208,3.6208,3.6276,3.6301,3.6301,3.6509,3.6816,3.6939,3.721,3.7596,3.7578,3.7684,3.7857,3.7857,3.8143,3.8591,3.873,3.9045,3.9483,3.9642,3.9788,3.9977,3.5871,3.6028,0.0,0.0,0.0,0.0,0.0,0.0,0.0,0.0,3.5207,0.0,3.556,0.0,3.5622,0.0,3.5622,3.5525,3.5388,3.5346,0.0,3.5151,3.5027,0.0,0.0,0.0,0.0,0.0,3.5667,3.629,3.7024,3.7306,3.7408,3.7467,0.0,3.8635,3.8189,3.869,3.9086,0.0,0.0,3.9049,0.0,0.0,3.8117,3.7526,0.0,3.8246,3.8398,3.9086,3.8978,3.8778,3.9799,3.9714,3.9437,3.9952,4.007,4.007,4.007,4.0497,0.0,4.0449,4.0797,0.0,4.149,0.0,0.0,0.0,0.0,0.0,0.0,0.0,0.0,3.9258,3.8891,3.8707,0.0,3.8707,0.0,0.0,0.0,0.0,0.0,0.0,0.0,3.6943,3.6539,3.6266,0.0,0.0,3.6746,3.6333,3.6786,3.6904,3.662,3.6701,3.6764,3.6786,3.6786,3.6981,3.7303,3.7433,3.7684,3.8111,3.8092,3.819,3.835,3.835,3.8554,3.8857,3.898,3.9245,3.9521,3.9496,3.9575,3.9735,3.6308,0.0,0.0,0.0,3.5639,0.0,0.0,0.0,3.5639,0.0,3.5639,3.5622,3.5622,3.5656,3.5673,3.5673,3.5707,3.6045,3.6835,3.6804,0.0,0.0,3.7861,3.7826,3.7817,0.0,0.0,0.0,0.0,3.7024,3.7822,3.858,3.8908,3.8908,3.8962,0.0,3.8908,3.8962,3.9368,4.007,4.0138,4.007,4.007,4.007,3.869,3.6888,3.8453,3.8962,3.9086,3.9833,4.0138,4.007,4.007,4.007,4.007,4.007,4.007,4.0138,4.0121,4.0528,4.0949,4.0949,0.0,0.0,0.0,0.0,4.2864,0.0,0.0,0.0,0.0,0.0,0.0,4.0029,3.9221,3.8707,0.0,0.0,0.0,0.0,0.0,0.0,0.0,3.8216,3.7893,3.7893,3.747,3.721,0.0,0.0,3.7305,3.7305,3.7506,3.756,3.7416,3.7596,3.7701,3.7701,3.7701,3.7701,3.7736,3.8111,3.8368,3.8536,3.8591,3.87,3.8847,3.8847,3.8857,3.8971,3.9354,3.9546,3.9602,3.9594,3.9735,3.9889,3.6374,3.674,3.712,0.0,3.65,3.5808,0.0,0.0,0.0,0.0,3.5977,3.5622,3.5728,3.6282,3.6667,3.674,3.716,0.0,0.0,0.0,0.0,3.7874,3.7861,3.7826,3.7817,3.7001,3.6615,3.6615,0.0,3.7024,3.7822,3.858,3.8908,3.8908,0.0,3.9437,3.8962,3.9558,3.9901,4.0138,4.0188,3.9833,0.0,0.0,3.9437,3.8453,3.9542,3.9901,3.9833,4.0138,4.0188,4.007,4.007,4.007,4.007,4.007,4.007,4.0204,4.0577,4.1133,4.1578,4.1578,4.2021,4.2519,0.0,0.0,0.0,0.0,0.0,0.0,0.0,0.0,0.0,0.0,0.0,0.0,0.0,0.0,0.0,3.8999,0.0,0.0,0.0,3.8216,3.7893,3.7893,3.747,3.7228,3.721,0.0,0.0,3.7248,3.7667,3.7737,3.7416,3.7542,3.7649,3.7701,3.7701,3.7857,3.8143,3.8323,3.8573,3.8952,3.9027,3.9156,3.9328,3.9328,3.938,3.9439,3.9527,3.962,3.965,3.9684,3.9735,3.9826,3.7231,0.0,0.0,3.8105,0.0,0.0,3.6772,0.0,0.0,3.6772,3.6688,0.0,3.6729,3.7148,3.7449,3.7449,3.7887,0.0,3.8489,0.0,0.0,3.8853,3.8899,3.8867,3.8785,3.8019,0.0,3.7584,0.0,3.7831,3.8302,3.9102,3.9437,3.9437,0.0,3.985,3.9437,3.9901,4.007,4.0138,4.0188,3.9901,0.0,4.007,3.9952,3.9594,4.0171,4.0288,4.0188,4.0337,4.0337,4.0271,4.0188,4.0188,4.0188,4.0138,4.007,4.0204,4.0733,4.1358,4.1853,4.2121,4.2637,4.305,4.305,4.305,4.3142,0.0,0.0,0.0,0.0,0.0,0.0,0.0,0.0,0.0,0.0,0.0,0.0,0.0,3.9314,0.0,0.0,3.8579,3.8267,3.8267,3.8016,3.7861,0.0,0.0,0.0,3.7861,3.8165,3.8245,3.8011,3.8129,3.8194,3.8291,3.8291,3.8387,3.867,3.87,3.8865,3.9156,3.9183,3.9301,3.9469,3.9495,3.952,3.9571,3.9596,3.9602,3.9669,3.9777,3.987,3.9897,3.8461,0.0,0.0,0.0,0.0,0.0,0.0,3.755,0.0,3.7144,0.0,3.7905,3.7953,3.8116,3.8214,3.8136,0.0,3.8798,3.9205,3.9433,3.9722,4.0154,4.0238,4.0238,4.0138,3.9315,3.8908,0.0,0.0,3.8908,3.8908,3.9714,4.007,4.007,0.0,0.0,0.0,4.007,4.007,4.007,4.0138,4.0138,4.0138,4.0288,4.0305,4.0305,4.0485,4.0436,4.0337,4.0485,4.0485,4.0485,4.0337,4.0355,4.0288,4.0271,4.0204,4.0385,4.0967,4.1534,4.2062,4.2655,4.3178,4.3497,4.3497,4.3497,4.3497,4.3497,4.3497,4.3497,0.0,0.0,0.0,0.0,0.0,0.0,0.0,0.0,0.0,0.0,0.0,0.0,0.0,0.0,3.8762,3.8762,3.8719,3.8707,0.0,0.0,0.0,3.8707,3.878,3.8792,3.8792,0.0,3.8921,3.8979,3.9007,3.9036,3.9101,3.9101,3.9129,3.9183,3.9183,3.9256,3.9418,3.9469,3.9495,3.952,3.9596,3.9626,3.9674,3.9889,4.002,4.0043,3.9359,0.0,0.0,0.0,0.0,3.9462,3.8717,3.821,3.8075,3.8548,3.8193,3.7984,3.8138,3.8747,3.9217,3.937,3.9924,0.0,0.0,0.0,0.0,4.0419,4.0337,4.0305,4.0255,3.9368,3.8908,0.0,0.0,0.0,3.8908,3.9714,4.007,4.007,0.0,0.0,4.007,4.007,0.0,4.0138,4.0238,4.0188,4.0121,4.0387,4.0387,4.0355,4.06,4.0583,4.0485,4.0485,4.0485,4.0485,4.0485,4.0485,4.0517,4.0832,4.0908,4.1122,4.2121,4.248,4.2675,4.3214,4.341,4.3497,4.3497,4.3497,4.3497,4.3497,4.3497,4.3497,4.3497,0.0,0.0,0.0,0.0,0.0,0.0,0.0,0.0,0.0,0.0,3.9901,0.0,0.0,3.9036,3.9036,3.8815,0.0,0.0,0.0,0.0,0.0,3.878,0.0,0.0,0.0,3.8979,3.8979,3.9064,3.9073,3.9101,3.9101,3.9101,3.9129,3.9129,3.9229,3.9391,3.9418,3.9495,3.9577,3.9596,3.9703,3.9848,3.9892,4.0139,4.0406,0.0,0.0,0.0,0.0,0.0,0.0,0.0,3.9753,0.0,3.9037,3.9005,3.9071,3.9183,3.9685,3.9987,4.0035,4.0521,4.0745,4.06,4.068,4.0631,4.0534,4.0485,4.0453,4.0288,3.9833,3.9594,3.9542,0.0,0.0,3.9542,0.0,0.0,4.007,0.0,4.0237,0.0,0.0,0.0,4.0984,4.1047,4.1047,4.0984,4.1185,4.123,4.1185,4.1036,4.1007,4.1007,4.0758,4.068,4.0583,4.0583,4.0789,4.099,4.0849,4.1019,4.1393,4.2121,4.2342,4.2541,4.3356,4.3532,4.3532,4.3548,4.3513,4.3497,4.3497,4.3497,4.3497,4.3497,4.3458,0.0,0.0,0.0,0.0,0.0,0.0,0.0,0.0,0.0,0.0,0.0,0.0,0.0,0.0,0.0,0.0,0.0,0.0,0.0,0.0,0.0,0.0,0.0,0.0,0.0,3.8979,3.9036,3.9073,3.9101,3.9101,3.9101,3.9101,3.9101,3.9219,3.9477,3.967,3.9807,3.9914,3.9914,3.9958,4.006,4.0177,4.0319,4.05,0.0,4.2382,0.0,0.0,4.1621,0.0,4.0827,4.0938,4.0654,3.944,3.9832,4.0188,4.0221,4.0436,4.0485,4.0436,4.0745,4.0823,4.0583,4.0776,4.0823,4.0583,4.0648,4.0551,4.0355,4.0288,4.0188,0.0,0.0,0.0,0.0,0.0,0.0,0.0,0.0,0.0,0.0,0.0,4.1358,4.181,4.181,4.181,4.1793,4.1937,4.2021,4.1979,4.1639,4.1569,4.1648,4.1328,4.1071,4.0901,4.0901,4.1265,4.1613,4.1185,4.1331,4.1793,4.2266,4.2386,4.26,4.3426,4.36,4.3566,4.3582,4.3548,4.3532,4.3479,4.3497,4.3513,4.3597,4.3881,0.0,0.0,0.0,0.0,0.0,0.0,0.0,0.0,0.0,0.0,4.0489,0.0,0.0,0.0,0.0,0.0,0.0,0.0,0.0,0.0,0.0,3.8773,3.8792,0.0,3.8881,3.8979,3.8979,3.9036,3.9101,3.9101,3.9137,3.9192,3.9192,3.9345,3.9664,3.9982,4.0139,4.0214,4.0195,4.0232,4.0285,4.0434,4.0545,4.0568,0.0,0.0,0.0,0.0,0.0,0.0,4.0254,4.0577,4.0733,4.0235,4.0336,4.0485,4.0648,4.0648,4.0745,4.0823,4.0888,4.0888,4.0871,4.0888,4.0888,4.0871,4.0631,4.0534,4.0485,4.0221,4.0121,0.0,0.0,4.007,0.0,0.0,0.0,0.0,0.0,0.0,0.0,4.1725,4.175,4.181,4.181,4.181,4.1793,4.1937,4.2062,4.2085,4.2185,4.2208,4.2226,4.2324,4.2015,4.1622,4.1622,4.1973,4.2483,4.2774,4.2886,4.3014,4.3495,4.3634,4.3652,4.3771,4.3771,4.3753,4.3634,4.3582,4.3582,4.3513,4.3497,4.3597,4.3912,4.428,4.4612,0.0,0.0,0.0,0.0,0.0,4.1764,4.1816,0.0,0.0,0.0,4.0269,0.0,0.0,3.9432,0.0,0.0,0.0,0.0,3.8707,0.0,3.8961,3.8689,3.8762,3.8851,3.891,3.895,3.9036,3.9101,3.9101,3.9227,3.9476,3.9476,3.9687,4.0042,4.0139,4.0177,4.0214,4.0212,4.0298,4.0462,4.0482,4.063,4.0765,0.0,0.0,0.0,0.0,0.0,0.0,0.0,4.1682,4.181,4.1019,4.0896,4.0896,4.1036,4.0853,4.0697,4.0793,4.0823,4.0888,4.0888,4.0888,4.0888,4.0888,4.0728,4.0583,4.0485,4.0337,4.0188,0.0,0.0,0.0,0.0,0.0,0.0,0.0,0.0,4.1768,4.2342,4.2342,4.2541,4.281,4.281,4.281,4.2847,4.2922,4.2959,4.2996,4.2811,4.2774,4.2736,4.2562,4.2284,4.208,4.2162,4.2505,4.2886,4.2792,4.2923,4.3194,4.3355,4.3389,4.3442,4.3767,4.3837,4.3804,4.3767,4.3701,4.3582,4.3548,4.3532,4.3597,4.3924,4.4318,4.4707,0.0,0.0,0.0,0.0,0.0,0.0,4.3297,0.0,4.1277,0.0,0.0,0.0,0.0,0.0,0.0,0.0,0.0,0.0,3.9242,0.0,3.9358,3.9294,3.932,3.9371,3.9445,3.947,3.9519,3.9566,3.9566,3.9641,3.974,3.9945,4.012,4.0285,4.0485,4.0559,4.0559,4.0563,4.0604,4.0674,4.0667,4.0754,4.0848,4.3497,0.0,4.2902,0.0,4.2711,4.248,4.1895,4.2262,4.2342,4.1639,4.1348,4.1185,4.1202,4.0948,4.0745,4.0745,4.084,4.0888,4.0888,4.0888,4.0888,4.0888,4.0728,0.0,4.0485,4.0337,4.0188,4.007,4.0237,0.0,0.0,0.0,0.0,0.0,4.2062,4.2382,4.2939,4.2939,4.3124,4.3497,4.3497,4.3513,4.3513,4.3582,4.3649,4.3649,4.3424,4.3353,4.3318,4.3051,4.2886,4.2811,4.2736,4.3032,4.3369,4.3051,4.3159,4.3403,4.3387,4.3353,4.3474,4.3846,4.3897,4.3851,4.3897,4.3767,4.3634,4.3582,4.3548,4.3646,4.4106,4.4419,4.4732,4.518,0.0,0.0,0.0,0.0,0.0,0.0,4.3047,4.2085,4.1816,4.1239,0.0,0.0,0.0,0.0,0.0,0.0,0.0,0.0,0.0,0.0,0.0,3.9687,3.9712,3.98,4.0068,4.0089,3.9943,4.0291,4.0559,4.0825,4.0912,4.0945,4.0906,4.0854,4.0826,4.0837,4.0839,4.0829,4.0859,4.0869,4.1053,4.1286,4.3497,4.3479,4.3321,4.2788,4.2711,4.248,4.1895,4.1937,4.2021,4.2085,4.1743,4.1356,4.0965,4.0888,4.0888,4.0888,4.0888,4.0888,4.0888,4.0888,4.0888,0.0,0.0,4.0485,4.0485,4.0238,4.007,4.007,0.0,0.0,4.0903,0.0,4.2121,4.2711,4.2711,4.2976,4.3479,4.3479,4.3479,4.3497,4.3497,4.3548,4.3582,4.3582,4.3716,4.3915,4.3897,4.391,4.4005,4.3986,4.3974,4.3892,4.3369,4.3575,4.4005,4.3986,4.4005,4.4005,4.4005,4.4005,4.4005,4.4005,4.4005,4.3974,4.3897,4.3851,4.3738,4.3532,4.3548,4.3809,4.4474,4.4599,4.4806,4.5495,0.0,0.0,0.0,0.0,0.0,4.4297,4.3585,4.2758,4.1893,4.1797,0.0,0.0,0.0,0.0,0.0,0.0,0.0,3.9622,3.9922,0.0,3.9599,3.9599,3.9671,3.9804,4.0663,4.0706,4.0043,4.1159,4.2136,4.293,4.24,4.2188,4.211,4.1247,4.0906,4.0904,4.0904,4.0941,4.0996,4.0999,4.1532,4.2155,4.3497,4.3214,4.2902,4.275,4.2732,4.2696,4.2505,4.26,4.2562,4.2266,4.1785,4.1373,4.0918,4.0888,4.0888,0.0,4.0888,4.0888,0.0,4.0888,4.0888,4.0888,4.0745,4.0583,4.0485,4.0337,4.0188,4.007,0.0,0.0,0.0,4.2342,4.2714,4.325,4.325,4.3339,4.3497,4.3497,4.3497,4.3479,4.3548,4.3582,4.3615,4.3749,4.3832,4.3915,4.3942,4.3974,4.4005,4.4005,4.4005,4.3955,4.3809,4.3841,4.4005,4.4005,4.4005,4.4005,4.4005,4.4005,4.4005,4.4005,4.4005,4.4005,4.3974,4.3883,4.3771,4.36,4.3582,4.3791,4.4474,4.465,4.4872,4.5495,4.5586,0.0,0.0,0.0,0.0,4.5182,4.4432,4.3816,0.0,4.3008,0.0,0.0,0.0,0.0,0.0,0.0,0.0,0.0,4.0319,0.0,4.0211,4.0211,4.0229,4.0283,4.0605,4.0672,4.05,4.0905,4.1229,4.1487,4.1308,4.1244,4.1236,4.1004,4.0908,4.0898,4.0954,4.0971,4.0999,4.0996,4.1179,4.1361,4.36,4.3339,4.3087,4.3087,4.2995,4.2903,4.2903,4.2619,4.2324,4.2038,4.1604,4.1163,4.0918,4.0888,0.0,4.0888,4.0888,4.0888,4.0888,4.0888,4.0888,4.0888,4.0793,4.0648,4.0485,4.0387,0.0,4.0188,4.0938,4.1877,4.3014,4.3014,4.3178,4.3497,4.3497,4.3497,4.3497,4.3497,4.3513,4.3548,4.3582,4.3667,4.3734,4.3865,4.3929,4.3961,4.3974,4.4005,4.4005,4.4005,4.4005,4.4005,4.4005,4.4005,4.4005,4.4005,4.4005,4.4005,4.4005,4.4005,4.4005,4.4005,4.4005,4.4005,4.3974,4.3929,4.3851,4.3701,4.3781,4.4023,4.4546,4.4751,4.5007,4.5513,4.5586,4.5586,4.5586,0.0,0.0,0.0,0.0,0.0,0.0,4.3855,4.3201,0.0,0.0,0.0,0.0,0.0,0.0,4.0489,4.0489,0.0,4.0489,4.0489,4.0504,4.0534,4.0612,4.0996,4.168,4.1408,4.147,4.1773,4.1468,4.1324,4.1315,4.1034,4.0936,4.0945,4.0991,4.0999,4.0996,4.1032,4.1227,4.1448,4.3804,4.3804,0.0,0.0,4.3356,0.0,4.294,4.2121,4.1516,4.1516,4.1163,4.0918,4.0965,4.0965,4.0965,4.1012,0.0,0.0,0.0,4.0965,4.0965,4.0965,4.0793,4.0648,4.0534,4.0387,4.0337,4.0436,4.1525,4.2562,4.3532,4.3532,4.3532,4.3532,4.3532,4.3532,4.3532,4.3532,4.3566,4.3615,4.3615,4.3734,4.3897,4.3915,4.3961,4.4005,4.4005,4.4005,4.4005,4.4005,4.4005,4.4005,4.4005,4.4036,4.4017,4.4005,4.4005,4.4005,4.4005,4.4005,4.4005,4.4005,4.4005,4.3974,4.3929,4.3942,4.3942,4.3851,4.4079,4.4402,4.4676,4.4938,4.5222,4.555,4.5586,4.5586,4.5586,0.0,0.0,0.0,0.0,0.0,0.0,4.4393,4.4047,0.0,0.0,0.0,0.0,0.0,4.0642,4.0585,4.0527,4.0489,4.0489,4.0489,4.0534,4.0607,4.0655,4.155,4.3097,4.2361,4.2451,4.3183,4.251,4.218,4.2063,4.1446,4.1147,4.1103,4.1167,4.1174,4.1182,4.1261,4.1745,4.2279,0.0,0.0,4.3686,4.3267,4.3123,4.2941,4.2523,4.1997,4.1648,4.1648,4.1209,4.1041,4.1463,4.1507,4.1692,4.2098,4.1735,4.1534,4.1683,4.1596,4.1507,4.1507,4.1088,4.0793,4.0648,4.06,4.0913,4.1613,4.2266,4.2922,4.3582,4.3582,4.3582,4.3582,4.3582,4.3582,4.3582,4.3582,4.3634,4.3753,4.38,4.3865,4.3915,4.3961,4.3974,4.4005,4.4005,4.4005,4.4005,4.4005,4.4005,4.4005,4.4005,4.4181,4.4346,4.4079,4.4005,4.4005,4.4005,4.4005,4.4005,4.4005,4.4005,4.4005,4.3974,4.3961,4.3974,4.4151,4.425,4.4438,4.4919,4.5096,4.5263,4.5568,4.5586,4.5586,4.5586,4.5586,0.0,0.0,4.5586,4.5509,4.5297,4.5278,4.4932,0.0,0.0,0.0,0.0,4.2701,4.2181,4.1508,4.0854,4.0489,4.0489,4.0489,4.0539,4.0603,4.0621,4.09,4.1381,4.1253,4.1304,4.1519,4.2049,4.1902,4.1371,4.2505,4.2597,4.2064,4.2715,4.2986,4.2994,4.3003,4.3124,4.3262,4.3897,4.3897,4.3781,4.3511,4.3105,4.2754,4.2426,4.1803,4.1418,4.1666,4.1463,4.1445,4.2015,4.2056,4.2221,4.2523,4.2244,4.1973,4.1839,4.1753,4.1578,4.1346,4.1041,4.084,4.0697,4.0931,4.1499,4.2408,4.2774,4.3195,4.3667,4.3667,4.3667,4.3667,4.3667,4.3667,4.3667,4.3667,4.3753,4.3851,4.3883,4.3929,4.3961,4.3974,4.4005,4.4005,4.4005,4.4005,4.4005,4.4005,4.4005,4.4005,4.4005,4.4221,4.4465,4.426,4.4327,4.4401,4.4401,4.4327,4.4192,4.4048,4.4005,4.4017,4.4151,4.4151,4.4192,4.4465,4.4624,4.48,4.5096,4.5282,4.5419,4.5568,4.5586,4.5586,4.5586,4.5586,0.0,4.5586,4.5586,4.5586,4.5586,4.5586,4.5393,4.4932,4.4893,0.0,4.4259,4.3855,4.3258,4.2431,4.1546,4.1085,4.1085,4.0716,4.0554,4.0598,4.064,4.0681,4.0752,4.0815,4.0839,4.0869,4.1429,4.1634,4.1662,4.2584,4.2939,4.2943,4.342,4.3603,4.3605,4.3593,4.3591,4.3608,4.4005,4.4005,4.3955,4.3873,4.3123,4.2483,4.2404,4.1604,4.1163,4.1622,4.1778,4.2015,4.2562,4.26,4.2659,4.2811,4.2736,4.2523,4.1973,4.1864,4.1622,4.1163,4.1012,4.0871,4.0871,4.1455,4.2149,4.2941,4.3123,4.3424,4.3804,4.3804,4.3804,4.3804,4.3804,4.3804,4.3804,4.3804,4.3851,4.3929,4.3929,4.3961,4.4005,4.4005,4.4005,4.4005,4.4005,4.4005,4.4005,4.4005,4.4005,4.4005,4.4048,4.4289,4.458,4.4631,4.4839,4.5023,4.4916,4.4719,4.4493,4.421,4.4121,4.4181,4.443,4.4465,4.4546,4.48,4.5052,4.5222,4.5243,4.5438,4.5586,4.5586,4.5586,4.5586,4.5586,0.0,4.5586,4.5586,4.5586,4.5586,4.5586,4.5586,4.5586,4.5586,4.5586,4.5586,4.5586,4.4893,4.4182,4.3508,4.2508,4.195,4.1816,4.1016,4.0603,4.0588,4.0668,4.07,4.0713,4.0773,4.0809,4.0829,4.1042,4.1493,4.2115,4.2329,4.2829,4.3435,4.3554,4.3691,4.3808,4.38,4.3888,4.4003,4.4005,4.4005,4.3841,4.3403,4.2867,4.2324,4.1888,4.1692,4.1622,4.1709,4.2098,4.2562,4.3032,4.3105,4.3265,4.3726,4.3777,4.3594,4.3159,4.2678,4.2324,4.2244,4.1356,4.1088,4.1534,4.2447,4.2996,4.3087,4.3526,4.3814,4.3865,4.3865,4.3865,4.3865,4.3865,4.3865,4.3865,4.3865,4.3929,4.3974,4.3974,4.4005,4.4005,4.4005,4.4005,4.4005,4.4005,4.4005,4.4005,4.4005,4.4005,4.4048,4.4346,4.4612,4.489,4.5186,4.5451,4.5555,4.5044,4.4881,4.4825,4.4776,4.4726,4.4676,4.4726,4.4726,4.48,4.5074,4.518,4.5263,4.5495,4.5568,4.5586,4.5586,4.5586,4.5586,4.5586,0.0,4.5586,4.5586,4.5586,4.5586,4.5586,4.5586,4.5586,4.5586,4.5586,4.5586,4.5586,4.547,4.5336,4.522,4.3701,4.2563,4.1882,4.1031,4.0603,4.0588,4.0668,4.0726,4.0788,4.0804,4.0839,4.0927,4.1721,4.1744,4.132,4.2839,4.3122,4.2655,4.3392,4.4103,4.4706,4.4699,4.5169,4.5806,4.4005,4.4005,4.3923,4.3675,4.323,4.2811,4.2544,4.2284,4.2203,4.2465,4.2736,4.3087,4.3575,4.3642,4.3726,4.3974,4.4005,4.3923,4.3744,4.3194,4.2621,4.2098,4.1888,4.1997,4.2505,4.2959,4.3334,4.3575,4.3828,4.3942,4.3942,4.3942,4.3942,4.3942,4.3942,4.3942,4.3942,4.3942,4.3974,4.4005,4.4005,4.4005,4.4005,4.4005,4.4005,4.4017,4.4192,4.4279,4.4289,4.4447,4.4463,4.4489,4.4669,4.4931,4.5207,4.5342,4.5591,4.5703,4.5285,4.5166,4.5123,4.495,4.4881,4.4905,4.5036,4.508,4.5144,4.5419,4.5475,4.5512,4.564,4.5657,4.564,4.5622,4.5586,0.0,0.0,4.5586,4.5586,4.5586,4.5586,4.5603,4.564,4.5657,4.5657,4.5657,4.5657,4.564,4.5586,4.5586,4.5622,4.5657,4.4446,4.3192,4.1909,4.1538,4.1137,4.0713,4.0746,4.0769,4.0801,4.0839,4.0887,4.0978,4.1441,4.1682,4.1814,4.2617,4.2983,4.3124,4.402,4.4573,4.4952,4.543,4.5845,4.6196,4.4036,4.4055,4.4036,4.4067,4.3609,4.3265,4.3265,4.2923,4.2774,4.314,4.33,4.3523,4.3974,4.4036,4.4036,4.4005,4.4036,4.4005,4.386,4.3575,4.2996,4.208,4.2426,4.2811,4.3176,4.3334,4.3575,4.4005,4.4005,4.4005,4.4005,4.4005,4.4005,4.4005,4.4005,4.4005,4.4005,4.4036,4.4036,4.4005,4.4036,4.4036,4.4005,4.4109,4.4121,4.4151,4.4474,4.4587,4.4612,4.482,4.4912,4.4912,4.4979,4.5187,4.5417,4.547,4.5642,4.5752,4.5558,4.549,4.5417,4.5167,4.5105,4.5147,4.5342,4.5399,4.5454,4.5665,4.57,4.5703,4.5709,4.5693,4.5693,4.5603,0.0,0.0,0.0,4.5586,4.5586,4.5586,4.5586,4.5622,4.5693,4.5693,4.5693,4.5693,4.5693,4.5693,4.5622,4.5622,4.5657,4.569,4.4861,4.3798,4.2517,4.216,4.168,4.1081,4.0885,4.0789,4.0796,4.087,4.095,4.0996,4.1041,4.1562,4.2371,4.2334,4.2728,4.3401,4.4253,4.4617,4.4728,4.5579,4.602,4.6196,4.4153,4.4184,4.4214,4.4255,4.3758,4.3406,4.3406,4.323,4.314,4.3176,4.3642,4.3955,4.4005,4.4104,4.4135,4.4005,4.4104,4.3974,4.3474,4.386,4.3828,4.3105,4.314,4.3176,4.3211,4.3693,4.3955,4.4005,4.4005,4.4005,4.4005,4.4005,4.4005,4.4005,4.4005,4.4005,4.4005,4.4135,4.4104,4.4005,4.4135,4.4104,4.4017,4.4346,4.4465,4.4519,4.4773,4.4867,4.4867,4.489,4.4912,4.4957,4.5285,4.538,4.5453,4.5688,4.578,4.58,4.5786,4.5776,4.5765,4.5731,4.57,4.5648,4.5665,4.5665,4.5665,4.57,4.5687,4.5709,4.5709,4.5693,4.5693,4.5603,0.0,0.0,4.5622,4.5586,4.5586,4.5586,4.5586,4.5622,4.5693,4.5693,4.5693,4.5693,4.5693,4.5693,4.5693,4.5693,4.569,4.57,4.4858,4.4373,4.4298,4.2705,4.1909,4.1893,4.117,4.0799,4.0796,4.0869,4.0944,4.1,4.1008,4.1504,4.2319,4.2376,4.244,4.2568,4.3382,4.3733,4.3899,4.4709,4.5514,4.6196,4.4255,4.4255,4.4255,4.4285,4.4097,4.3955,4.3955,4.3905,4.3873,4.3873,4.4067,4.4177,4.4177,4.4226,4.4226,4.4177,4.4226,4.4195,4.3955,4.4147,4.4116,4.3828,4.3726,4.3744,4.3828,4.3923,4.4036,4.4135,4.4036,4.4005,4.4005,4.4005,4.4005,4.4005,4.4005,4.4005,4.4005,4.4135,4.4184,4.4147,4.4374,4.4439,4.4402,4.4663,4.4743,4.4792,4.5105,4.5207,4.5246,4.5396,4.5468,4.5486,4.5607,4.5658,4.5673,4.5766,4.58,4.58,4.58,4.58,4.5805,4.5805,4.5771,4.5757,4.5757,4.5757,4.5757,4.5765,4.575,4.5754,4.5703,4.5703,4.5687,4.5657,0.0,4.5693,4.5676,4.5622,4.562,4.5651,4.562,4.5637,4.5754,4.5719,4.5719,4.5754,4.5754,4.5754,4.5703,4.5703,4.5703,4.57,4.5375,4.4967,4.4442,4.382,4.3021,4.207,4.1743,4.1376,4.0922,4.0957,4.0991,4.1054,4.1051,4.1242,4.1607,4.2174,4.2397,4.2485,4.3334,4.3986,4.4481,4.4793,4.5443,4.6196,4.4344,4.4344,4.4344,4.4373,4.4344,4.4344,4.4344,4.4314,4.4285,4.4285,4.4285,4.4285,4.4285,4.4314,4.4314,4.4314,4.4314,4.4344,4.4344,4.4344,4.4285,4.4214,4.4104,4.4104,4.4184,4.4104,4.4104,4.4184,4.4055,4.4005,4.4005,4.4005,4.4005,4.4005,4.4005,4.4005,4.4055,4.4165,4.4255,4.4335,4.4557,4.465,4.4732,4.4976,4.5063,4.5105,4.5416,4.5541,4.5558,4.5737,4.58,4.58,4.58,4.58,4.58,4.58,4.58,4.58,4.58,4.58,4.58,4.58,4.58,4.58,4.58,4.58,4.58,4.5795,4.58,4.5781,4.5715,4.5715,4.5735,4.569,4.5726,4.5722,4.5706,4.569,4.5671,4.57,4.5687,4.5687,4.5765,4.575,4.5731,4.5765,4.5765,4.575,4.57,4.5715,4.5742,4.5794,4.5747,4.5465,4.4911,4.4647,4.3981,4.2918,4.2393,4.19,4.1405,4.1152,4.1069,4.1108,4.1108,4.1264,4.1553,4.2147,4.2568,4.289,4.3743,4.4259,4.4598,4.5105,4.5508,4.5832,4.4383,4.4383,4.4411,4.4487,4.444,4.4383,4.4383,4.4325,4.4314,4.4314,4.4314,4.4314,4.4314,4.4373,4.4354,4.4314,4.4354,4.4383,4.4383,4.4383,4.4344,4.4214,4.4184,4.4184,4.4184,4.4184,4.4184,4.4184,4.4055,4.4005,4.4005,4.4005,4.4005,4.4005,4.4005,4.4085,4.4214,4.4255,4.4402,4.4617,4.4676,4.4787,4.4935,4.5285,4.5399,4.5435,4.5703,4.58,4.58,4.58,4.58,4.58,4.58,4.58,4.58,4.58,4.58,4.58,4.58,4.58,4.58,4.58,4.58,4.58,4.58,4.58,4.58,4.5795,4.58,4.5781,4.5715,4.5765,4.5785,4.5709,4.5754,4.5781,4.5715,4.5765,4.5765,4.5715,4.5765,4.5765,4.5715,4.5765,4.5765,4.5715,4.57,4.57,4.5715,4.5765,4.5854,4.5998,4.5869,4.5862,4.6008,4.5084,4.4646,4.4685,4.3084,4.2301,4.2265,4.1474,4.1108,4.1108,4.1108,4.1589,4.2401,4.2397,4.2919,4.3768,4.459,4.4415,4.3899,4.5566,4.5644,4.5027,4.4458,4.4487,4.4487,4.4515,4.4487,4.4487,4.4487,4.4458,4.443,4.443,4.443,4.443,4.443,4.4458,4.4458,4.4458,4.4458,4.4487,4.4487,4.4411,4.4383,4.4344,4.4285,4.4255,4.4255,4.4214,4.4214,4.4255,4.4085,4.4005,4.4005,4.4005,4.4005,4.4005,4.4104,4.4248,4.4421,4.453,4.472,4.4985,4.5184,4.5285,4.5342,4.5591,4.5673,4.5688,4.5766,4.58,4.58,4.58,4.58,4.58,4.58,4.58,4.58,4.58,4.58,4.58,4.58,4.58,4.58,4.58,4.58,4.58,4.58,4.5805,4.5795,4.5815,4.58,4.5781,4.5765,4.5776,4.5791,4.5785,4.5785,4.5795,4.5771,4.5795,4.581,4.5838,4.581,4.5795,4.5771,4.5746,4.5746,4.5771,4.5771,4.5808,4.5902,4.5883,4.591,4.5994,4.5967,4.5955,4.6008,4.5714,4.5319,4.4753,4.434,4.3515,4.2357,4.2112,4.1674,4.1108,4.1108,4.1244,4.1534,4.2147,4.2553,4.2861,4.3729,4.4265,4.4532,4.4473,4.5033,4.5754,4.4515,4.4515,4.4515,4.4515,4.4515,4.4515,4.4515,4.4515,4.4515,4.4515,4.4515,4.4515,4.4515,4.4515,4.4515,4.4515,4.4515,4.4515,4.4515,4.444,4.4411,4.4383,4.4401,4.4373,4.4344,4.4285,4.4304,4.4285,4.4147,4.4055,4.4005,4.4121,4.4192,4.4192,4.4393,4.4565,4.4751,4.4825,4.5011,4.5284,4.5436,4.556,4.5626,4.5752,4.58,4.58,4.58,4.58,4.58,4.58,4.58,4.58,4.58,4.58,4.58,4.58,4.58,4.58,4.58,4.58,4.58,4.58,4.58,4.58,4.5805,4.5791,4.581,4.5795,4.5795,4.5791,4.5791,4.5805,4.5786,4.5795,4.5795,4.5805,4.5847,4.5833,4.5847,4.5893,4.5847,4.5819,4.5757,4.58,4.5848,4.5875,4.5886,4.591,4.5994,4.5994,4.602,4.6074,4.6078,4.6085,4.6119,4.6114,4.586,4.5343,4.5077,4.4236,4.289,4.2555,4.1927,4.1108,4.1108,4.1108,4.1147,4.1667,4.2093,4.2455,4.2978,4.369,4.4395,4.4245,4.461,4.5222,4.4515,4.4515,4.4515,4.4515,4.4515,4.4515,4.4515,4.4515,4.4515,4.4515,4.4515,4.4515,4.4515,4.4515,4.4515,4.4515,4.4515,4.4515,4.4515,4.4524,4.4496,4.4411,4.4505,4.4532,4.4468,4.4411,4.4383,4.4344,4.4255,4.4177,4.4091,4.4383,4.4527,4.4553,4.4796,4.4995,4.5118,4.514,4.5284,4.5543,4.5543,4.5642,4.58,4.58,4.58,4.58,4.58,4.58,4.58,4.58,4.58,4.58,4.58,4.58,4.58,4.58,4.58,4.58,4.58,4.58,4.58,4.58,4.58,4.58,4.581,4.5805,4.58,4.581,4.5805,4.5814,4.5814,4.5814,4.58,4.5795,4.5805,4.5827,4.5893,4.5893,4.5893,4.5906,4.5905,4.5861,4.5742,4.5898,4.6017,4.5994,4.6001,4.6014,4.602,4.6069,4.6144,4.621,4.621,4.6248,4.63,4.6309,4.6264,4.6191,4.5463,4.4669,4.3785,4.2903,4.2045,4.1205,4.1127,4.1108,4.1108,4.1108,4.1573,4.2284,4.2362,4.288,4.369,4.4493,4.4376,4.4036,4.4515,4.4515,4.4515,4.4551,4.4578,4.4578,4.4578,4.4578,4.4551,4.4515,4.4515,4.4515,4.4515,4.4515,4.4515,4.4515,4.4515,4.4515,4.4515,4.4707,4.4688,4.4487,4.4896,4.5014,4.4795,4.4541,4.4458,4.4591,4.4557,4.4572,4.47,4.482,4.4867,4.482,4.4979,4.5166,4.5343,4.5399,4.5524,4.5737,4.5737,4.5752,4.58,4.58,4.58,4.58,4.58,4.58,4.58,4.58,4.58,4.58,4.58,4.58,4.58,4.58,4.58,4.58,4.58,4.58,4.58,4.581,4.5838,4.588,4.588,4.5838,4.5805,4.5867,4.5887,4.5893,4.5893,4.5867,4.5867,4.58,4.5847,4.5874,4.5893,4.5905,4.5905,4.5905,4.5988,4.6008,4.5947,4.6021,4.6066,4.5998,4.606,4.6099,4.6153,4.6161,4.621,4.6276,4.6273,4.629,4.63,4.6303,4.629,4.6282,4.61,4.557,4.4689,4.3824,4.2942,4.2084,4.14,4.1108,4.1108,4.1108,4.1205,4.1456,4.2128,4.2514,4.2783,4.3631,4.4245,4.4773,4.4524,4.4621,4.4674,4.464,4.4726,4.4751,4.4632,4.4605,4.4578,4.4551,4.457,4.4551,4.4578,4.4674,4.4732,4.4681,4.4814,4.4819,4.4707,4.4943,4.5014,4.4891,4.5144,4.5227,4.5101,4.4919,4.4872,4.4928,4.4905,4.4909,4.4963,4.5149,4.5227,4.5189,4.5395,4.5552,4.5654,4.5669,4.5752,4.5847,4.5847,4.5827,4.58,4.58,4.58,4.58,4.58,4.58,4.58,4.58,4.58,4.58,4.58,4.58,4.58,4.58,4.58,4.58,4.58,4.58,4.58,4.5838,4.5852,4.5847,4.5852,4.5852,4.586,4.5899,4.5887,4.5906,4.5899,4.5899,4.5899,4.586,4.5893,4.5887,4.5905,4.5905,4.5922,4.5988,4.6054,4.6111,4.6092,4.6094,4.6117,4.6134,4.618,4.6208,4.6249,4.6247,4.6261,4.63,4.63,4.63,4.63,4.63,4.6303,4.6306,4.6306,4.5838,4.4979,4.4097,4.3216,4.2357,4.1479,4.1108,4.1108,4.1108,4.1108,4.1147,4.1589,4.2034,4.2455,4.2919,4.3841,4.491,4.4605,4.4783,4.491,4.4777,4.491,4.4938,4.4726,4.4693,4.4693,4.4667,4.47,4.4751,4.4802,4.4938,4.5033,4.4966,4.5185,4.5206,4.4988,4.5226,4.5342,4.5304,4.5379,4.5396,4.5379,4.5396,4.536,4.5266,4.5266,4.5227,4.517,4.5445,4.5584,4.5584,4.5815,4.5917,4.5905,4.5905,4.5893,4.5906,4.5906,4.586,4.5814,4.5814,4.5814,4.58,4.58,4.58,4.58,4.58,4.58,4.58,4.58,4.58,4.58,4.5814,4.5814,4.5814,4.5814,4.5814,4.5827,4.586,4.586,4.5827,4.5824,4.586,4.5893,4.5919,4.5906,4.5899,4.5905,4.5912,4.5906,4.5906,4.5906,4.5899,4.5922,4.5922,4.5958,4.6096,4.6105,4.6128,4.6207,4.6165,4.619,4.6297,4.6297,4.6295,4.6303,4.63,4.63,4.63,4.63,4.63,4.63,4.63,4.63,4.63,4.63,4.5929,4.5187,4.4328,4.345,4.2572,4.1693,4.1244,4.1108,4.1108,4.1108,4.1108,4.1108,4.1534,4.2206,4.2342,4.3378,4.4598,4.4667,4.4857,4.5007,4.503,4.5052,4.5074,4.5049,4.503,4.5007,4.4938,4.5099,4.5206,4.5226,4.5246,4.5265,4.5246,4.5285,4.5266,4.5246,4.5505,4.5539,4.5323,4.5675,4.5809,4.5654,4.5829,4.5796,4.5536,4.5536,4.5634,4.5783,4.5873,4.5905,4.5861,4.5949,4.596,4.5905,4.5905,4.5905,4.5905,4.5905,4.588,4.5893,4.5893,4.5847,4.58,4.58,4.58,4.58,4.58,4.58,4.58,4.58,4.58,4.5814,4.586,4.5893,4.5893,4.5893,4.5899,4.5861,4.5827,4.5899,4.5968,4.5893,4.5899,4.5919,4.5968,4.5937,4.5905,4.5905,4.5949,4.5968,4.5906,4.5899,4.5922,4.5988,4.5998,4.6002,4.6089,4.615,4.6209,4.6282,4.6276,4.6276,4.63,4.6293,4.6306,4.629,4.6303,4.63,4.63,4.63,4.63,4.63,4.63,4.63,4.63,4.63,4.6241,4.6085,4.5226,4.4348,4.3469,4.2591,4.1791,4.1108,4.1108,4.1108,4.1108,4.1108,4.1166,4.1378,4.2108,4.2983,4.3831,4.4929,4.5184,4.538,4.5323,4.5418,4.5435,4.5285,4.5265,4.5265,4.5225,4.5285,4.538,4.5399,4.5505,4.5555,4.5539,4.5634,4.563,4.5539,4.5742,4.5809,4.5708,4.5891,4.5956,4.5866,4.5944,4.5944,4.5822,4.5822,4.5866,4.5964,4.5994,4.5975,4.5964,4.5994,4.5975,4.5964,4.5964,4.5953,4.596,4.596,4.5937,4.5912,4.5912,4.588,4.5867,4.586,4.5874,4.5854,4.5814,4.5808,4.5867,4.586,4.5874,4.5867,4.588,4.5899,4.5906,4.5899,4.5899,4.5899,4.5912,4.5968,4.5991,4.5964,4.5953,4.596,4.5991,4.598,4.596,4.596,4.5991,4.6014,4.6007,4.6008,4.6026,4.6053,4.606,4.6069,4.6141,4.6211,4.6261,4.6306,4.6306,4.6309,4.6293,4.6309,4.6306,4.6306,4.6303,4.63,4.63,4.63,4.63,4.63,4.63,4.63,4.63,4.63,4.63,4.6261,4.5402,4.4524,4.3645,4.2786,4.1908,4.1108,4.1108,4.1108,4.1108,4.1108,4.1104,4.1195,4.1992,4.2507,4.2918]}]]